Wetterdaten: Mittwoch, 23.10.2019
Datum Zeit Temp. A. Feuchte A. Luftdruck Regen Wind Richtung Richtung Sonnenschein ET UV Solar Taupunkt Windchill Windböen
23.10.2019 00:00 10,3 °C 96 % 1019,6 hPa 0,0 mm 0,0 km/h (0 Bft) O-NO 69 ° 0 min 0,000 mm 0,0 UV-I 0 W/m² 9,7 °C 10,3 °C 0,0 km/h (0 Bft)
23.10.2019 00:01 10,3 °C 96 % 1019,6 hPa 0,0 mm 0,0 km/h (0 Bft) O-NO 69 ° 0 min 0,000 mm 0,0 UV-I 0 W/m² 9,7 °C 10,3 °C 0,0 km/h (0 Bft)
23.10.2019 00:02 10,3 °C 96 % 1019,6 hPa 0,0 mm 0,0 km/h (0 Bft) O-NO 69 ° 0 min 0,000 mm 0,0 UV-I 0 W/m² 9,7 °C 10,3 °C 0,0 km/h (0 Bft)
23.10.2019 00:03 10,3 °C 96 % 1019,6 hPa 0,0 mm 0,0 km/h (0 Bft) O-NO 69 ° 0 min 0,000 mm 0,0 UV-I 0 W/m² 9,7 °C 10,3 °C 0,0 km/h (0 Bft)
23.10.2019 00:04 10,3 °C 96 % 1019,6 hPa 0,0 mm 0,0 km/h (0 Bft) O-NO 69 ° 0 min 0,000 mm 0,0 UV-I 0 W/m² 9,7 °C 10,3 °C 0,0 km/h (0 Bft)
23.10.2019 00:05 10,3 °C 96 % 1019,6 hPa 0,0 mm 0,0 km/h (0 Bft) O-NO 69 ° 0 min 0,000 mm 0,0 UV-I 0 W/m² 9,7 °C 10,3 °C 0,0 km/h (0 Bft)
23.10.2019 00:06 10,3 °C 96 % 1019,6 hPa 0,0 mm 0,0 km/h (0 Bft) O-NO 69 ° 0 min 0,000 mm 0,0 UV-I 0 W/m² 9,7 °C 10,3 °C 0,0 km/h (0 Bft)
23.10.2019 00:07 10,3 °C 96 % 1019,6 hPa 0,0 mm 0,0 km/h (0 Bft) O-NO 69 ° 0 min 0,000 mm 0,0 UV-I 0 W/m² 9,7 °C 10,3 °C 0,0 km/h (0 Bft)
23.10.2019 00:08 10,3 °C 96 % 1019,6 hPa 0,0 mm 0,0 km/h (0 Bft) O-NO 69 ° 0 min 0,000 mm 0,0 UV-I 0 W/m² 9,7 °C 10,3 °C 0,0 km/h (0 Bft)
23.10.2019 00:09 10,3 °C 96 % 1019,5 hPa 0,0 mm 0,0 km/h (0 Bft) O-NO 69 ° 0 min 0,000 mm 0,0 UV-I 0 W/m² 9,7 °C 10,3 °C 0,0 km/h (0 Bft)
23.10.2019 00:10 10,3 °C 96 % 1019,6 hPa 0,0 mm 0,0 km/h (0 Bft) O-NO 69 ° 0 min 0,000 mm 0,0 UV-I 0 W/m² 9,7 °C 10,3 °C 0,0 km/h (0 Bft)
23.10.2019 00:11 10,3 °C 96 % 1019,5 hPa 0,0 mm 0,0 km/h (0 Bft) O-NO 69 ° 0 min 0,000 mm 0,0 UV-I 0 W/m² 9,7 °C 10,3 °C 0,0 km/h (0 Bft)
23.10.2019 00:12 10,3 °C 96 % 1019,6 hPa 0,0 mm 0,0 km/h (0 Bft) O-NO 69 ° 0 min 0,000 mm 0,0 UV-I 0 W/m² 9,7 °C 10,3 °C 0,0 km/h (0 Bft)
23.10.2019 00:13 10,3 °C 96 % 1019,5 hPa 0,0 mm 0,0 km/h (0 Bft) O-NO 69 ° 0 min 0,000 mm 0,0 UV-I 0 W/m² 9,7 °C 10,3 °C 0,0 km/h (0 Bft)
23.10.2019 00:14 10,3 °C 96 % 1019,5 hPa 0,0 mm 0,0 km/h (0 Bft) O-NO 69 ° 0 min 0,000 mm 0,0 UV-I 0 W/m² 9,7 °C 10,3 °C 0,0 km/h (0 Bft)
23.10.2019 00:15 10,3 °C 96 % 1019,5 hPa 0,0 mm 0,0 km/h (0 Bft) O-NO 69 ° 0 min 0,000 mm 0,0 UV-I 0 W/m² 9,7 °C 10,3 °C 0,0 km/h (0 Bft)
23.10.2019 00:16 10,3 °C 96 % 1019,5 hPa 0,0 mm 0,0 km/h (0 Bft) O-NO 69 ° 0 min 0,000 mm 0,0 UV-I 0 W/m² 9,7 °C 10,3 °C 0,0 km/h (0 Bft)
23.10.2019 00:17 10,3 °C 96 % 1019,5 hPa 0,0 mm 0,0 km/h (0 Bft) O-NO 69 ° 0 min 0,000 mm 0,0 UV-I 0 W/m² 9,7 °C 10,3 °C 0,0 km/h (0 Bft)
23.10.2019 00:18 10,3 °C 96 % 1019,5 hPa 0,0 mm 0,0 km/h (0 Bft) O-NO 69 ° 0 min 0,000 mm 0,0 UV-I 0 W/m² 9,7 °C 10,3 °C 0,0 km/h (0 Bft)
23.10.2019 00:19 10,3 °C 96 % 1019,5 hPa 0,0 mm 0,0 km/h (0 Bft) O-NO 69 ° 0 min 0,000 mm 0,0 UV-I 0 W/m² 9,7 °C 10,3 °C 0,0 km/h (0 Bft)
23.10.2019 00:20 10,3 °C 96 % 1019,5 hPa 0,0 mm 0,0 km/h (0 Bft) O-NO 69 ° 0 min 0,000 mm 0,0 UV-I 0 W/m² 9,7 °C 10,3 °C 0,0 km/h (0 Bft)
23.10.2019 00:21 10,3 °C 96 % 1019,5 hPa 0,0 mm 0,0 km/h (0 Bft) O-NO 69 ° 0 min 0,000 mm 0,0 UV-I 0 W/m² 9,7 °C 10,3 °C 0,0 km/h (0 Bft)
23.10.2019 00:22 10,3 °C 96 % 1019,5 hPa 0,0 mm 0,0 km/h (0 Bft) O-NO 69 ° 0 min 0,000 mm 0,0 UV-I 0 W/m² 9,7 °C 10,3 °C 0,0 km/h (0 Bft)
23.10.2019 00:23 10,3 °C 96 % 1019,5 hPa 0,0 mm 0,0 km/h (0 Bft) O-NO 69 ° 0 min 0,000 mm 0,0 UV-I 0 W/m² 9,7 °C 10,3 °C 0,0 km/h (0 Bft)
23.10.2019 00:24 10,3 °C 96 % 1019,5 hPa 0,0 mm 0,0 km/h (0 Bft) O-NO 69 ° 0 min 0,000 mm 0,0 UV-I 0 W/m² 9,7 °C 10,3 °C 0,0 km/h (0 Bft)
23.10.2019 00:25 10,3 °C 96 % 1019,5 hPa 0,0 mm 1,6 km/h (1 Bft) O-NO 69 ° 0 min 0,000 mm 0,0 UV-I 0 W/m² 9,7 °C 10,3 °C 4,8 km/h (1 Bft)
23.10.2019 00:26 10,3 °C 96 % 1019,4 hPa 0,0 mm 2,1 km/h (1 Bft) O-NO 69 ° 0 min 0,000 mm 0,0 UV-I 0 W/m² 9,7 °C 10,3 °C 3,2 km/h (1 Bft)
23.10.2019 00:27 10,3 °C 96 % 1019,3 hPa 0,0 mm 1,7 km/h (1 Bft) O-NO 69 ° 0 min 0,000 mm 0,0 UV-I 0 W/m² 9,7 °C 10,3 °C 3,2 km/h (1 Bft)
23.10.2019 00:28 10,3 °C 96 % 1019,3 hPa 0,0 mm 0,2 km/h (0 Bft) O-NO 69 ° 0 min 0,000 mm 0,0 UV-I 0 W/m² 9,7 °C 10,3 °C 1,6 km/h (1 Bft)
23.10.2019 00:29 10,3 °C 96 % 1019,3 hPa 0,0 mm 0,0 km/h (0 Bft) O-NO 69 ° 0 min 0,000 mm 0,0 UV-I 0 W/m² 9,7 °C 10,3 °C 0,0 km/h (0 Bft)
23.10.2019 00:30 10,3 °C 96 % 1019,3 hPa 0,0 mm 0,0 km/h (0 Bft) O-NO 69 ° 0 min 0,000 mm 0,0 UV-I 0 W/m² 9,7 °C 10,3 °C 0,0 km/h (0 Bft)
23.10.2019 00:31 10,3 °C 96 % 1019,3 hPa 0,0 mm 0,7 km/h (0 Bft) O-NO 69 ° 0 min 0,000 mm 0,0 UV-I 0 W/m² 9,7 °C 10,3 °C 1,6 km/h (1 Bft)
23.10.2019 00:32 10,3 °C 96 % 1019,3 hPa 0,0 mm 1,5 km/h (1 Bft) O-NO 69 ° 0 min 0,000 mm 0,0 UV-I 0 W/m² 9,7 °C 10,3 °C 4,8 km/h (1 Bft)
23.10.2019 00:33 10,2 °C 96 % 1019,3 hPa 0,0 mm 1,7 km/h (1 Bft) O-NO 69 ° 0 min 0,000 mm 0,0 UV-I 0 W/m² 9,6 °C 10,2 °C 3,2 km/h (1 Bft)
23.10.2019 00:34 10,2 °C 96 % 1019,3 hPa 0,0 mm 2,1 km/h (1 Bft) O-NO 69 ° 0 min 0,000 mm 0,0 UV-I 0 W/m² 9,6 °C 10,2 °C 3,2 km/h (1 Bft)
23.10.2019 00:35 10,2 °C 96 % 1019,3 hPa 0,0 mm 1,1 km/h (1 Bft) O-NO 69 ° 0 min 0,000 mm 0,0 UV-I 0 W/m² 9,6 °C 10,2 °C 3,2 km/h (1 Bft)
23.10.2019 00:36 10,2 °C 96 % 1019,3 hPa 0,0 mm 0,6 km/h (0 Bft) O-NO 69 ° 0 min 0,000 mm 0,0 UV-I 0 W/m² 9,6 °C 10,2 °C 1,6 km/h (1 Bft)
23.10.2019 00:37 10,2 °C 96 % 1019,3 hPa 0,0 mm 0,0 km/h (0 Bft) O-NO 69 ° 0 min 0,000 mm 0,0 UV-I 0 W/m² 9,6 °C 10,2 °C 0,0 km/h (0 Bft)
23.10.2019 00:38 10,2 °C 96 % 1019,4 hPa 0,0 mm 0,5 km/h (0 Bft) O-NO 69 ° 0 min 0,000 mm 0,0 UV-I 0 W/m² 9,6 °C 10,2 °C 1,6 km/h (1 Bft)
23.10.2019 00:39 10,2 °C 96 % 1019,4 hPa 0,0 mm 1,5 km/h (1 Bft) O-NO 69 ° 0 min 0,000 mm 0,0 UV-I 0 W/m² 9,6 °C 10,2 °C 3,2 km/h (1 Bft)
23.10.2019 00:40 10,2 °C 96 % 1019,4 hPa 0,0 mm 0,0 km/h (0 Bft) O-NO 69 ° 0 min 0,000 mm 0,0 UV-I 0 W/m² 9,6 °C 10,2 °C 0,0 km/h (0 Bft)
23.10.2019 00:41 10,2 °C 96 % 1019,3 hPa 0,0 mm 0,0 km/h (0 Bft) O-NO 69 ° 0 min 0,000 mm 0,0 UV-I 0 W/m² 9,6 °C 10,2 °C 0,0 km/h (0 Bft)
23.10.2019 00:42 10,2 °C 96 % 1019,3 hPa 0,0 mm 0,7 km/h (0 Bft) O-NO 69 ° 0 min 0,000 mm 0,0 UV-I 0 W/m² 9,6 °C 10,2 °C 3,2 km/h (1 Bft)
23.10.2019 00:43 10,2 °C 96 % 1019,3 hPa 0,0 mm 2,6 km/h (1 Bft) O-NO 69 ° 0 min 0,000 mm 0,0 UV-I 0 W/m² 9,6 °C 10,2 °C 4,8 km/h (1 Bft)
23.10.2019 00:44 10,2 °C 96 % 1019,3 hPa 0,0 mm 1,4 km/h (1 Bft) O-NO 69 ° 0 min 0,000 mm 0,0 UV-I 0 W/m² 9,6 °C 10,2 °C 3,2 km/h (1 Bft)
23.10.2019 00:45 10,2 °C 96 % 1019,4 hPa 0,0 mm 0,4 km/h (0 Bft) O-NO 69 ° 0 min 0,000 mm 0,0 UV-I 0 W/m² 9,6 °C 10,2 °C 1,6 km/h (1 Bft)
23.10.2019 00:46 10,1 °C 96 % 1019,3 hPa 0,0 mm 1,7 km/h (1 Bft) O-NO 69 ° 0 min 0,000 mm 0,0 UV-I 0 W/m² 9,5 °C 10,1 °C 3,2 km/h (1 Bft)
23.10.2019 00:47 10,1 °C 96 % 1019,3 hPa 0,0 mm 0,6 km/h (0 Bft) O-NO 69 ° 0 min 0,000 mm 0,0 UV-I 0 W/m² 9,5 °C 10,1 °C 1,6 km/h (1 Bft)
23.10.2019 00:48 10,1 °C 96 % 1019,3 hPa 0,0 mm 0,0 km/h (0 Bft) O-NO 69 ° 0 min 0,000 mm 0,0 UV-I 0 W/m² 9,5 °C 10,1 °C 0,0 km/h (0 Bft)
23.10.2019 00:49 10,1 °C 96 % 1019,3 hPa 0,0 mm 0,0 km/h (0 Bft) O-NO 69 ° 0 min 0,000 mm 0,0 UV-I 0 W/m² 9,5 °C 10,1 °C 0,0 km/h (0 Bft)
23.10.2019 00:50 10,1 °C 96 % 1019,2 hPa 0,0 mm 0,0 km/h (0 Bft) O-NO 69 ° 0 min 0,000 mm 0,0 UV-I 0 W/m² 9,5 °C 10,1 °C 0,0 km/h (0 Bft)
23.10.2019 00:51 10,1 °C 96 % 1019,2 hPa 0,0 mm 0,0 km/h (0 Bft) O-NO 69 ° 0 min 0,000 mm 0,0 UV-I 0 W/m² 9,5 °C 10,1 °C 0,0 km/h (0 Bft)
23.10.2019 00:52 10,1 °C 96 % 1019,2 hPa 0,0 mm 0,0 km/h (0 Bft) O-NO 69 ° 0 min 0,000 mm 0,0 UV-I 0 W/m² 9,5 °C 10,1 °C 0,0 km/h (0 Bft)
23.10.2019 00:53 10,1 °C 96 % 1019,1 hPa 0,0 mm 5,7 km/h (1 Bft) O 94 ° 0 min 0,000 mm 0,0 UV-I 0 W/m² 9,5 °C 10,1 °C 9,7 km/h (2 Bft)
23.10.2019 00:54 10,1 °C 96 % 1019,2 hPa 0,0 mm 3,9 km/h (1 Bft) O 94 ° 0 min 0,000 mm 0,0 UV-I 0 W/m² 9,5 °C 10,1 °C 6,4 km/h (2 Bft)
23.10.2019 00:55 10,1 °C 96 % 1019,0 hPa 0,0 mm 3,8 km/h (1 Bft) O 94 ° 0 min 0,000 mm 0,0 UV-I 0 W/m² 9,5 °C 10,1 °C 6,4 km/h (2 Bft)
23.10.2019 00:56 10,1 °C 96 % 1019,1 hPa 0,0 mm 2,3 km/h (1 Bft) O 94 ° 0 min 0,000 mm 0,0 UV-I 0 W/m² 9,5 °C 10,1 °C 4,8 km/h (1 Bft)
23.10.2019 00:57 10,1 °C 96 % 1019,1 hPa 0,0 mm 0,1 km/h (0 Bft) O 94 ° 0 min 0,000 mm 0,0 UV-I 0 W/m² 9,5 °C 10,1 °C 1,6 km/h (1 Bft)
23.10.2019 00:58 10,1 °C 96 % 1019,0 hPa 0,0 mm 0,0 km/h (0 Bft) O 94 ° 0 min 0,000 mm 0,0 UV-I 0 W/m² 9,5 °C 10,1 °C 0,0 km/h (0 Bft)
23.10.2019 00:59 10,1 °C 96 % 1019,1 hPa 0,0 mm 0,0 km/h (0 Bft) O 94 ° 0 min 0,000 mm 0,0 UV-I 0 W/m² 9,5 °C 10,1 °C 0,0 km/h (0 Bft)
23.10.2019 01:00 10,1 °C 96 % 1019,1 hPa 0,0 mm 0,7 km/h (0 Bft) O 94 ° 0 min 0,000 mm 0,0 UV-I 0 W/m² 9,5 °C 10,1 °C 3,2 km/h (1 Bft)
23.10.2019 01:01 10,1 °C 96 % 1019,1 hPa 0,0 mm 0,1 km/h (0 Bft) O 94 ° 0 min 0,000 mm 0,0 UV-I 0 W/m² 9,5 °C 10,1 °C 1,6 km/h (1 Bft)
23.10.2019 01:02 10,1 °C 96 % 1019,1 hPa 0,0 mm 2,3 km/h (1 Bft) O 94 ° 0 min 0,000 mm 0,0 UV-I 0 W/m² 9,5 °C 10,1 °C 3,2 km/h (1 Bft)
23.10.2019 01:03 10,1 °C 96 % 1019,1 hPa 0,0 mm 2,2 km/h (1 Bft) O 94 ° 0 min 0,000 mm 0,0 UV-I 0 W/m² 9,5 °C 10,1 °C 3,2 km/h (1 Bft)
23.10.2019 01:04 10,1 °C 96 % 1019,1 hPa 0,0 mm 1,0 km/h (0 Bft) O 94 ° 0 min 0,000 mm 0,0 UV-I 0 W/m² 9,5 °C 10,1 °C 1,6 km/h (1 Bft)
23.10.2019 01:05 10,1 °C 96 % 1019,1 hPa 0,0 mm 0,1 km/h (0 Bft) O 94 ° 0 min 0,000 mm 0,0 UV-I 0 W/m² 9,5 °C 10,1 °C 1,6 km/h (1 Bft)
23.10.2019 01:06 10,1 °C 96 % 1019,1 hPa 0,0 mm 0,0 km/h (0 Bft) O 94 ° 0 min 0,000 mm 0,0 UV-I 0 W/m² 9,5 °C 10,1 °C 0,0 km/h (0 Bft)
23.10.2019 01:07 10,1 °C 96 % 1019,0 hPa 0,0 mm 0,0 km/h (0 Bft) O 94 ° 0 min 0,000 mm 0,0 UV-I 0 W/m² 9,5 °C 10,1 °C 0,0 km/h (0 Bft)
23.10.2019 01:08 10,1 °C 96 % 1019,0 hPa 0,0 mm 0,0 km/h (0 Bft) O 94 ° 0 min 0,000 mm 0,0 UV-I 0 W/m² 9,5 °C 10,1 °C 0,0 km/h (0 Bft)
23.10.2019 01:09 10,1 °C 96 % 1019,0 hPa 0,0 mm 0,6 km/h (0 Bft) O 94 ° 0 min 0,000 mm 0,0 UV-I 0 W/m² 9,5 °C 10,1 °C 1,6 km/h (1 Bft)
23.10.2019 01:10 10,1 °C 96 % 1019,0 hPa 0,0 mm 0,0 km/h (0 Bft) O 94 ° 0 min 0,000 mm 0,0 UV-I 0 W/m² 9,5 °C 10,1 °C 0,0 km/h (0 Bft)
23.10.2019 01:11 10,1 °C 96 % 1018,9 hPa 0,0 mm 0,0 km/h (0 Bft) O 94 ° 0 min 0,000 mm 0,0 UV-I 0 W/m² 9,5 °C 10,1 °C 0,0 km/h (0 Bft)
23.10.2019 01:12 10,0 °C 96 % 1019,0 hPa 0,0 mm 0,0 km/h (0 Bft) O 94 ° 0 min 0,000 mm 0,0 UV-I 0 W/m² 9,4 °C 10,0 °C 0,0 km/h (0 Bft)
23.10.2019 01:13 10,1 °C 96 % 1019,0 hPa 0,0 mm 0,1 km/h (0 Bft) O 94 ° 0 min 0,000 mm 0,0 UV-I 0 W/m² 9,5 °C 10,1 °C 1,6 km/h (1 Bft)
23.10.2019 01:14 10,1 °C 96 % 1019,0 hPa 0,0 mm 1,1 km/h (1 Bft) O 94 ° 0 min 0,000 mm 0,0 UV-I 0 W/m² 9,5 °C 10,1 °C 3,2 km/h (1 Bft)
23.10.2019 01:15 10,0 °C 96 % 1018,9 hPa 0,0 mm 1,0 km/h (0 Bft) O 94 ° 0 min 0,000 mm 0,0 UV-I 0 W/m² 9,4 °C 10,0 °C 3,2 km/h (1 Bft)
23.10.2019 01:16 10,0 °C 96 % 1018,9 hPa 0,0 mm 0,1 km/h (0 Bft) O 94 ° 0 min 0,000 mm 0,0 UV-I 0 W/m² 9,4 °C 10,0 °C 1,6 km/h (1 Bft)
23.10.2019 01:17 10,0 °C 96 % 1018,9 hPa 0,0 mm 0,0 km/h (0 Bft) O 94 ° 0 min 0,000 mm 0,0 UV-I 0 W/m² 9,4 °C 10,0 °C 0,0 km/h (0 Bft)
23.10.2019 01:18 10,0 °C 96 % 1018,9 hPa 0,0 mm 0,0 km/h (0 Bft) O 94 ° 0 min 0,000 mm 0,0 UV-I 0 W/m² 9,4 °C 10,0 °C 0,0 km/h (0 Bft)
23.10.2019 01:19 10,0 °C 96 % 1018,8 hPa 0,0 mm 0,0 km/h (0 Bft) O 94 ° 0 min 0,000 mm 0,0 UV-I 0 W/m² 9,4 °C 10,0 °C 0,0 km/h (0 Bft)
23.10.2019 01:20 9,9 °C 96 % 1018,8 hPa 0,0 mm 0,0 km/h (0 Bft) O 94 ° 0 min 0,000 mm 0,0 UV-I 0 W/m² 9,3 °C 9,9 °C 0,0 km/h (0 Bft)
23.10.2019 01:21 10,0 °C 96 % 1018,8 hPa 0,0 mm 0,0 km/h (0 Bft) O 94 ° 0 min 0,000 mm 0,0 UV-I 0 W/m² 9,4 °C 10,0 °C 0,0 km/h (0 Bft)
23.10.2019 01:22 9,9 °C 96 % 1018,8 hPa 0,0 mm 2,5 km/h (1 Bft) O 94 ° 0 min 0,000 mm 0,0 UV-I 0 W/m² 9,3 °C 9,9 °C 3,2 km/h (1 Bft)
23.10.2019 01:23 9,9 °C 96 % 1018,7 hPa 0,0 mm 3,2 km/h (1 Bft) O 94 ° 0 min 0,000 mm 0,0 UV-I 0 W/m² 9,3 °C 9,9 °C 4,8 km/h (1 Bft)
23.10.2019 01:24 10,0 °C 96 % 1018,8 hPa 0,0 mm 1,5 km/h (1 Bft) O 94 ° 0 min 0,000 mm 0,0 UV-I 0 W/m² 9,4 °C 10,0 °C 3,2 km/h (1 Bft)
23.10.2019 01:25 9,9 °C 96 % 1018,7 hPa 0,0 mm 1,0 km/h (0 Bft) O 94 ° 0 min 0,000 mm 0,0 UV-I 0 W/m² 9,3 °C 9,9 °C 3,2 km/h (1 Bft)
23.10.2019 01:26 9,9 °C 96 % 1018,7 hPa 0,0 mm 0,0 km/h (0 Bft) O 94 ° 0 min 0,000 mm 0,0 UV-I 0 W/m² 9,3 °C 9,9 °C 0,0 km/h (0 Bft)
23.10.2019 01:27 9,9 °C 96 % 1018,8 hPa 0,0 mm 0,0 km/h (0 Bft) O 94 ° 0 min 0,000 mm 0,0 UV-I 0 W/m² 9,3 °C 9,9 °C 0,0 km/h (0 Bft)
23.10.2019 01:28 9,9 °C 96 % 1018,8 hPa 0,0 mm 0,0 km/h (0 Bft) O 94 ° 0 min 0,000 mm 0,0 UV-I 0 W/m² 9,3 °C 9,9 °C 0,0 km/h (0 Bft)
23.10.2019 01:29 9,9 °C 96 % 1018,7 hPa 0,0 mm 0,0 km/h (0 Bft) O 94 ° 0 min 0,000 mm 0,0 UV-I 0 W/m² 9,3 °C 9,9 °C 0,0 km/h (0 Bft)
23.10.2019 01:30 9,9 °C 96 % 1018,7 hPa 0,0 mm 0,0 km/h (0 Bft) O 94 ° 0 min 0,000 mm 0,0 UV-I 0 W/m² 9,3 °C 9,9 °C 0,0 km/h (0 Bft)
23.10.2019 01:31 9,8 °C 96 % 1018,8 hPa 0,0 mm 0,0 km/h (0 Bft) O 94 ° 0 min 0,000 mm 0,0 UV-I 0 W/m² 9,2 °C 9,8 °C 0,0 km/h (0 Bft)
23.10.2019 01:32 9,8 °C 96 % 1018,8 hPa 0,0 mm 0,0 km/h (0 Bft) O 94 ° 0 min 0,000 mm 0,0 UV-I 0 W/m² 9,2 °C 9,8 °C 0,0 km/h (0 Bft)
23.10.2019 01:33 9,8 °C 96 % 1018,8 hPa 0,0 mm 0,0 km/h (0 Bft) O 94 ° 0 min 0,000 mm 0,0 UV-I 0 W/m² 9,2 °C 9,8 °C 0,0 km/h (0 Bft)
23.10.2019 01:34 9,8 °C 96 % 1018,8 hPa 0,0 mm 0,0 km/h (0 Bft) O 94 ° 0 min 0,000 mm 0,0 UV-I 0 W/m² 9,2 °C 9,8 °C 0,0 km/h (0 Bft)
23.10.2019 01:35 9,8 °C 96 % 1018,7 hPa 0,0 mm 0,0 km/h (0 Bft) O 94 ° 0 min 0,000 mm 0,0 UV-I 0 W/m² 9,2 °C 9,8 °C 0,0 km/h (0 Bft)
23.10.2019 01:36 9,8 °C 96 % 1018,8 hPa 0,0 mm 0,0 km/h (0 Bft) O 94 ° 0 min 0,000 mm 0,0 UV-I 0 W/m² 9,2 °C 9,8 °C 0,0 km/h (0 Bft)
23.10.2019 01:37 9,8 °C 96 % 1018,8 hPa 0,0 mm 0,0 km/h (0 Bft) O 94 ° 0 min 0,000 mm 0,0 UV-I 0 W/m² 9,2 °C 9,8 °C 0,0 km/h (0 Bft)
23.10.2019 01:38 9,8 °C 96 % 1018,8 hPa 0,0 mm 0,0 km/h (0 Bft) O 94 ° 0 min 0,000 mm 0,0 UV-I 0 W/m² 9,2 °C 9,8 °C 0,0 km/h (0 Bft)
23.10.2019 01:39 9,8 °C 96 % 1018,8 hPa 0,0 mm 0,0 km/h (0 Bft) O 94 ° 0 min 0,000 mm 0,0 UV-I 0 W/m² 9,2 °C 9,8 °C 0,0 km/h (0 Bft)
23.10.2019 01:40 9,7 °C 96 % 1018,7 hPa 0,0 mm 0,0 km/h (0 Bft) O 94 ° 0 min 0,000 mm 0,0 UV-I 0 W/m² 9,1 °C 9,7 °C 0,0 km/h (0 Bft)
23.10.2019 01:41 9,7 °C 96 % 1018,8 hPa 0,0 mm 0,0 km/h (0 Bft) O 94 ° 0 min 0,000 mm 0,0 UV-I 0 W/m² 9,1 °C 9,7 °C 0,0 km/h (0 Bft)
23.10.2019 01:42 9,7 °C 96 % 1018,7 hPa 0,0 mm 0,0 km/h (0 Bft) O 94 ° 0 min 0,000 mm 0,0 UV-I 0 W/m² 9,1 °C 9,7 °C 0,0 km/h (0 Bft)
23.10.2019 01:43 9,7 °C 96 % 1018,7 hPa 0,0 mm 0,0 km/h (0 Bft) O 94 ° 0 min 0,000 mm 0,0 UV-I 0 W/m² 9,1 °C 9,7 °C 0,0 km/h (0 Bft)
23.10.2019 01:44 9,8 °C 96 % 1018,7 hPa 0,0 mm 0,0 km/h (0 Bft) O 94 ° 0 min 0,000 mm 0,0 UV-I 0 W/m² 9,2 °C 9,8 °C 0,0 km/h (0 Bft)
23.10.2019 01:45 9,7 °C 96 % 1018,7 hPa 0,0 mm 0,0 km/h (0 Bft) O 94 ° 0 min 0,000 mm 0,0 UV-I 0 W/m² 9,1 °C 9,7 °C 0,0 km/h (0 Bft)
23.10.2019 01:46 9,7 °C 96 % 1018,7 hPa 0,0 mm 0,0 km/h (0 Bft) O 94 ° 0 min 0,000 mm 0,0 UV-I 0 W/m² 9,1 °C 9,7 °C 0,0 km/h (0 Bft)
23.10.2019 01:47 9,7 °C 96 % 1018,7 hPa 0,0 mm 0,0 km/h (0 Bft) O 94 ° 0 min 0,000 mm 0,0 UV-I 0 W/m² 9,1 °C 9,7 °C 0,0 km/h (0 Bft)
23.10.2019 01:48 9,7 °C 96 % 1018,7 hPa 0,0 mm 0,0 km/h (0 Bft) O 94 ° 0 min 0,000 mm 0,0 UV-I 0 W/m² 9,1 °C 9,7 °C 0,0 km/h (0 Bft)
23.10.2019 01:49 9,7 °C 96 % 1018,7 hPa 0,0 mm 0,0 km/h (0 Bft) O 94 ° 0 min 0,000 mm 0,0 UV-I 0 W/m² 9,1 °C 9,7 °C 0,0 km/h (0 Bft)
23.10.2019 01:50 9,7 °C 96 % 1018,8 hPa 0,0 mm 0,0 km/h (0 Bft) O 94 ° 0 min 0,000 mm 0,0 UV-I 0 W/m² 9,1 °C 9,7 °C 0,0 km/h (0 Bft)
23.10.2019 01:51 9,7 °C 96 % 1018,7 hPa 0,0 mm 0,0 km/h (0 Bft) O 94 ° 0 min 0,000 mm 0,0 UV-I 0 W/m² 9,1 °C 9,7 °C 0,0 km/h (0 Bft)
23.10.2019 01:52 9,7 °C 96 % 1018,7 hPa 0,0 mm 0,0 km/h (0 Bft) O 94 ° 0 min 0,000 mm 0,0 UV-I 0 W/m² 9,1 °C 9,7 °C 0,0 km/h (0 Bft)
23.10.2019 01:53 9,7 °C 96 % 1018,6 hPa 0,0 mm 0,0 km/h (0 Bft) O 94 ° 0 min 0,000 mm 0,0 UV-I 0 W/m² 9,1 °C 9,7 °C 0,0 km/h (0 Bft)
23.10.2019 01:54 9,7 °C 96 % 1018,7 hPa 0,0 mm 0,0 km/h (0 Bft) O 94 ° 0 min 0,000 mm 0,0 UV-I 0 W/m² 9,1 °C 9,7 °C 0,0 km/h (0 Bft)
23.10.2019 01:55 9,7 °C 96 % 1018,7 hPa 0,0 mm 0,0 km/h (0 Bft) O 94 ° 0 min 0,000 mm 0,0 UV-I 0 W/m² 9,1 °C 9,7 °C 0,0 km/h (0 Bft)
23.10.2019 01:56 9,7 °C 96 % 1018,6 hPa 0,0 mm 0,0 km/h (0 Bft) O 94 ° 0 min 0,000 mm 0,0 UV-I 0 W/m² 9,1 °C 9,7 °C 0,0 km/h (0 Bft)
23.10.2019 01:57 9,6 °C 96 % 1018,6 hPa 0,0 mm 0,0 km/h (0 Bft) O 94 ° 0 min 0,000 mm 0,0 UV-I 0 W/m² 9,0 °C 9,6 °C 0,0 km/h (0 Bft)
23.10.2019 01:58 9,6 °C 96 % 1018,7 hPa 0,0 mm 0,0 km/h (0 Bft) O 94 ° 0 min 0,000 mm 0,0 UV-I 0 W/m² 9,0 °C 9,6 °C 0,0 km/h (0 Bft)
23.10.2019 01:59 9,6 °C 96 % 1018,6 hPa 0,0 mm 0,0 km/h (0 Bft) O 94 ° 0 min 0,000 mm 0,0 UV-I 0 W/m² 9,0 °C 9,6 °C 0,0 km/h (0 Bft)
23.10.2019 02:00 9,6 °C 96 % 1018,6 hPa 0,0 mm 0,0 km/h (0 Bft) O 94 ° 0 min 0,000 mm 0,0 UV-I 0 W/m² 9,0 °C 9,6 °C 0,0 km/h (0 Bft)
23.10.2019 02:01 9,6 °C 96 % 1018,6 hPa 0,0 mm 0,0 km/h (0 Bft) O 94 ° 0 min 0,000 mm 0,0 UV-I 0 W/m² 9,0 °C 9,6 °C 0,0 km/h (0 Bft)
23.10.2019 02:02 9,5 °C 96 % 1018,6 hPa 0,0 mm 0,0 km/h (0 Bft) O 94 ° 0 min 0,000 mm 0,0 UV-I 0 W/m² 8,9 °C 9,5 °C 0,0 km/h (0 Bft)
23.10.2019 02:03 9,4 °C 96 % 1018,6 hPa 0,0 mm 0,0 km/h (0 Bft) O 94 ° 0 min 0,000 mm 0,0 UV-I 0 W/m² 8,8 °C 9,4 °C 0,0 km/h (0 Bft)
23.10.2019 02:04 9,4 °C 96 % 1018,6 hPa 0,0 mm 0,0 km/h (0 Bft) O 94 ° 0 min 0,000 mm 0,0 UV-I 0 W/m² 8,8 °C 9,4 °C 0,0 km/h (0 Bft)
23.10.2019 02:05 9,4 °C 96 % 1018,5 hPa 0,0 mm 0,0 km/h (0 Bft) O 94 ° 0 min 0,000 mm 0,0 UV-I 0 W/m² 8,8 °C 9,4 °C 0,0 km/h (0 Bft)
23.10.2019 02:06 9,4 °C 96 % 1018,5 hPa 0,0 mm 0,0 km/h (0 Bft) O 94 ° 0 min 0,000 mm 0,0 UV-I 0 W/m² 8,8 °C 9,4 °C 0,0 km/h (0 Bft)
23.10.2019 02:07 9,4 °C 96 % 1018,5 hPa 0,0 mm 0,0 km/h (0 Bft) O 94 ° 0 min 0,000 mm 0,0 UV-I 0 W/m² 8,8 °C 9,4 °C 0,0 km/h (0 Bft)
23.10.2019 02:08 9,3 °C 96 % 1018,5 hPa 0,0 mm 0,0 km/h (0 Bft) O 94 ° 0 min 0,000 mm 0,0 UV-I 0 W/m² 8,7 °C 9,3 °C 0,0 km/h (0 Bft)
23.10.2019 02:09 9,3 °C 96 % 1018,5 hPa 0,0 mm 0,0 km/h (0 Bft) O 94 ° 0 min 0,000 mm 0,0 UV-I 0 W/m² 8,7 °C 9,3 °C 0,0 km/h (0 Bft)
23.10.2019 02:10 9,2 °C 96 % 1018,5 hPa 0,0 mm 0,0 km/h (0 Bft) O 94 ° 0 min 0,000 mm 0,0 UV-I 0 W/m² 8,6 °C 9,2 °C 0,0 km/h (0 Bft)
23.10.2019 02:11 9,2 °C 96 % 1018,5 hPa 0,0 mm 0,0 km/h (0 Bft) O 94 ° 0 min 0,000 mm 0,0 UV-I 0 W/m² 8,6 °C 9,2 °C 0,0 km/h (0 Bft)
23.10.2019 02:12 9,2 °C 96 % 1018,5 hPa 0,0 mm 0,0 km/h (0 Bft) O 94 ° 0 min 0,000 mm 0,0 UV-I 0 W/m² 8,6 °C 9,2 °C 0,0 km/h (0 Bft)
23.10.2019 02:13 9,2 °C 96 % 1018,5 hPa 0,0 mm 0,0 km/h (0 Bft) O 94 ° 0 min 0,000 mm 0,0 UV-I 0 W/m² 8,6 °C 9,2 °C 0,0 km/h (0 Bft)
23.10.2019 02:14 9,1 °C 96 % 1018,5 hPa 0,0 mm 0,0 km/h (0 Bft) O 94 ° 0 min 0,000 mm 0,0 UV-I 0 W/m² 8,5 °C 9,1 °C 0,0 km/h (0 Bft)
23.10.2019 02:15 9,1 °C 96 % 1018,4 hPa 0,0 mm 0,0 km/h (0 Bft) O 94 ° 0 min 0,000 mm 0,0 UV-I 0 W/m² 8,5 °C 9,1 °C 0,0 km/h (0 Bft)
23.10.2019 02:16 9,1 °C 96 % 1018,4 hPa 0,0 mm 0,0 km/h (0 Bft) O 94 ° 0 min 0,000 mm 0,0 UV-I 0 W/m² 8,5 °C 9,1 °C 0,0 km/h (0 Bft)
23.10.2019 02:17 9,1 °C 96 % 1018,4 hPa 0,0 mm 0,0 km/h (0 Bft) O 94 ° 0 min 0,000 mm 0,0 UV-I 0 W/m² 8,5 °C 9,1 °C 0,0 km/h (0 Bft)
23.10.2019 02:18 9,0 °C 96 % 1018,4 hPa 0,0 mm 0,0 km/h (0 Bft) O 94 ° 0 min 0,000 mm 0,0 UV-I 0 W/m² 8,4 °C 9,0 °C 0,0 km/h (0 Bft)
23.10.2019 02:19 8,9 °C 96 % 1018,5 hPa 0,0 mm 0,0 km/h (0 Bft) O 94 ° 0 min 0,000 mm 0,0 UV-I 0 W/m² 8,3 °C 8,9 °C 0,0 km/h (0 Bft)
23.10.2019 02:20 8,9 °C 96 % 1018,5 hPa 0,0 mm 0,0 km/h (0 Bft) O 94 ° 0 min 0,000 mm 0,0 UV-I 0 W/m² 8,3 °C 8,9 °C 0,0 km/h (0 Bft)
23.10.2019 02:21 8,8 °C 96 % 1018,5 hPa 0,0 mm 0,0 km/h (0 Bft) O 94 ° 0 min 0,000 mm 0,0 UV-I 0 W/m² 8,2 °C 8,8 °C 0,0 km/h (0 Bft)
23.10.2019 02:22 8,8 °C 95 % 1018,5 hPa 0,0 mm 0,0 km/h (0 Bft) O 94 ° 0 min 0,000 mm 0,0 UV-I 0 W/m² 8,0 °C 8,8 °C 0,0 km/h (0 Bft)
23.10.2019 02:23 8,7 °C 95 % 1018,5 hPa 0,0 mm 0,0 km/h (0 Bft) O 94 ° 0 min 0,000 mm 0,0 UV-I 0 W/m² 7,9 °C 8,7 °C 0,0 km/h (0 Bft)
23.10.2019 02:24 8,8 °C 96 % 1018,5 hPa 0,0 mm 0,0 km/h (0 Bft) O 94 ° 0 min 0,000 mm 0,0 UV-I 0 W/m² 8,2 °C 8,8 °C 0,0 km/h (0 Bft)
23.10.2019 02:25 8,8 °C 96 % 1018,5 hPa 0,0 mm 0,0 km/h (0 Bft) O 94 ° 0 min 0,000 mm 0,0 UV-I 0 W/m² 8,2 °C 8,8 °C 0,0 km/h (0 Bft)
23.10.2019 02:26 8,8 °C 96 % 1018,4 hPa 0,0 mm 0,0 km/h (0 Bft) O 94 ° 0 min 0,000 mm 0,0 UV-I 0 W/m² 8,2 °C 8,8 °C 0,0 km/h (0 Bft)
23.10.2019 02:27 8,8 °C 96 % 1018,4 hPa 0,0 mm 0,0 km/h (0 Bft) O 94 ° 0 min 0,000 mm 0,0 UV-I 0 W/m² 8,2 °C 8,8 °C 0,0 km/h (0 Bft)
23.10.2019 02:28 8,8 °C 96 % 1018,4 hPa 0,0 mm 0,0 km/h (0 Bft) O 94 ° 0 min 0,000 mm 0,0 UV-I 0 W/m² 8,2 °C 8,8 °C 0,0 km/h (0 Bft)
23.10.2019 02:29 8,8 °C 96 % 1018,4 hPa 0,0 mm 0,0 km/h (0 Bft) O 94 ° 0 min 0,000 mm 0,0 UV-I 0 W/m² 8,2 °C 8,8 °C 0,0 km/h (0 Bft)
23.10.2019 02:30 8,8 °C 96 % 1018,4 hPa 0,0 mm 0,0 km/h (0 Bft) O 94 ° 0 min 0,000 mm 0,0 UV-I 0 W/m² 8,2 °C 8,8 °C 0,0 km/h (0 Bft)
23.10.2019 02:31 8,9 °C 96 % 1018,4 hPa 0,0 mm 0,0 km/h (0 Bft) O 94 ° 0 min 0,000 mm 0,0 UV-I 0 W/m² 8,3 °C 8,9 °C 0,0 km/h (0 Bft)
23.10.2019 02:32 8,9 °C 96 % 1018,4 hPa 0,0 mm 0,0 km/h (0 Bft) O 94 ° 0 min 0,000 mm 0,0 UV-I 0 W/m² 8,3 °C 8,9 °C 0,0 km/h (0 Bft)
23.10.2019 02:33 8,9 °C 96 % 1018,4 hPa 0,0 mm 0,0 km/h (0 Bft) O 94 ° 0 min 0,000 mm 0,0 UV-I 0 W/m² 8,3 °C 8,9 °C 0,0 km/h (0 Bft)
23.10.2019 02:34 8,9 °C 96 % 1018,3 hPa 0,0 mm 0,0 km/h (0 Bft) O 94 ° 0 min 0,000 mm 0,0 UV-I 0 W/m² 8,3 °C 8,9 °C 0,0 km/h (0 Bft)
23.10.2019 02:35 8,8 °C 96 % 1018,3 hPa 0,0 mm 0,0 km/h (0 Bft) O 94 ° 0 min 0,000 mm 0,0 UV-I 0 W/m² 8,2 °C 8,8 °C 0,0 km/h (0 Bft)
23.10.2019 02:36 8,8 °C 96 % 1018,3 hPa 0,0 mm 0,0 km/h (0 Bft) O 94 ° 0 min 0,000 mm 0,0 UV-I 0 W/m² 8,2 °C 8,8 °C 0,0 km/h (0 Bft)
23.10.2019 02:37 8,8 °C 96 % 1018,3 hPa 0,0 mm 0,0 km/h (0 Bft) O 94 ° 0 min 0,000 mm 0,0 UV-I 0 W/m² 8,2 °C 8,8 °C 0,0 km/h (0 Bft)
23.10.2019 02:38 8,8 °C 96 % 1018,2 hPa 0,0 mm 0,0 km/h (0 Bft) O 94 ° 0 min 0,000 mm 0,0 UV-I 0 W/m² 8,2 °C 8,8 °C 0,0 km/h (0 Bft)
23.10.2019 02:39 8,8 °C 96 % 1018,1 hPa 0,0 mm 0,0 km/h (0 Bft) O 94 ° 0 min 0,000 mm 0,0 UV-I 0 W/m² 8,2 °C 8,8 °C 0,0 km/h (0 Bft)
23.10.2019 02:40 8,9 °C 96 % 1018,2 hPa 0,0 mm 0,0 km/h (0 Bft) O 94 ° 0 min 0,000 mm 0,0 UV-I 0 W/m² 8,3 °C 8,9 °C 0,0 km/h (0 Bft)
23.10.2019 02:41 8,9 °C 96 % 1018,1 hPa 0,0 mm 0,0 km/h (0 Bft) O 94 ° 0 min 0,000 mm 0,0 UV-I 0 W/m² 8,3 °C 8,9 °C 0,0 km/h (0 Bft)
23.10.2019 02:42 8,9 °C 96 % 1018,2 hPa 0,0 mm 0,0 km/h (0 Bft) O 94 ° 0 min 0,000 mm 0,0 UV-I 0 W/m² 8,3 °C 8,9 °C 0,0 km/h (0 Bft)
23.10.2019 02:43 8,9 °C 96 % 1018,2 hPa 0,0 mm 0,0 km/h (0 Bft) O 94 ° 0 min 0,000 mm 0,0 UV-I 0 W/m² 8,3 °C 8,9 °C 0,0 km/h (0 Bft)
23.10.2019 02:44 9,0 °C 96 % 1018,1 hPa 0,0 mm 0,0 km/h (0 Bft) O 94 ° 0 min 0,000 mm 0,0 UV-I 0 W/m² 8,4 °C 9,0 °C 0,0 km/h (0 Bft)
23.10.2019 02:45 9,1 °C 96 % 1018,1 hPa 0,0 mm 0,0 km/h (0 Bft) O 94 ° 0 min 0,000 mm 0,0 UV-I 0 W/m² 8,5 °C 9,1 °C 0,0 km/h (0 Bft)
23.10.2019 02:46 9,1 °C 96 % 1018,0 hPa 0,0 mm 0,0 km/h (0 Bft) O 94 ° 0 min 0,000 mm 0,0 UV-I 0 W/m² 8,5 °C 9,1 °C 0,0 km/h (0 Bft)
23.10.2019 02:47 9,1 °C 96 % 1018,1 hPa 0,0 mm 0,0 km/h (0 Bft) O 94 ° 0 min 0,000 mm 0,0 UV-I 0 W/m² 8,5 °C 9,1 °C 0,0 km/h (0 Bft)
23.10.2019 02:48 9,1 °C 96 % 1018,1 hPa 0,0 mm 0,0 km/h (0 Bft) O 94 ° 0 min 0,000 mm 0,0 UV-I 0 W/m² 8,5 °C 9,1 °C 0,0 km/h (0 Bft)
23.10.2019 02:49 9,1 °C 96 % 1018,1 hPa 0,0 mm 0,0 km/h (0 Bft) O 94 ° 0 min 0,000 mm 0,0 UV-I 0 W/m² 8,5 °C 9,1 °C 0,0 km/h (0 Bft)
23.10.2019 02:50 9,1 °C 96 % 1018,0 hPa 0,0 mm 0,0 km/h (0 Bft) O 94 ° 0 min 0,000 mm 0,0 UV-I 0 W/m² 8,5 °C 9,1 °C 0,0 km/h (0 Bft)
23.10.2019 02:51 9,1 °C 96 % 1017,9 hPa 0,0 mm 0,0 km/h (0 Bft) O 94 ° 0 min 0,000 mm 0,0 UV-I 0 W/m² 8,5 °C 9,1 °C 0,0 km/h (0 Bft)
23.10.2019 02:52 9,1 °C 96 % 1017,9 hPa 0,0 mm 0,0 km/h (0 Bft) O 94 ° 0 min 0,000 mm 0,0 UV-I 0 W/m² 8,5 °C 9,1 °C 0,0 km/h (0 Bft)
23.10.2019 02:53 9,1 °C 96 % 1017,9 hPa 0,0 mm 0,0 km/h (0 Bft) O 94 ° 0 min 0,000 mm 0,0 UV-I 0 W/m² 8,5 °C 9,1 °C 0,0 km/h (0 Bft)
23.10.2019 02:54 9,1 °C 96 % 1017,9 hPa 0,0 mm 0,0 km/h (0 Bft) O 94 ° 0 min 0,000 mm 0,0 UV-I 0 W/m² 8,5 °C 9,1 °C 0,0 km/h (0 Bft)
23.10.2019 02:55 9,1 °C 96 % 1017,9 hPa 0,0 mm 0,0 km/h (0 Bft) O 94 ° 0 min 0,000 mm 0,0 UV-I 0 W/m² 8,5 °C 9,1 °C 0,0 km/h (0 Bft)
23.10.2019 02:56 9,1 °C 96 % 1017,9 hPa 0,0 mm 1,6 km/h (1 Bft) O-NO 70 ° 0 min 0,000 mm 0,0 UV-I 0 W/m² 8,5 °C 9,1 °C 4,8 km/h (1 Bft)
23.10.2019 02:57 9,1 °C 96 % 1017,9 hPa 0,0 mm 2,5 km/h (1 Bft) O-NO 70 ° 0 min 0,000 mm 0,0 UV-I 0 W/m² 8,5 °C 9,1 °C 4,8 km/h (1 Bft)
23.10.2019 02:58 9,1 °C 96 % 1018,0 hPa 0,0 mm 0,3 km/h (0 Bft) O-NO 70 ° 0 min 0,000 mm 0,0 UV-I 0 W/m² 8,5 °C 9,1 °C 1,6 km/h (1 Bft)
23.10.2019 02:59 9,1 °C 96 % 1017,9 hPa 0,0 mm 0,0 km/h (0 Bft) O-NO 70 ° 0 min 0,000 mm 0,0 UV-I 0 W/m² 8,5 °C 9,1 °C 0,0 km/h (0 Bft)
23.10.2019 03:00 9,0 °C 96 % 1018,0 hPa 0,0 mm 1,9 km/h (1 Bft) O-NO 66 ° 0 min 0,000 mm 0,0 UV-I 0 W/m² 8,4 °C 9,0 °C 4,8 km/h (1 Bft)
23.10.2019 03:01 9,0 °C 96 % 1018,0 hPa 0,0 mm 2,3 km/h (1 Bft) O-NO 66 ° 0 min 0,000 mm 0,0 UV-I 0 W/m² 8,4 °C 9,0 °C 4,8 km/h (1 Bft)
23.10.2019 03:02 9,0 °C 96 % 1017,9 hPa 0,0 mm 0,7 km/h (0 Bft) O-NO 66 ° 0 min 0,000 mm 0,0 UV-I 0 W/m² 8,4 °C 9,0 °C 3,2 km/h (1 Bft)
23.10.2019 03:03 9,0 °C 96 % 1017,9 hPa 0,0 mm 2,8 km/h (1 Bft) O-NO 66 ° 0 min 0,000 mm 0,0 UV-I 0 W/m² 8,4 °C 9,0 °C 4,8 km/h (1 Bft)
23.10.2019 03:04 9,0 °C 96 % 1017,8 hPa 0,0 mm 2,9 km/h (1 Bft) O 97 ° 0 min 0,000 mm 0,0 UV-I 0 W/m² 8,4 °C 9,0 °C 4,8 km/h (1 Bft)
23.10.2019 03:05 9,0 °C 96 % 1017,8 hPa 0,0 mm 1,2 km/h (1 Bft) O 97 ° 0 min 0,000 mm 0,0 UV-I 0 W/m² 8,4 °C 9,0 °C 3,2 km/h (1 Bft)
23.10.2019 03:06 9,0 °C 96 % 1017,8 hPa 0,0 mm 2,7 km/h (1 Bft) O 97 ° 0 min 0,000 mm 0,0 UV-I 0 W/m² 8,4 °C 9,0 °C 4,8 km/h (1 Bft)
23.10.2019 03:07 9,0 °C 96 % 1017,8 hPa 0,0 mm 1,5 km/h (1 Bft) O 97 ° 0 min 0,000 mm 0,0 UV-I 0 W/m² 8,4 °C 9,0 °C 3,2 km/h (1 Bft)
23.10.2019 03:08 9,0 °C 96 % 1017,8 hPa 0,0 mm 0,1 km/h (0 Bft) O 97 ° 0 min 0,000 mm 0,0 UV-I 0 W/m² 8,4 °C 9,0 °C 1,6 km/h (1 Bft)
23.10.2019 03:09 9,0 °C 96 % 1017,7 hPa 0,0 mm 2,6 km/h (1 Bft) O 97 ° 0 min 0,000 mm 0,0 UV-I 0 W/m² 8,4 °C 9,0 °C 4,8 km/h (1 Bft)
23.10.2019 03:10 9,0 °C 96 % 1017,7 hPa 0,0 mm 1,6 km/h (1 Bft) O 97 ° 0 min 0,000 mm 0,0 UV-I 0 W/m² 8,4 °C 9,0 °C 4,8 km/h (1 Bft)
23.10.2019 03:11 9,0 °C 96 % 1017,7 hPa 0,0 mm 0,9 km/h (0 Bft) O 97 ° 0 min 0,000 mm 0,0 UV-I 0 W/m² 8,4 °C 9,0 °C 3,2 km/h (1 Bft)
23.10.2019 03:12 9,0 °C 96 % 1017,7 hPa 0,0 mm 1,6 km/h (1 Bft) O 97 ° 0 min 0,000 mm 0,0 UV-I 0 W/m² 8,4 °C 9,0 °C 3,2 km/h (1 Bft)
23.10.2019 03:13 9,0 °C 96 % 1017,7 hPa 0,0 mm 4,0 km/h (1 Bft) O 88 ° 0 min 0,000 mm 0,0 UV-I 0 W/m² 8,4 °C 9,0 °C 4,8 km/h (1 Bft)
23.10.2019 03:14 9,0 °C 96 % 1017,7 hPa 0,0 mm 3,1 km/h (1 Bft) O-NO 71 ° 0 min 0,000 mm 0,0 UV-I 0 W/m² 8,4 °C 9,0 °C 4,8 km/h (1 Bft)
23.10.2019 03:15 9,0 °C 96 % 1017,6 hPa 0,0 mm 0,5 km/h (0 Bft) O-NO 71 ° 0 min 0,000 mm 0,0 UV-I 0 W/m² 8,4 °C 9,0 °C 3,2 km/h (1 Bft)
23.10.2019 03:16 9,0 °C 96 % 1017,6 hPa 0,0 mm 1,7 km/h (1 Bft) O 98 ° 0 min 0,000 mm 0,0 UV-I 0 W/m² 8,4 °C 9,0 °C 3,2 km/h (1 Bft)
23.10.2019 03:17 8,9 °C 96 % 1017,6 hPa 0,0 mm 0,1 km/h (0 Bft) O 98 ° 0 min 0,000 mm 0,0 UV-I 0 W/m² 8,3 °C 8,9 °C 1,6 km/h (1 Bft)
23.10.2019 03:18 8,9 °C 96 % 1017,6 hPa 0,0 mm 3,0 km/h (1 Bft) O 82 ° 0 min 0,000 mm 0,0 UV-I 0 W/m² 8,3 °C 8,9 °C 4,8 km/h (1 Bft)
23.10.2019 03:19 8,9 °C 96 % 1017,6 hPa 0,0 mm 2,9 km/h (1 Bft) O 82 ° 0 min 0,000 mm 0,0 UV-I 0 W/m² 8,3 °C 8,9 °C 6,4 km/h (2 Bft)
23.10.2019 03:20 8,9 °C 96 % 1017,6 hPa 0,0 mm 0,0 km/h (0 Bft) O 82 ° 0 min 0,000 mm 0,0 UV-I 0 W/m² 8,3 °C 8,9 °C 0,0 km/h (0 Bft)
23.10.2019 03:21 8,9 °C 96 % 1017,6 hPa 0,0 mm 0,0 km/h (0 Bft) O 82 ° 0 min 0,000 mm 0,0 UV-I 0 W/m² 8,3 °C 8,9 °C 0,0 km/h (0 Bft)
23.10.2019 03:22 8,9 °C 96 % 1017,6 hPa 0,0 mm 0,1 km/h (0 Bft) O 82 ° 0 min 0,000 mm 0,0 UV-I 0 W/m² 8,3 °C 8,9 °C 1,6 km/h (1 Bft)
23.10.2019 03:23 8,9 °C 96 % 1017,6 hPa 0,0 mm 0,1 km/h (0 Bft) O 82 ° 0 min 0,000 mm 0,0 UV-I 0 W/m² 8,3 °C 8,9 °C 1,6 km/h (1 Bft)
23.10.2019 03:24 8,9 °C 96 % 1017,7 hPa 0,0 mm 0,0 km/h (0 Bft) O 82 ° 0 min 0,000 mm 0,0 UV-I 0 W/m² 8,3 °C 8,9 °C 0,0 km/h (0 Bft)
23.10.2019 03:25 8,9 °C 96 % 1017,6 hPa 0,0 mm 0,0 km/h (0 Bft) O 82 ° 0 min 0,000 mm 0,0 UV-I 0 W/m² 8,3 °C 8,9 °C 0,0 km/h (0 Bft)
23.10.2019 03:26 8,9 °C 96 % 1017,6 hPa 0,0 mm 0,0 km/h (0 Bft) O 82 ° 0 min 0,000 mm 0,0 UV-I 0 W/m² 8,3 °C 8,9 °C 0,0 km/h (0 Bft)
23.10.2019 03:27 8,9 °C 96 % 1017,5 hPa 0,0 mm 0,0 km/h (0 Bft) O 82 ° 0 min 0,000 mm 0,0 UV-I 0 W/m² 8,3 °C 8,9 °C 0,0 km/h (0 Bft)
23.10.2019 03:28 8,9 °C 96 % 1017,5 hPa 0,0 mm 0,0 km/h (0 Bft) O 82 ° 0 min 0,000 mm 0,0 UV-I 0 W/m² 8,3 °C 8,9 °C 0,0 km/h (0 Bft)
23.10.2019 03:29 8,9 °C 96 % 1017,5 hPa 0,0 mm 0,0 km/h (0 Bft) O 82 ° 0 min 0,000 mm 0,0 UV-I 0 W/m² 8,3 °C 8,9 °C 0,0 km/h (0 Bft)
23.10.2019 03:30 8,9 °C 96 % 1017,5 hPa 0,0 mm 0,0 km/h (0 Bft) O 82 ° 0 min 0,000 mm 0,0 UV-I 0 W/m² 8,3 °C 8,9 °C 0,0 km/h (0 Bft)
23.10.2019 03:31 8,9 °C 96 % 1017,5 hPa 0,0 mm 1,7 km/h (1 Bft) O 82 ° 0 min 0,000 mm 0,0 UV-I 0 W/m² 8,3 °C 8,9 °C 3,2 km/h (1 Bft)
23.10.2019 03:32 8,8 °C 96 % 1017,5 hPa 0,0 mm 0,4 km/h (0 Bft) O 82 ° 0 min 0,000 mm 0,0 UV-I 0 W/m² 8,2 °C 8,8 °C 3,2 km/h (1 Bft)
23.10.2019 03:33 8,8 °C 96 % 1017,5 hPa 0,0 mm 0,5 km/h (0 Bft) O 82 ° 0 min 0,000 mm 0,0 UV-I 0 W/m² 8,2 °C 8,8 °C 1,6 km/h (1 Bft)
23.10.2019 03:34 8,6 °C 96 % 1017,5 hPa 0,0 mm 1,8 km/h (1 Bft) O 82 ° 0 min 0,000 mm 0,0 UV-I 0 W/m² 8,0 °C 8,6 °C 3,2 km/h (1 Bft)
23.10.2019 03:35 8,6 °C 96 % 1017,5 hPa 0,0 mm 3,4 km/h (1 Bft) O 82 ° 0 min 0,000 mm 0,0 UV-I 0 W/m² 8,0 °C 8,6 °C 4,8 km/h (1 Bft)
23.10.2019 03:36 8,4 °C 96 % 1017,5 hPa 0,0 mm 4,8 km/h (1 Bft) O 82 ° 0 min 0,000 mm 0,0 UV-I 0 W/m² 7,8 °C 8,0 °C 6,4 km/h (2 Bft)
23.10.2019 03:37 8,3 °C 96 % 1017,4 hPa 0,0 mm 5,3 km/h (1 Bft) SO 128 ° 0 min 0,000 mm 0,0 UV-I 0 W/m² 7,7 °C 7,7 °C 6,4 km/h (2 Bft)
23.10.2019 03:38 8,3 °C 96 % 1017,5 hPa 0,0 mm 4,3 km/h (1 Bft) SO 146 ° 0 min 0,000 mm 0,0 UV-I 0 W/m² 7,7 °C 8,3 °C 6,4 km/h (2 Bft)
23.10.2019 03:39 8,3 °C 96 % 1017,4 hPa 0,0 mm 5,7 km/h (1 Bft) S-SO 163 ° 0 min 0,000 mm 0,0 UV-I 0 W/m² 7,7 °C 7,6 °C 8,0 km/h (2 Bft)
23.10.2019 03:40 8,2 °C 96 % 1017,5 hPa 0,0 mm 5,6 km/h (1 Bft) S-SO 163 ° 0 min 0,000 mm 0,0 UV-I 0 W/m² 7,6 °C 7,5 °C 6,4 km/h (2 Bft)
23.10.2019 03:41 8,2 °C 96 % 1017,4 hPa 0,0 mm 5,2 km/h (1 Bft) S 186 ° 0 min 0,000 mm 0,0 UV-I 0 W/m² 7,6 °C 7,6 °C 6,4 km/h (2 Bft)
23.10.2019 03:42 8,1 °C 96 % 1017,5 hPa 0,0 mm 5,2 km/h (1 Bft) S 186 ° 0 min 0,000 mm 0,0 UV-I 0 W/m² 7,5 °C 7,5 °C 6,4 km/h (2 Bft)
23.10.2019 03:43 8,1 °C 96 % 1017,4 hPa 0,0 mm 5,0 km/h (1 Bft) S 186 ° 0 min 0,000 mm 0,0 UV-I 0 W/m² 7,5 °C 7,6 °C 6,4 km/h (2 Bft)
23.10.2019 03:44 8,1 °C 96 % 1017,3 hPa 0,0 mm 4,4 km/h (1 Bft) S 186 ° 0 min 0,000 mm 0,0 UV-I 0 W/m² 7,5 °C 8,1 °C 4,8 km/h (1 Bft)
23.10.2019 03:45 8,1 °C 96 % 1017,3 hPa 0,0 mm 4,3 km/h (1 Bft) S 186 ° 0 min 0,000 mm 0,0 UV-I 0 W/m² 7,5 °C 8,1 °C 6,4 km/h (2 Bft)
23.10.2019 03:46 8,1 °C 96 % 1017,3 hPa 0,0 mm 3,2 km/h (1 Bft) S 186 ° 0 min 0,000 mm 0,0 UV-I 0 W/m² 7,5 °C 8,1 °C 4,8 km/h (1 Bft)
23.10.2019 03:47 8,0 °C 96 % 1017,2 hPa 0,0 mm 3,4 km/h (1 Bft) S 186 ° 0 min 0,000 mm 0,0 UV-I 0 W/m² 7,4 °C 8,0 °C 4,8 km/h (1 Bft)
23.10.2019 03:48 8,0 °C 96 % 1017,3 hPa 0,0 mm 4,5 km/h (1 Bft) S 186 ° 0 min 0,000 mm 0,0 UV-I 0 W/m² 7,4 °C 8,0 °C 6,4 km/h (2 Bft)
23.10.2019 03:49 8,0 °C 96 % 1017,2 hPa 0,0 mm 4,8 km/h (1 Bft) S 186 ° 0 min 0,000 mm 0,0 UV-I 0 W/m² 7,4 °C 7,6 °C 6,4 km/h (2 Bft)
23.10.2019 03:50 8,0 °C 96 % 1017,3 hPa 0,0 mm 4,5 km/h (1 Bft) S 185 ° 0 min 0,000 mm 0,0 UV-I 0 W/m² 7,4 °C 8,0 °C 6,4 km/h (2 Bft)
23.10.2019 03:51 7,9 °C 96 % 1017,2 hPa 0,0 mm 5,1 km/h (1 Bft) S 176 ° 0 min 0,000 mm 0,0 UV-I 0 W/m² 7,3 °C 7,3 °C 6,4 km/h (2 Bft)
23.10.2019 03:52 8,0 °C 96 % 1017,3 hPa 0,0 mm 4,6 km/h (1 Bft) S 177 ° 0 min 0,000 mm 0,0 UV-I 0 W/m² 7,4 °C 7,6 °C 6,4 km/h (2 Bft)
23.10.2019 03:53 8,0 °C 96 % 1017,2 hPa 0,0 mm 4,6 km/h (1 Bft) S 177 ° 0 min 0,000 mm 0,0 UV-I 0 W/m² 7,4 °C 7,6 °C 4,8 km/h (1 Bft)
23.10.2019 03:54 7,9 °C 96 % 1017,2 hPa 0,0 mm 4,8 km/h (1 Bft) S 184 ° 0 min 0,000 mm 0,0 UV-I 0 W/m² 7,3 °C 7,4 °C 6,4 km/h (2 Bft)
23.10.2019 03:55 7,9 °C 96 % 1017,1 hPa 0,0 mm 3,7 km/h (1 Bft) S 184 ° 0 min 0,000 mm 0,0 UV-I 0 W/m² 7,3 °C 7,9 °C 4,8 km/h (1 Bft)
23.10.2019 03:56 7,9 °C 96 % 1017,1 hPa 0,0 mm 2,4 km/h (1 Bft) S 184 ° 0 min 0,000 mm 0,0 UV-I 0 W/m² 7,3 °C 7,9 °C 3,2 km/h (1 Bft)
23.10.2019 03:57 7,9 °C 96 % 1017,1 hPa 0,0 mm 2,1 km/h (1 Bft) S 183 ° 0 min 0,000 mm 0,0 UV-I 0 W/m² 7,3 °C 7,9 °C 4,8 km/h (1 Bft)
23.10.2019 03:58 7,9 °C 96 % 1017,1 hPa 0,0 mm 1,0 km/h (0 Bft) S 183 ° 0 min 0,000 mm 0,0 UV-I 0 W/m² 7,3 °C 7,9 °C 3,2 km/h (1 Bft)
23.10.2019 03:59 7,9 °C 96 % 1017,1 hPa 0,0 mm 3,4 km/h (1 Bft) S 183 ° 0 min 0,000 mm 0,0 UV-I 0 W/m² 7,3 °C 7,9 °C 4,8 km/h (1 Bft)
23.10.2019 04:00 7,8 °C 96 % 1017,1 hPa 0,0 mm 4,2 km/h (1 Bft) S 183 ° 0 min 0,000 mm 0,0 UV-I 0 W/m² 7,2 °C 7,8 °C 6,4 km/h (2 Bft)
23.10.2019 04:01 7,8 °C 96 % 1017,1 hPa 0,0 mm 3,2 km/h (1 Bft) S 183 ° 0 min 0,000 mm 0,0 UV-I 0 W/m² 7,2 °C 7,8 °C 3,2 km/h (1 Bft)
23.10.2019 04:02 7,8 °C 96 % 1017,2 hPa 0,0 mm 1,1 km/h (1 Bft) S 183 ° 0 min 0,000 mm 0,0 UV-I 0 W/m² 7,2 °C 7,8 °C 3,2 km/h (1 Bft)
23.10.2019 04:03 7,8 °C 96 % 1017,1 hPa 0,0 mm 1,6 km/h (1 Bft) S 183 ° 0 min 0,000 mm 0,0 UV-I 0 W/m² 7,2 °C 7,8 °C 3,2 km/h (1 Bft)
23.10.2019 04:04 7,8 °C 96 % 1017,1 hPa 0,0 mm 3,0 km/h (1 Bft) S 183 ° 0 min 0,000 mm 0,0 UV-I 0 W/m² 7,2 °C 7,8 °C 4,8 km/h (1 Bft)
23.10.2019 04:05 7,8 °C 96 % 1017,1 hPa 0,0 mm 2,9 km/h (1 Bft) S 183 ° 0 min 0,000 mm 0,0 UV-I 0 W/m² 7,2 °C 7,8 °C 4,8 km/h (1 Bft)
23.10.2019 04:06 7,8 °C 96 % 1017,1 hPa 0,0 mm 2,9 km/h (1 Bft) S 183 ° 0 min 0,000 mm 0,0 UV-I 0 W/m² 7,2 °C 7,8 °C 4,8 km/h (1 Bft)
23.10.2019 04:07 7,8 °C 96 % 1017,1 hPa 0,0 mm 3,4 km/h (1 Bft) S 183 ° 0 min 0,000 mm 0,0 UV-I 0 W/m² 7,2 °C 7,8 °C 4,8 km/h (1 Bft)
23.10.2019 04:08 7,8 °C 96 % 1017,1 hPa 0,0 mm 2,1 km/h (1 Bft) S 183 ° 0 min 0,000 mm 0,0 UV-I 0 W/m² 7,2 °C 7,8 °C 3,2 km/h (1 Bft)
23.10.2019 04:09 7,8 °C 96 % 1017,1 hPa 0,0 mm 1,8 km/h (1 Bft) S 183 ° 0 min 0,000 mm 0,0 UV-I 0 W/m² 7,2 °C 7,8 °C 3,2 km/h (1 Bft)
23.10.2019 04:10 7,8 °C 96 % 1017,1 hPa 0,0 mm 3,6 km/h (1 Bft) S 183 ° 0 min 0,000 mm 0,0 UV-I 0 W/m² 7,2 °C 7,8 °C 4,8 km/h (1 Bft)
23.10.2019 04:11 7,8 °C 96 % 1017,1 hPa 0,0 mm 4,2 km/h (1 Bft) S-SW 195 ° 0 min 0,000 mm 0,0 UV-I 0 W/m² 7,2 °C 7,8 °C 6,4 km/h (2 Bft)
23.10.2019 04:12 7,8 °C 96 % 1017,0 hPa 0,0 mm 2,5 km/h (1 Bft) S-SW 195 ° 0 min 0,000 mm 0,0 UV-I 0 W/m² 7,2 °C 7,8 °C 4,8 km/h (1 Bft)
23.10.2019 04:13 7,8 °C 96 % 1017,0 hPa 0,0 mm 2,1 km/h (1 Bft) S-SW 195 ° 0 min 0,000 mm 0,0 UV-I 0 W/m² 7,2 °C 7,8 °C 3,2 km/h (1 Bft)
23.10.2019 04:14 7,8 °C 96 % 1016,9 hPa 0,0 mm 3,2 km/h (1 Bft) S-SW 195 ° 0 min 0,000 mm 0,0 UV-I 0 W/m² 7,2 °C 7,8 °C 4,8 km/h (1 Bft)
23.10.2019 04:15 7,8 °C 96 % 1016,9 hPa 0,0 mm 3,3 km/h (1 Bft) S-SW 195 ° 0 min 0,000 mm 0,0 UV-I 0 W/m² 7,2 °C 7,8 °C 4,8 km/h (1 Bft)
23.10.2019 04:16 7,8 °C 96 % 1016,9 hPa 0,0 mm 1,6 km/h (1 Bft) S-SW 195 ° 0 min 0,000 mm 0,0 UV-I 0 W/m² 7,2 °C 7,8 °C 3,2 km/h (1 Bft)
23.10.2019 04:17 7,8 °C 96 % 1016,8 hPa 0,0 mm 0,0 km/h (0 Bft) S-SW 195 ° 0 min 0,000 mm 0,0 UV-I 0 W/m² 7,2 °C 7,8 °C 0,0 km/h (0 Bft)
23.10.2019 04:18 7,8 °C 96 % 1016,8 hPa 0,0 mm 0,0 km/h (0 Bft) S-SW 195 ° 0 min 0,000 mm 0,0 UV-I 0 W/m² 7,2 °C 7,8 °C 0,0 km/h (0 Bft)
23.10.2019 04:19 7,8 °C 96 % 1016,8 hPa 0,0 mm 0,0 km/h (0 Bft) S-SW 195 ° 0 min 0,000 mm 0,0 UV-I 0 W/m² 7,2 °C 7,8 °C 0,0 km/h (0 Bft)
23.10.2019 04:20 7,7 °C 96 % 1016,8 hPa 0,0 mm 0,0 km/h (0 Bft) S-SW 195 ° 0 min 0,000 mm 0,0 UV-I 0 W/m² 7,1 °C 7,7 °C 0,0 km/h (0 Bft)
23.10.2019 04:21 7,7 °C 96 % 1016,8 hPa 0,0 mm 0,0 km/h (0 Bft) S-SW 195 ° 0 min 0,000 mm 0,0 UV-I 0 W/m² 7,1 °C 7,7 °C 0,0 km/h (0 Bft)
23.10.2019 04:22 7,7 °C 96 % 1016,8 hPa 0,0 mm 0,0 km/h (0 Bft) S-SW 195 ° 0 min 0,000 mm 0,0 UV-I 0 W/m² 7,1 °C 7,7 °C 0,0 km/h (0 Bft)
23.10.2019 04:23 7,7 °C 96 % 1016,8 hPa 0,0 mm 0,0 km/h (0 Bft) S-SW 195 ° 0 min 0,000 mm 0,0 UV-I 0 W/m² 7,1 °C 7,7 °C 0,0 km/h (0 Bft)
23.10.2019 04:24 7,7 °C 96 % 1016,7 hPa 0,0 mm 0,0 km/h (0 Bft) S-SW 195 ° 0 min 0,000 mm 0,0 UV-I 0 W/m² 7,1 °C 7,7 °C 0,0 km/h (0 Bft)
23.10.2019 04:25 7,7 °C 96 % 1016,7 hPa 0,0 mm 0,0 km/h (0 Bft) S-SW 195 ° 0 min 0,000 mm 0,0 UV-I 0 W/m² 7,1 °C 7,7 °C 0,0 km/h (0 Bft)
23.10.2019 04:26 7,7 °C 96 % 1016,7 hPa 0,0 mm 0,0 km/h (0 Bft) S-SW 195 ° 0 min 0,000 mm 0,0 UV-I 0 W/m² 7,1 °C 7,7 °C 0,0 km/h (0 Bft)
23.10.2019 04:27 7,7 °C 96 % 1016,7 hPa 0,0 mm 0,0 km/h (0 Bft) S-SW 195 ° 0 min 0,000 mm 0,0 UV-I 0 W/m² 7,1 °C 7,7 °C 0,0 km/h (0 Bft)
23.10.2019 04:28 7,7 °C 96 % 1016,8 hPa 0,0 mm 0,0 km/h (0 Bft) S-SW 195 ° 0 min 0,000 mm 0,0 UV-I 0 W/m² 7,1 °C 7,7 °C 0,0 km/h (0 Bft)
23.10.2019 04:29 7,7 °C 96 % 1016,8 hPa 0,0 mm 0,0 km/h (0 Bft) S-SW 195 ° 0 min 0,000 mm 0,0 UV-I 0 W/m² 7,1 °C 7,7 °C 0,0 km/h (0 Bft)
23.10.2019 04:30 7,7 °C 96 % 1016,8 hPa 0,0 mm 0,0 km/h (0 Bft) S-SW 195 ° 0 min 0,000 mm 0,0 UV-I 0 W/m² 7,1 °C 7,7 °C 0,0 km/h (0 Bft)
23.10.2019 04:31 7,7 °C 96 % 1016,7 hPa 0,0 mm 0,0 km/h (0 Bft) S-SW 195 ° 0 min 0,000 mm 0,0 UV-I 0 W/m² 7,1 °C 7,7 °C 0,0 km/h (0 Bft)
23.10.2019 04:32 7,8 °C 96 % 1016,7 hPa 0,0 mm 0,0 km/h (0 Bft) S-SW 195 ° 0 min 0,000 mm 0,0 UV-I 0 W/m² 7,2 °C 7,8 °C 0,0 km/h (0 Bft)
23.10.2019 04:33 7,8 °C 96 % 1016,7 hPa 0,0 mm 0,0 km/h (0 Bft) S-SW 195 ° 0 min 0,000 mm 0,0 UV-I 0 W/m² 7,2 °C 7,8 °C 0,0 km/h (0 Bft)
23.10.2019 04:34 7,8 °C 96 % 1016,7 hPa 0,0 mm 0,0 km/h (0 Bft) S-SW 195 ° 0 min 0,000 mm 0,0 UV-I 0 W/m² 7,2 °C 7,8 °C 0,0 km/h (0 Bft)
23.10.2019 04:35 7,8 °C 96 % 1016,7 hPa 0,0 mm 0,0 km/h (0 Bft) S-SW 195 ° 0 min 0,000 mm 0,0 UV-I 0 W/m² 7,2 °C 7,8 °C 0,0 km/h (0 Bft)
23.10.2019 04:36 7,7 °C 96 % 1016,7 hPa 0,0 mm 0,3 km/h (0 Bft) S-SW 195 ° 0 min 0,000 mm 0,0 UV-I 0 W/m² 7,1 °C 7,7 °C 3,2 km/h (1 Bft)
23.10.2019 04:37 7,7 °C 96 % 1016,7 hPa 0,0 mm 1,7 km/h (1 Bft) S-SW 195 ° 0 min 0,000 mm 0,0 UV-I 0 W/m² 7,1 °C 7,7 °C 3,2 km/h (1 Bft)
23.10.2019 04:38 7,7 °C 96 % 1016,7 hPa 0,0 mm 0,0 km/h (0 Bft) S-SW 195 ° 0 min 0,000 mm 0,0 UV-I 0 W/m² 7,1 °C 7,7 °C 0,0 km/h (0 Bft)
23.10.2019 04:39 7,7 °C 96 % 1016,6 hPa 0,0 mm 0,0 km/h (0 Bft) S-SW 195 ° 0 min 0,000 mm 0,0 UV-I 0 W/m² 7,1 °C 7,7 °C 0,0 km/h (0 Bft)
23.10.2019 04:40 7,7 °C 96 % 1016,6 hPa 0,0 mm 0,0 km/h (0 Bft) S-SW 195 ° 0 min 0,000 mm 0,0 UV-I 0 W/m² 7,1 °C 7,7 °C 0,0 km/h (0 Bft)
23.10.2019 04:41 7,7 °C 96 % 1016,6 hPa 0,0 mm 1,2 km/h (1 Bft) S-SW 195 ° 0 min 0,000 mm 0,0 UV-I 0 W/m² 7,1 °C 7,7 °C 3,2 km/h (1 Bft)
23.10.2019 04:42 7,7 °C 96 % 1016,6 hPa 0,0 mm 3,2 km/h (1 Bft) S-SW 195 ° 0 min 0,000 mm 0,0 UV-I 0 W/m² 7,1 °C 7,7 °C 3,2 km/h (1 Bft)
23.10.2019 04:43 7,7 °C 96 % 1016,6 hPa 0,0 mm 1,4 km/h (1 Bft) S-SW 195 ° 0 min 0,000 mm 0,0 UV-I 0 W/m² 7,1 °C 7,7 °C 3,2 km/h (1 Bft)
23.10.2019 04:44 7,8 °C 96 % 1016,6 hPa 0,0 mm 1,0 km/h (0 Bft) S-SW 195 ° 0 min 0,000 mm 0,0 UV-I 0 W/m² 7,2 °C 7,8 °C 3,2 km/h (1 Bft)
23.10.2019 04:45 7,8 °C 96 % 1016,6 hPa 0,0 mm 0,0 km/h (0 Bft) S-SW 195 ° 0 min 0,000 mm 0,0 UV-I 0 W/m² 7,2 °C 7,8 °C 0,0 km/h (0 Bft)
23.10.2019 04:46 7,8 °C 96 % 1016,6 hPa 0,0 mm 0,0 km/h (0 Bft) S-SW 195 ° 0 min 0,000 mm 0,0 UV-I 0 W/m² 7,2 °C 7,8 °C 0,0 km/h (0 Bft)
23.10.2019 04:47 7,8 °C 96 % 1016,5 hPa 0,0 mm 0,0 km/h (0 Bft) S-SW 195 ° 0 min 0,000 mm 0,0 UV-I 0 W/m² 7,2 °C 7,8 °C 0,0 km/h (0 Bft)
23.10.2019 04:48 7,8 °C 96 % 1016,6 hPa 0,0 mm 0,4 km/h (0 Bft) S-SW 195 ° 0 min 0,000 mm 0,0 UV-I 0 W/m² 7,2 °C 7,8 °C 1,6 km/h (1 Bft)
23.10.2019 04:49 7,8 °C 96 % 1016,6 hPa 0,0 mm 2,0 km/h (1 Bft) S-SW 195 ° 0 min 0,000 mm 0,0 UV-I 0 W/m² 7,2 °C 7,8 °C 3,2 km/h (1 Bft)
23.10.2019 04:50 7,8 °C 96 % 1016,6 hPa 0,0 mm 1,7 km/h (1 Bft) S-SW 195 ° 0 min 0,000 mm 0,0 UV-I 0 W/m² 7,2 °C 7,8 °C 3,2 km/h (1 Bft)
23.10.2019 04:51 7,8 °C 96 % 1016,6 hPa 0,0 mm 0,1 km/h (0 Bft) S-SW 195 ° 0 min 0,000 mm 0,0 UV-I 0 W/m² 7,2 °C 7,8 °C 1,6 km/h (1 Bft)
23.10.2019 04:52 7,8 °C 96 % 1016,6 hPa 0,0 mm 0,0 km/h (0 Bft) S-SW 195 ° 0 min 0,000 mm 0,0 UV-I 0 W/m² 7,2 °C 7,8 °C 0,0 km/h (0 Bft)
23.10.2019 04:53 7,8 °C 96 % 1016,6 hPa 0,0 mm 0,0 km/h (0 Bft) S-SW 195 ° 0 min 0,000 mm 0,0 UV-I 0 W/m² 7,2 °C 7,8 °C 0,0 km/h (0 Bft)
23.10.2019 04:54 7,8 °C 96 % 1016,7 hPa 0,0 mm 0,0 km/h (0 Bft) S-SW 195 ° 0 min 0,000 mm 0,0 UV-I 0 W/m² 7,2 °C 7,8 °C 0,0 km/h (0 Bft)
23.10.2019 04:55 7,8 °C 96 % 1016,7 hPa 0,0 mm 0,0 km/h (0 Bft) S-SW 195 ° 0 min 0,000 mm 0,0 UV-I 0 W/m² 7,2 °C 7,8 °C 0,0 km/h (0 Bft)
23.10.2019 04:56 7,8 °C 96 % 1016,7 hPa 0,0 mm 0,4 km/h (0 Bft) S-SW 195 ° 0 min 0,000 mm 0,0 UV-I 0 W/m² 7,2 °C 7,8 °C 1,6 km/h (1 Bft)
23.10.2019 04:57 7,8 °C 96 % 1016,7 hPa 0,0 mm 0,0 km/h (0 Bft) S-SW 195 ° 0 min 0,000 mm 0,0 UV-I 0 W/m² 7,2 °C 7,8 °C 0,0 km/h (0 Bft)
23.10.2019 04:58 7,8 °C 96 % 1016,6 hPa 0,0 mm 0,0 km/h (0 Bft) S-SW 195 ° 0 min 0,000 mm 0,0 UV-I 0 W/m² 7,2 °C 7,8 °C 0,0 km/h (0 Bft)
23.10.2019 04:59 7,9 °C 96 % 1016,6 hPa 0,0 mm 0,0 km/h (0 Bft) S-SW 195 ° 0 min 0,000 mm 0,0 UV-I 0 W/m² 7,3 °C 7,9 °C 0,0 km/h (0 Bft)
23.10.2019 05:00 7,9 °C 96 % 1016,6 hPa 0,0 mm 0,0 km/h (0 Bft) S-SW 195 ° 0 min 0,000 mm 0,0 UV-I 0 W/m² 7,3 °C 7,9 °C 0,0 km/h (0 Bft)
23.10.2019 05:01 7,9 °C 96 % 1016,5 hPa 0,0 mm 0,0 km/h (0 Bft) S-SW 195 ° 0 min 0,000 mm 0,0 UV-I 0 W/m² 7,3 °C 7,9 °C 0,0 km/h (0 Bft)
23.10.2019 05:02 7,9 °C 96 % 1016,6 hPa 0,0 mm 0,0 km/h (0 Bft) S-SW 195 ° 0 min 0,000 mm 0,0 UV-I 0 W/m² 7,3 °C 7,9 °C 0,0 km/h (0 Bft)
23.10.2019 05:03 7,9 °C 96 % 1016,6 hPa 0,0 mm 0,0 km/h (0 Bft) S-SW 195 ° 0 min 0,000 mm 0,0 UV-I 0 W/m² 7,3 °C 7,9 °C 0,0 km/h (0 Bft)
23.10.2019 05:04 7,9 °C 96 % 1016,6 hPa 0,0 mm 0,0 km/h (0 Bft) S-SW 195 ° 0 min 0,000 mm 0,0 UV-I 0 W/m² 7,3 °C 7,9 °C 0,0 km/h (0 Bft)
23.10.2019 05:05 7,9 °C 96 % 1016,6 hPa 0,0 mm 0,0 km/h (0 Bft) S-SW 195 ° 0 min 0,000 mm 0,0 UV-I 0 W/m² 7,3 °C 7,9 °C 0,0 km/h (0 Bft)
23.10.2019 05:06 7,9 °C 96 % 1016,6 hPa 0,0 mm 0,0 km/h (0 Bft) S-SW 195 ° 0 min 0,000 mm 0,0 UV-I 0 W/m² 7,3 °C 7,9 °C 0,0 km/h (0 Bft)
23.10.2019 05:07 8,0 °C 96 % 1016,5 hPa 0,0 mm 0,0 km/h (0 Bft) S-SW 195 ° 0 min 0,000 mm 0,0 UV-I 0 W/m² 7,4 °C 8,0 °C 0,0 km/h (0 Bft)
23.10.2019 05:08 8,1 °C 96 % 1016,5 hPa 0,0 mm 0,0 km/h (0 Bft) S-SW 195 ° 0 min 0,000 mm 0,0 UV-I 0 W/m² 7,5 °C 8,1 °C 0,0 km/h (0 Bft)
23.10.2019 05:09 8,1 °C 96 % 1016,5 hPa 0,0 mm 0,0 km/h (0 Bft) S-SW 195 ° 0 min 0,000 mm 0,0 UV-I 0 W/m² 7,5 °C 8,1 °C 0,0 km/h (0 Bft)
23.10.2019 05:10 8,0 °C 96 % 1016,4 hPa 0,0 mm 0,0 km/h (0 Bft) S-SW 195 ° 0 min 0,000 mm 0,0 UV-I 0 W/m² 7,4 °C 8,0 °C 0,0 km/h (0 Bft)
23.10.2019 05:11 8,0 °C 96 % 1016,4 hPa 0,0 mm 0,0 km/h (0 Bft) S-SW 195 ° 0 min 0,000 mm 0,0 UV-I 0 W/m² 7,4 °C 8,0 °C 0,0 km/h (0 Bft)
23.10.2019 05:12 8,0 °C 96 % 1016,4 hPa 0,0 mm 0,0 km/h (0 Bft) S-SW 195 ° 0 min 0,000 mm 0,0 UV-I 0 W/m² 7,4 °C 8,0 °C 0,0 km/h (0 Bft)
23.10.2019 05:13 8,0 °C 96 % 1016,4 hPa 0,0 mm 0,0 km/h (0 Bft) S-SW 195 ° 0 min 0,000 mm 0,0 UV-I 0 W/m² 7,4 °C 8,0 °C 0,0 km/h (0 Bft)
23.10.2019 05:14 8,0 °C 96 % 1016,4 hPa 0,0 mm 0,0 km/h (0 Bft) S-SW 195 ° 0 min 0,000 mm 0,0 UV-I 0 W/m² 7,4 °C 8,0 °C 0,0 km/h (0 Bft)
23.10.2019 05:15 8,1 °C 96 % 1016,4 hPa 0,0 mm 0,0 km/h (0 Bft) S-SW 195 ° 0 min 0,000 mm 0,0 UV-I 0 W/m² 7,5 °C 8,1 °C 0,0 km/h (0 Bft)
23.10.2019 05:16 8,1 °C 96 % 1016,4 hPa 0,0 mm 0,0 km/h (0 Bft) S-SW 195 ° 0 min 0,000 mm 0,0 UV-I 0 W/m² 7,5 °C 8,1 °C 0,0 km/h (0 Bft)
23.10.2019 05:17 8,1 °C 96 % 1016,3 hPa 0,0 mm 0,0 km/h (0 Bft) S-SW 195 ° 0 min 0,000 mm 0,0 UV-I 0 W/m² 7,5 °C 8,1 °C 0,0 km/h (0 Bft)
23.10.2019 05:18 8,1 °C 96 % 1016,3 hPa 0,0 mm 0,0 km/h (0 Bft) S-SW 195 ° 0 min 0,000 mm 0,0 UV-I 0 W/m² 7,5 °C 8,1 °C 0,0 km/h (0 Bft)
23.10.2019 05:19 8,1 °C 96 % 1016,3 hPa 0,0 mm 0,0 km/h (0 Bft) S-SW 195 ° 0 min 0,000 mm 0,0 UV-I 0 W/m² 7,5 °C 8,1 °C 0,0 km/h (0 Bft)
23.10.2019 05:20 8,0 °C 96 % 1016,3 hPa 0,0 mm 0,0 km/h (0 Bft) S-SW 195 ° 0 min 0,000 mm 0,0 UV-I 0 W/m² 7,4 °C 8,0 °C 0,0 km/h (0 Bft)
23.10.2019 05:21 8,0 °C 96 % 1016,4 hPa 0,0 mm 0,0 km/h (0 Bft) S-SW 195 ° 0 min 0,000 mm 0,0 UV-I 0 W/m² 7,4 °C 8,0 °C 0,0 km/h (0 Bft)
23.10.2019 05:22 7,9 °C 96 % 1016,4 hPa 0,0 mm 0,3 km/h (0 Bft) S-SW 195 ° 0 min 0,000 mm 0,0 UV-I 0 W/m² 7,3 °C 7,9 °C 3,2 km/h (1 Bft)
23.10.2019 05:23 7,9 °C 96 % 1016,4 hPa 0,0 mm 3,2 km/h (1 Bft) S-SW 195 ° 0 min 0,000 mm 0,0 UV-I 0 W/m² 7,3 °C 7,9 °C 3,2 km/h (1 Bft)
23.10.2019 05:24 7,9 °C 96 % 1016,4 hPa 0,0 mm 2,4 km/h (1 Bft) S-SW 195 ° 0 min 0,000 mm 0,0 UV-I 0 W/m² 7,3 °C 7,9 °C 3,2 km/h (1 Bft)
23.10.2019 05:25 7,8 °C 96 % 1016,3 hPa 0,0 mm 0,8 km/h (0 Bft) S-SW 195 ° 0 min 0,000 mm 0,0 UV-I 0 W/m² 7,2 °C 7,8 °C 1,6 km/h (1 Bft)
23.10.2019 05:26 7,8 °C 96 % 1016,4 hPa 0,0 mm 0,0 km/h (0 Bft) S-SW 195 ° 0 min 0,000 mm 0,0 UV-I 0 W/m² 7,2 °C 7,8 °C 0,0 km/h (0 Bft)
23.10.2019 05:27 7,8 °C 96 % 1016,4 hPa 0,0 mm 0,0 km/h (0 Bft) S-SW 195 ° 0 min 0,000 mm 0,0 UV-I 0 W/m² 7,2 °C 7,8 °C 0,0 km/h (0 Bft)
23.10.2019 05:28 7,8 °C 96 % 1016,4 hPa 0,0 mm 0,0 km/h (0 Bft) S-SW 195 ° 0 min 0,000 mm 0,0 UV-I 0 W/m² 7,2 °C 7,8 °C 0,0 km/h (0 Bft)
23.10.2019 05:29 7,8 °C 96 % 1016,4 hPa 0,0 mm 0,0 km/h (0 Bft) S-SW 195 ° 0 min 0,000 mm 0,0 UV-I 0 W/m² 7,2 °C 7,8 °C 0,0 km/h (0 Bft)
23.10.2019 05:30 7,7 °C 96 % 1016,4 hPa 0,0 mm 1,0 km/h (0 Bft) S-SW 195 ° 0 min 0,000 mm 0,0 UV-I 0 W/m² 7,1 °C 7,7 °C 3,2 km/h (1 Bft)
23.10.2019 05:31 7,7 °C 96 % 1016,4 hPa 0,0 mm 0,3 km/h (0 Bft) S-SW 195 ° 0 min 0,000 mm 0,0 UV-I 0 W/m² 7,1 °C 7,7 °C 1,6 km/h (1 Bft)
23.10.2019 05:32 7,8 °C 96 % 1016,4 hPa 0,0 mm 0,0 km/h (0 Bft) S-SW 195 ° 0 min 0,000 mm 0,0 UV-I 0 W/m² 7,2 °C 7,8 °C 0,0 km/h (0 Bft)
23.10.2019 05:33 7,8 °C 96 % 1016,4 hPa 0,0 mm 0,1 km/h (0 Bft) S-SW 195 ° 0 min 0,000 mm 0,0 UV-I 0 W/m² 7,2 °C 7,8 °C 1,6 km/h (1 Bft)
23.10.2019 05:34 7,8 °C 96 % 1016,4 hPa 0,0 mm 0,0 km/h (0 Bft) S-SW 195 ° 0 min 0,000 mm 0,0 UV-I 0 W/m² 7,2 °C 7,8 °C 0,0 km/h (0 Bft)
23.10.2019 05:35 7,8 °C 96 % 1016,4 hPa 0,0 mm 0,0 km/h (0 Bft) S-SW 195 ° 0 min 0,000 mm 0,0 UV-I 0 W/m² 7,2 °C 7,8 °C 0,0 km/h (0 Bft)
23.10.2019 05:36 7,9 °C 96 % 1016,4 hPa 0,0 mm 0,0 km/h (0 Bft) S-SW 195 ° 0 min 0,000 mm 0,0 UV-I 0 W/m² 7,3 °C 7,9 °C 0,0 km/h (0 Bft)
23.10.2019 05:37 7,9 °C 96 % 1016,4 hPa 0,0 mm 0,0 km/h (0 Bft) S-SW 195 ° 0 min 0,000 mm 0,0 UV-I 0 W/m² 7,3 °C 7,9 °C 0,0 km/h (0 Bft)
23.10.2019 05:38 7,9 °C 96 % 1016,4 hPa 0,0 mm 0,0 km/h (0 Bft) S-SW 195 ° 0 min 0,000 mm 0,0 UV-I 0 W/m² 7,3 °C 7,9 °C 0,0 km/h (0 Bft)
23.10.2019 05:39 7,9 °C 96 % 1016,4 hPa 0,0 mm 0,0 km/h (0 Bft) S-SW 195 ° 0 min 0,000 mm 0,0 UV-I 0 W/m² 7,3 °C 7,9 °C 0,0 km/h (0 Bft)
23.10.2019 05:40 7,9 °C 96 % 1016,4 hPa 0,0 mm 0,0 km/h (0 Bft) S-SW 195 ° 0 min 0,000 mm 0,0 UV-I 0 W/m² 7,3 °C 7,9 °C 0,0 km/h (0 Bft)
23.10.2019 05:41 8,0 °C 96 % 1016,4 hPa 0,0 mm 0,0 km/h (0 Bft) S-SW 195 ° 0 min 0,000 mm 0,0 UV-I 0 W/m² 7,4 °C 8,0 °C 0,0 km/h (0 Bft)
23.10.2019 05:42 8,0 °C 96 % 1016,4 hPa 0,0 mm 0,0 km/h (0 Bft) S-SW 195 ° 0 min 0,000 mm 0,0 UV-I 0 W/m² 7,4 °C 8,0 °C 0,0 km/h (0 Bft)
23.10.2019 05:43 8,0 °C 96 % 1016,4 hPa 0,0 mm 0,0 km/h (0 Bft) S-SW 195 ° 0 min 0,000 mm 0,0 UV-I 0 W/m² 7,4 °C 8,0 °C 0,0 km/h (0 Bft)
23.10.2019 05:44 8,0 °C 96 % 1016,5 hPa 0,0 mm 0,7 km/h (0 Bft) S-SW 195 ° 0 min 0,000 mm 0,0 UV-I 0 W/m² 7,4 °C 8,0 °C 3,2 km/h (1 Bft)
23.10.2019 05:45 8,0 °C 96 % 1016,5 hPa 0,0 mm 1,2 km/h (1 Bft) S-SW 195 ° 0 min 0,000 mm 0,0 UV-I 0 W/m² 7,4 °C 8,0 °C 3,2 km/h (1 Bft)
23.10.2019 05:46 8,1 °C 96 % 1016,4 hPa 0,0 mm 0,0 km/h (0 Bft) S-SW 195 ° 0 min 0,000 mm 0,0 UV-I 0 W/m² 7,5 °C 8,1 °C 0,0 km/h (0 Bft)
23.10.2019 05:47 8,1 °C 96 % 1016,4 hPa 0,0 mm 0,0 km/h (0 Bft) S-SW 195 ° 0 min 0,000 mm 0,0 UV-I 0 W/m² 7,5 °C 8,1 °C 0,0 km/h (0 Bft)
23.10.2019 05:48 8,0 °C 96 % 1016,3 hPa 0,0 mm 0,0 km/h (0 Bft) S-SW 195 ° 0 min 0,000 mm 0,0 UV-I 0 W/m² 7,4 °C 8,0 °C 0,0 km/h (0 Bft)
23.10.2019 05:49 8,1 °C 96 % 1016,4 hPa 0,0 mm 0,0 km/h (0 Bft) S-SW 195 ° 0 min 0,000 mm 0,0 UV-I 0 W/m² 7,5 °C 8,1 °C 0,0 km/h (0 Bft)
23.10.2019 05:50 8,1 °C 96 % 1016,4 hPa 0,0 mm 0,1 km/h (0 Bft) S-SW 195 ° 0 min 0,000 mm 0,0 UV-I 0 W/m² 7,5 °C 8,1 °C 1,6 km/h (1 Bft)
23.10.2019 05:51 8,0 °C 96 % 1016,4 hPa 0,0 mm 0,1 km/h (0 Bft) S-SW 195 ° 0 min 0,000 mm 0,0 UV-I 0 W/m² 7,4 °C 8,0 °C 1,6 km/h (1 Bft)
23.10.2019 05:52 8,0 °C 96 % 1016,4 hPa 0,0 mm 3,3 km/h (1 Bft) S-SW 195 ° 0 min 0,000 mm 0,0 UV-I 0 W/m² 7,4 °C 8,0 °C 4,8 km/h (1 Bft)
23.10.2019 05:53 7,9 °C 96 % 1016,4 hPa 0,0 mm 2,0 km/h (1 Bft) S-SW 195 ° 0 min 0,000 mm 0,0 UV-I 0 W/m² 7,3 °C 7,9 °C 3,2 km/h (1 Bft)
23.10.2019 05:54 7,9 °C 96 % 1016,4 hPa 0,0 mm 1,7 km/h (1 Bft) S-SW 195 ° 0 min 0,000 mm 0,0 UV-I 0 W/m² 7,3 °C 7,9 °C 3,2 km/h (1 Bft)
23.10.2019 05:55 7,9 °C 96 % 1016,4 hPa 0,0 mm 2,4 km/h (1 Bft) S-SW 195 ° 0 min 0,000 mm 0,0 UV-I 0 W/m² 7,3 °C 7,9 °C 3,2 km/h (1 Bft)
23.10.2019 05:56 7,9 °C 96 % 1016,4 hPa 0,0 mm 2,9 km/h (1 Bft) S-SW 195 ° 0 min 0,000 mm 0,0 UV-I 0 W/m² 7,3 °C 7,9 °C 3,2 km/h (1 Bft)
23.10.2019 05:57 7,9 °C 96 % 1016,4 hPa 0,0 mm 3,4 km/h (1 Bft) S-SW 195 ° 0 min 0,000 mm 0,0 UV-I 0 W/m² 7,3 °C 7,9 °C 4,8 km/h (1 Bft)
23.10.2019 05:58 7,9 °C 96 % 1016,4 hPa 0,0 mm 3,9 km/h (1 Bft) S-SW 195 ° 0 min 0,000 mm 0,0 UV-I 0 W/m² 7,3 °C 7,9 °C 4,8 km/h (1 Bft)
23.10.2019 05:59 7,9 °C 96 % 1016,4 hPa 0,0 mm 4,0 km/h (1 Bft) S-SW 195 ° 0 min 0,000 mm 0,0 UV-I 0 W/m² 7,3 °C 7,9 °C 6,4 km/h (2 Bft)
23.10.2019 06:00 7,9 °C 96 % 1016,4 hPa 0,0 mm 3,0 km/h (1 Bft) S-SW 195 ° 0 min 0,000 mm 0,0 UV-I 0 W/m² 7,3 °C 7,9 °C 4,8 km/h (1 Bft)
23.10.2019 06:01 7,9 °C 96 % 1016,5 hPa 0,0 mm 3,9 km/h (1 Bft) S-SW 195 ° 0 min 0,000 mm 0,0 UV-I 0 W/m² 7,3 °C 7,9 °C 4,8 km/h (1 Bft)
23.10.2019 06:02 7,8 °C 96 % 1016,4 hPa 0,0 mm 2,1 km/h (1 Bft) S-SW 195 ° 0 min 0,000 mm 0,0 UV-I 0 W/m² 7,2 °C 7,8 °C 3,2 km/h (1 Bft)
23.10.2019 06:03 7,9 °C 96 % 1016,4 hPa 0,0 mm 2,9 km/h (1 Bft) S-SW 195 ° 0 min 0,000 mm 0,0 UV-I 0 W/m² 7,3 °C 7,9 °C 4,8 km/h (1 Bft)
23.10.2019 06:04 7,8 °C 96 % 1016,4 hPa 0,0 mm 3,3 km/h (1 Bft) S-SW 195 ° 0 min 0,000 mm 0,0 UV-I 0 W/m² 7,2 °C 7,8 °C 4,8 km/h (1 Bft)
23.10.2019 06:05 7,9 °C 96 % 1016,4 hPa 0,0 mm 3,0 km/h (1 Bft) S-SW 195 ° 0 min 0,000 mm 0,0 UV-I 0 W/m² 7,3 °C 7,9 °C 3,2 km/h (1 Bft)
23.10.2019 06:06 7,9 °C 96 % 1016,3 hPa 0,0 mm 2,5 km/h (1 Bft) S-SW 195 ° 0 min 0,000 mm 0,0 UV-I 0 W/m² 7,3 °C 7,9 °C 4,8 km/h (1 Bft)
23.10.2019 06:07 7,8 °C 96 % 1016,3 hPa 0,0 mm 3,2 km/h (1 Bft) S-SW 195 ° 0 min 0,000 mm 0,0 UV-I 0 W/m² 7,2 °C 7,8 °C 4,8 km/h (1 Bft)
23.10.2019 06:08 7,8 °C 96 % 1016,3 hPa 0,0 mm 1,3 km/h (1 Bft) S-SW 195 ° 0 min 0,000 mm 0,0 UV-I 0 W/m² 7,2 °C 7,8 °C 3,2 km/h (1 Bft)
23.10.2019 06:09 7,8 °C 96 % 1016,3 hPa 0,0 mm 0,0 km/h (0 Bft) S-SW 195 ° 0 min 0,000 mm 0,0 UV-I 0 W/m² 7,2 °C 7,8 °C 0,0 km/h (0 Bft)
23.10.2019 06:10 7,8 °C 96 % 1016,3 hPa 0,0 mm 2,9 km/h (1 Bft) S-SW 195 ° 0 min 0,000 mm 0,0 UV-I 0 W/m² 7,2 °C 7,8 °C 3,2 km/h (1 Bft)
23.10.2019 06:11 7,8 °C 96 % 1016,3 hPa 0,0 mm 1,3 km/h (1 Bft) S-SW 195 ° 0 min 0,000 mm 0,0 UV-I 0 W/m² 7,2 °C 7,8 °C 3,2 km/h (1 Bft)
23.10.2019 06:12 7,7 °C 96 % 1016,3 hPa 0,0 mm 0,3 km/h (0 Bft) S-SW 195 ° 0 min 0,000 mm 0,0 UV-I 0 W/m² 7,1 °C 7,7 °C 1,6 km/h (1 Bft)
23.10.2019 06:13 7,7 °C 96 % 1016,3 hPa 0,0 mm 0,0 km/h (0 Bft) S-SW 195 ° 0 min 0,000 mm 0,0 UV-I 0 W/m² 7,1 °C 7,7 °C 0,0 km/h (0 Bft)
23.10.2019 06:14 7,7 °C 96 % 1016,3 hPa 0,0 mm 0,0 km/h (0 Bft) S-SW 195 ° 0 min 0,000 mm 0,0 UV-I 0 W/m² 7,1 °C 7,7 °C 0,0 km/h (0 Bft)
23.10.2019 06:15 7,7 °C 96 % 1016,3 hPa 0,0 mm 0,0 km/h (0 Bft) S-SW 195 ° 0 min 0,000 mm 0,0 UV-I 0 W/m² 7,1 °C 7,7 °C 0,0 km/h (0 Bft)
23.10.2019 06:16 7,7 °C 96 % 1016,3 hPa 0,0 mm 0,0 km/h (0 Bft) S-SW 195 ° 0 min 0,000 mm 0,0 UV-I 0 W/m² 7,1 °C 7,7 °C 0,0 km/h (0 Bft)
23.10.2019 06:17 7,6 °C 96 % 1016,3 hPa 0,0 mm 0,0 km/h (0 Bft) S-SW 195 ° 0 min 0,000 mm 0,0 UV-I 0 W/m² 7,0 °C 7,6 °C 0,0 km/h (0 Bft)
23.10.2019 06:18 7,5 °C 96 % 1016,3 hPa 0,0 mm 0,1 km/h (0 Bft) S-SW 195 ° 0 min 0,000 mm 0,0 UV-I 0 W/m² 6,9 °C 7,5 °C 1,6 km/h (1 Bft)
23.10.2019 06:19 7,4 °C 96 % 1016,3 hPa 0,0 mm 1,4 km/h (1 Bft) S-SW 195 ° 0 min 0,000 mm 0,0 UV-I 0 W/m² 6,8 °C 7,4 °C 1,6 km/h (1 Bft)
23.10.2019 06:20 7,4 °C 96 % 1016,3 hPa 0,0 mm 0,0 km/h (0 Bft) S-SW 195 ° 0 min 0,000 mm 0,0 UV-I 0 W/m² 6,8 °C 7,4 °C 0,0 km/h (0 Bft)
23.10.2019 06:21 7,3 °C 96 % 1016,3 hPa 0,0 mm 0,0 km/h (0 Bft) S-SW 195 ° 0 min 0,000 mm 0,0 UV-I 0 W/m² 6,7 °C 7,3 °C 0,0 km/h (0 Bft)
23.10.2019 06:22 7,2 °C 96 % 1016,3 hPa 0,0 mm 0,0 km/h (0 Bft) S-SW 195 ° 0 min 0,000 mm 0,0 UV-I 0 W/m² 6,6 °C 7,2 °C 0,0 km/h (0 Bft)
23.10.2019 06:23 7,2 °C 96 % 1016,4 hPa 0,0 mm 0,0 km/h (0 Bft) S-SW 195 ° 0 min 0,000 mm 0,0 UV-I 0 W/m² 6,6 °C 7,2 °C 0,0 km/h (0 Bft)
23.10.2019 06:24 7,2 °C 96 % 1016,4 hPa 0,0 mm 0,0 km/h (0 Bft) S-SW 195 ° 0 min 0,000 mm 0,0 UV-I 0 W/m² 6,6 °C 7,2 °C 0,0 km/h (0 Bft)
23.10.2019 06:25 7,1 °C 96 % 1016,4 hPa 0,0 mm 0,0 km/h (0 Bft) S-SW 195 ° 0 min 0,000 mm 0,0 UV-I 0 W/m² 6,5 °C 7,1 °C 0,0 km/h (0 Bft)
23.10.2019 06:26 7,1 °C 96 % 1016,4 hPa 0,0 mm 0,0 km/h (0 Bft) S-SW 195 ° 0 min 0,000 mm 0,0 UV-I 0 W/m² 6,5 °C 7,1 °C 0,0 km/h (0 Bft)
23.10.2019 06:27 7,1 °C 96 % 1016,4 hPa 0,0 mm 0,0 km/h (0 Bft) S-SW 195 ° 0 min 0,000 mm 0,0 UV-I 0 W/m² 6,5 °C 7,1 °C 0,0 km/h (0 Bft)
23.10.2019 06:28 7,2 °C 96 % 1016,4 hPa 0,0 mm 0,0 km/h (0 Bft) S-SW 195 ° 0 min 0,000 mm 0,0 UV-I 0 W/m² 6,6 °C 7,2 °C 0,0 km/h (0 Bft)
23.10.2019 06:29 7,2 °C 96 % 1016,4 hPa 0,0 mm 0,0 km/h (0 Bft) S-SW 195 ° 0 min 0,000 mm 0,0 UV-I 0 W/m² 6,6 °C 7,2 °C 0,0 km/h (0 Bft)
23.10.2019 06:30 7,1 °C 96 % 1016,4 hPa 0,0 mm 0,0 km/h (0 Bft) S-SW 195 ° 0 min 0,000 mm 0,0 UV-I 0 W/m² 6,5 °C 7,1 °C 0,0 km/h (0 Bft)
23.10.2019 06:31 7,1 °C 96 % 1016,4 hPa 0,0 mm 0,0 km/h (0 Bft) S-SW 195 ° 0 min 0,000 mm 0,0 UV-I 0 W/m² 6,5 °C 7,1 °C 0,0 km/h (0 Bft)
23.10.2019 06:32 7,1 °C 96 % 1016,4 hPa 0,0 mm 0,0 km/h (0 Bft) S-SW 195 ° 0 min 0,000 mm 0,0 UV-I 0 W/m² 6,5 °C 7,1 °C 0,0 km/h (0 Bft)
23.10.2019 06:33 7,1 °C 96 % 1016,3 hPa 0,0 mm 0,0 km/h (0 Bft) S-SW 195 ° 0 min 0,000 mm 0,0 UV-I 0 W/m² 6,5 °C 7,1 °C 0,0 km/h (0 Bft)
23.10.2019 06:34 7,1 °C 96 % 1016,4 hPa 0,0 mm 0,0 km/h (0 Bft) S-SW 195 ° 0 min 0,000 mm 0,0 UV-I 0 W/m² 6,5 °C 7,1 °C 0,0 km/h (0 Bft)
23.10.2019 06:35 7,1 °C 96 % 1016,4 hPa 0,0 mm 0,0 km/h (0 Bft) S-SW 195 ° 0 min 0,000 mm 0,0 UV-I 0 W/m² 6,5 °C 7,1 °C 0,0 km/h (0 Bft)
23.10.2019 06:36 7,0 °C 96 % 1016,4 hPa 0,0 mm 0,0 km/h (0 Bft) S-SW 195 ° 0 min 0,000 mm 0,0 UV-I 0 W/m² 6,4 °C 7,0 °C 0,0 km/h (0 Bft)
23.10.2019 06:37 7,1 °C 96 % 1016,3 hPa 0,0 mm 0,0 km/h (0 Bft) S-SW 195 ° 0 min 0,000 mm 0,0 UV-I 0 W/m² 6,5 °C 7,1 °C 0,0 km/h (0 Bft)
23.10.2019 06:38 7,0 °C 96 % 1016,4 hPa 0,0 mm 0,0 km/h (0 Bft) S-SW 195 ° 0 min 0,000 mm 0,0 UV-I 0 W/m² 6,4 °C 7,0 °C 0,0 km/h (0 Bft)
23.10.2019 06:39 7,1 °C 96 % 1016,4 hPa 0,0 mm 0,9 km/h (0 Bft) S-SW 195 ° 0 min 0,000 mm 0,0 UV-I 0 W/m² 6,5 °C 7,1 °C 3,2 km/h (1 Bft)
23.10.2019 06:40 7,1 °C 96 % 1016,3 hPa 0,0 mm 1,5 km/h (1 Bft) S-SW 195 ° 0 min 0,000 mm 0,0 UV-I 0 W/m² 6,5 °C 7,1 °C 3,2 km/h (1 Bft)
23.10.2019 06:41 7,1 °C 96 % 1016,3 hPa 0,0 mm 0,0 km/h (0 Bft) S-SW 195 ° 0 min 0,000 mm 0,0 UV-I 0 W/m² 6,5 °C 7,1 °C 0,0 km/h (0 Bft)
23.10.2019 06:42 7,1 °C 96 % 1016,3 hPa 0,0 mm 0,0 km/h (0 Bft) S-SW 195 ° 0 min 0,000 mm 0,0 UV-I 0 W/m² 6,5 °C 7,1 °C 0,0 km/h (0 Bft)
23.10.2019 06:43 7,1 °C 96 % 1016,3 hPa 0,0 mm 0,0 km/h (0 Bft) S-SW 195 ° 0 min 0,000 mm 0,0 UV-I 0 W/m² 6,5 °C 7,1 °C 0,0 km/h (0 Bft)
23.10.2019 06:44 7,2 °C 96 % 1016,3 hPa 0,0 mm 0,0 km/h (0 Bft) S-SW 195 ° 0 min 0,000 mm 0,0 UV-I 0 W/m² 6,6 °C 7,2 °C 0,0 km/h (0 Bft)
23.10.2019 06:45 7,2 °C 96 % 1016,2 hPa 0,0 mm 0,0 km/h (0 Bft) S-SW 195 ° 0 min 0,000 mm 0,0 UV-I 0 W/m² 6,6 °C 7,2 °C 0,0 km/h (0 Bft)
23.10.2019 06:46 7,2 °C 96 % 1016,2 hPa 0,0 mm 0,0 km/h (0 Bft) S-SW 195 ° 0 min 0,000 mm 0,0 UV-I 0 W/m² 6,6 °C 7,2 °C 0,0 km/h (0 Bft)
23.10.2019 06:47 7,2 °C 96 % 1016,2 hPa 0,0 mm 0,0 km/h (0 Bft) S-SW 195 ° 0 min 0,000 mm 0,0 UV-I 0 W/m² 6,6 °C 7,2 °C 0,0 km/h (0 Bft)
23.10.2019 06:48 7,3 °C 96 % 1016,2 hPa 0,0 mm 1,0 km/h (0 Bft) S-SW 195 ° 0 min 0,000 mm 0,0 UV-I 0 W/m² 6,7 °C 7,3 °C 3,2 km/h (1 Bft)
23.10.2019 06:49 7,3 °C 96 % 1016,2 hPa 0,0 mm 1,7 km/h (1 Bft) S-SW 195 ° 0 min 0,000 mm 0,0 UV-I 0 W/m² 6,7 °C 7,3 °C 3,2 km/h (1 Bft)
23.10.2019 06:50 7,3 °C 96 % 1016,2 hPa 0,0 mm 0,1 km/h (0 Bft) S-SW 195 ° 0 min 0,000 mm 0,0 UV-I 0 W/m² 6,7 °C 7,3 °C 1,6 km/h (1 Bft)
23.10.2019 06:51 7,3 °C 96 % 1016,2 hPa 0,0 mm 0,0 km/h (0 Bft) S-SW 195 ° 0 min 0,000 mm 0,0 UV-I 0 W/m² 6,7 °C 7,3 °C 0,0 km/h (0 Bft)
23.10.2019 06:52 7,2 °C 96 % 1016,3 hPa 0,0 mm 0,0 km/h (0 Bft) S-SW 195 ° 0 min 0,000 mm 0,0 UV-I 0 W/m² 6,6 °C 7,2 °C 0,0 km/h (0 Bft)
23.10.2019 06:53 7,2 °C 96 % 1016,2 hPa 0,0 mm 0,0 km/h (0 Bft) S-SW 195 ° 0 min 0,000 mm 0,0 UV-I 0 W/m² 6,6 °C 7,2 °C 0,0 km/h (0 Bft)
23.10.2019 06:54 7,3 °C 96 % 1016,2 hPa 0,0 mm 2,0 km/h (1 Bft) S-SW 195 ° 0 min 0,000 mm 0,0 UV-I 0 W/m² 6,7 °C 7,3 °C 3,2 km/h (1 Bft)
23.10.2019 06:55 7,2 °C 96 % 1016,3 hPa 0,0 mm 2,8 km/h (1 Bft) S-SW 195 ° 0 min 0,000 mm 0,0 UV-I 0 W/m² 6,6 °C 7,2 °C 3,2 km/h (1 Bft)
23.10.2019 06:56 7,2 °C 96 % 1016,3 hPa 0,0 mm 0,5 km/h (0 Bft) S-SW 195 ° 0 min 0,000 mm 0,0 UV-I 0 W/m² 6,6 °C 7,2 °C 3,2 km/h (1 Bft)
23.10.2019 06:57 7,2 °C 96 % 1016,3 hPa 0,0 mm 0,0 km/h (0 Bft) S-SW 195 ° 0 min 0,000 mm 0,0 UV-I 0 W/m² 6,6 °C 7,2 °C 0,0 km/h (0 Bft)
23.10.2019 06:58 7,2 °C 96 % 1016,2 hPa 0,0 mm 0,2 km/h (0 Bft) S-SW 195 ° 0 min 0,000 mm 0,0 UV-I 0 W/m² 6,6 °C 7,2 °C 1,6 km/h (1 Bft)
23.10.2019 06:59 7,2 °C 96 % 1016,3 hPa 0,0 mm 2,8 km/h (1 Bft) S-SW 195 ° 0 min 0,000 mm 0,0 UV-I 0 W/m² 6,6 °C 7,2 °C 3,2 km/h (1 Bft)
23.10.2019 07:00 7,2 °C 96 % 1016,3 hPa 0,0 mm 1,9 km/h (1 Bft) S-SW 195 ° 0 min 0,000 mm 0,0 UV-I 0 W/m² 6,6 °C 7,2 °C 3,2 km/h (1 Bft)
23.10.2019 07:01 7,2 °C 96 % 1016,3 hPa 0,0 mm 1,3 km/h (1 Bft) S-SW 195 ° 0 min 0,000 mm 0,0 UV-I 0 W/m² 6,6 °C 7,2 °C 3,2 km/h (1 Bft)
23.10.2019 07:02 7,1 °C 96 % 1016,3 hPa 0,0 mm 0,0 km/h (0 Bft) S-SW 195 ° 0 min 0,000 mm 0,0 UV-I 0 W/m² 6,5 °C 7,1 °C 0,0 km/h (0 Bft)
23.10.2019 07:03 7,1 °C 96 % 1016,3 hPa 0,0 mm 0,0 km/h (0 Bft) S-SW 195 ° 0 min 0,000 mm 0,0 UV-I 0 W/m² 6,5 °C 7,1 °C 0,0 km/h (0 Bft)
23.10.2019 07:04 7,0 °C 96 % 1016,3 hPa 0,0 mm 0,0 km/h (0 Bft) S-SW 195 ° 0 min 0,000 mm 0,0 UV-I 0 W/m² 6,4 °C 7,0 °C 0,0 km/h (0 Bft)
23.10.2019 07:05 6,9 °C 96 % 1016,3 hPa 0,0 mm 0,0 km/h (0 Bft) S-SW 195 ° 0 min 0,000 mm 0,0 UV-I 0 W/m² 6,3 °C 6,9 °C 0,0 km/h (0 Bft)
23.10.2019 07:06 6,9 °C 96 % 1016,3 hPa 0,0 mm 0,0 km/h (0 Bft) S-SW 195 ° 0 min 0,000 mm 0,0 UV-I 0 W/m² 6,3 °C 6,9 °C 0,0 km/h (0 Bft)
23.10.2019 07:07 6,9 °C 96 % 1016,3 hPa 0,0 mm 0,0 km/h (0 Bft) S-SW 195 ° 0 min 0,000 mm 0,0 UV-I 0 W/m² 6,3 °C 6,9 °C 0,0 km/h (0 Bft)
23.10.2019 07:08 6,9 °C 96 % 1016,2 hPa 0,0 mm 0,0 km/h (0 Bft) S-SW 195 ° 0 min 0,000 mm 0,0 UV-I 0 W/m² 6,3 °C 6,9 °C 0,0 km/h (0 Bft)
23.10.2019 07:09 6,9 °C 96 % 1016,2 hPa 0,0 mm 0,0 km/h (0 Bft) S-SW 195 ° 0 min 0,000 mm 0,0 UV-I 0 W/m² 6,3 °C 6,9 °C 0,0 km/h (0 Bft)
23.10.2019 07:10 6,9 °C 96 % 1016,3 hPa 0,0 mm 0,0 km/h (0 Bft) S-SW 195 ° 0 min 0,000 mm 0,0 UV-I 0 W/m² 6,3 °C 6,9 °C 0,0 km/h (0 Bft)
23.10.2019 07:11 6,9 °C 96 % 1016,2 hPa 0,0 mm 0,0 km/h (0 Bft) S-SW 195 ° 0 min 0,000 mm 0,0 UV-I 0 W/m² 6,3 °C 6,9 °C 0,0 km/h (0 Bft)
23.10.2019 07:12 6,9 °C 96 % 1016,2 hPa 0,0 mm 0,0 km/h (0 Bft) S-SW 195 ° 0 min 0,000 mm 0,0 UV-I 0 W/m² 6,3 °C 6,9 °C 0,0 km/h (0 Bft)
23.10.2019 07:13 6,9 °C 96 % 1016,2 hPa 0,0 mm 0,0 km/h (0 Bft) S-SW 195 ° 0 min 0,000 mm 0,0 UV-I 0 W/m² 6,3 °C 6,9 °C 0,0 km/h (0 Bft)
23.10.2019 07:14 6,9 °C 96 % 1016,2 hPa 0,0 mm 0,0 km/h (0 Bft) S-SW 195 ° 0 min 0,000 mm 0,0 UV-I 0 W/m² 6,3 °C 6,9 °C 0,0 km/h (0 Bft)
23.10.2019 07:15 6,8 °C 96 % 1016,2 hPa 0,0 mm 0,0 km/h (0 Bft) S-SW 195 ° 0 min 0,000 mm 0,0 UV-I 0 W/m² 6,2 °C 6,8 °C 0,0 km/h (0 Bft)
23.10.2019 07:16 6,8 °C 96 % 1016,2 hPa 0,0 mm 0,0 km/h (0 Bft) S-SW 195 ° 0 min 0,000 mm 0,0 UV-I 0 W/m² 6,2 °C 6,8 °C 0,0 km/h (0 Bft)
23.10.2019 07:17 6,8 °C 96 % 1016,2 hPa 0,0 mm 0,0 km/h (0 Bft) S-SW 195 ° 0 min 0,000 mm 0,0 UV-I 0 W/m² 6,2 °C 6,8 °C 0,0 km/h (0 Bft)
23.10.2019 07:18 6,8 °C 96 % 1016,2 hPa 0,0 mm 0,0 km/h (0 Bft) S-SW 195 ° 0 min 0,000 mm 0,0 UV-I 0 W/m² 6,2 °C 6,8 °C 0,0 km/h (0 Bft)
23.10.2019 07:19 6,8 °C 96 % 1016,2 hPa 0,0 mm 0,0 km/h (0 Bft) S-SW 195 ° 0 min 0,000 mm 0,0 UV-I 0 W/m² 6,2 °C 6,8 °C 0,0 km/h (0 Bft)
23.10.2019 07:20 6,8 °C 96 % 1016,2 hPa 0,0 mm 0,0 km/h (0 Bft) S-SW 195 ° 0 min 0,000 mm 0,0 UV-I 0 W/m² 6,2 °C 6,8 °C 0,0 km/h (0 Bft)
23.10.2019 07:21 6,8 °C 96 % 1016,3 hPa 0,0 mm 0,0 km/h (0 Bft) S-SW 195 ° 0 min 0,000 mm 0,0 UV-I 0 W/m² 6,2 °C 6,8 °C 0,0 km/h (0 Bft)
23.10.2019 07:22 6,8 °C 96 % 1016,2 hPa 0,0 mm 0,0 km/h (0 Bft) S-SW 195 ° 0 min 0,000 mm 0,0 UV-I 0 W/m² 6,2 °C 6,8 °C 0,0 km/h (0 Bft)
23.10.2019 07:23 6,8 °C 96 % 1016,2 hPa 0,0 mm 0,0 km/h (0 Bft) S-SW 195 ° 0 min 0,000 mm 0,0 UV-I 0 W/m² 6,2 °C 6,8 °C 0,0 km/h (0 Bft)
23.10.2019 07:24 6,8 °C 96 % 1016,2 hPa 0,0 mm 0,0 km/h (0 Bft) S-SW 195 ° 0 min 0,000 mm 0,0 UV-I 0 W/m² 6,2 °C 6,8 °C 0,0 km/h (0 Bft)
23.10.2019 07:25 6,9 °C 96 % 1016,3 hPa 0,0 mm 0,0 km/h (0 Bft) S-SW 195 ° 0 min 0,000 mm 0,0 UV-I 0 W/m² 6,3 °C 6,9 °C 0,0 km/h (0 Bft)
23.10.2019 07:26 6,9 °C 96 % 1016,3 hPa 0,0 mm 0,0 km/h (0 Bft) S-SW 195 ° 0 min 0,000 mm 0,0 UV-I 0 W/m² 6,3 °C 6,9 °C 0,0 km/h (0 Bft)
23.10.2019 07:27 6,9 °C 96 % 1016,4 hPa 0,0 mm 0,0 km/h (0 Bft) S-SW 195 ° 0 min 0,000 mm 0,0 UV-I 0 W/m² 6,3 °C 6,9 °C 0,0 km/h (0 Bft)
23.10.2019 07:28 6,9 °C 96 % 1016,3 hPa 0,0 mm 0,0 km/h (0 Bft) S-SW 195 ° 0 min 0,000 mm 0,0 UV-I 0 W/m² 6,3 °C 6,9 °C 0,0 km/h (0 Bft)
23.10.2019 07:29 6,9 °C 96 % 1016,3 hPa 0,0 mm 0,0 km/h (0 Bft) S-SW 195 ° 0 min 0,000 mm 0,0 UV-I 0 W/m² 6,3 °C 6,9 °C 0,0 km/h (0 Bft)
23.10.2019 07:30 6,9 °C 96 % 1016,3 hPa 0,0 mm 0,0 km/h (0 Bft) S-SW 195 ° 0 min 0,000 mm 0,0 UV-I 0 W/m² 6,3 °C 6,9 °C 0,0 km/h (0 Bft)
23.10.2019 07:31 6,8 °C 96 % 1016,3 hPa 0,0 mm 0,0 km/h (0 Bft) S-SW 195 ° 0 min 0,000 mm 0,0 UV-I 0 W/m² 6,2 °C 6,8 °C 0,0 km/h (0 Bft)
23.10.2019 07:32 6,9 °C 96 % 1016,3 hPa 0,0 mm 0,0 km/h (0 Bft) S-SW 195 ° 0 min 0,000 mm 0,0 UV-I 0 W/m² 6,3 °C 6,9 °C 0,0 km/h (0 Bft)
23.10.2019 07:33 6,8 °C 96 % 1016,3 hPa 0,0 mm 0,0 km/h (0 Bft) S-SW 195 ° 0 min 0,000 mm 0,0 UV-I 0 W/m² 6,2 °C 6,8 °C 0,0 km/h (0 Bft)
23.10.2019 07:34 6,8 °C 96 % 1016,3 hPa 0,0 mm 0,0 km/h (0 Bft) S-SW 195 ° 0 min 0,000 mm 0,0 UV-I 0 W/m² 6,2 °C 6,8 °C 0,0 km/h (0 Bft)
23.10.2019 07:35 6,8 °C 96 % 1016,3 hPa 0,0 mm 0,0 km/h (0 Bft) S-SW 195 ° 0 min 0,000 mm 0,0 UV-I 0 W/m² 6,2 °C 6,8 °C 0,0 km/h (0 Bft)
23.10.2019 07:36 6,8 °C 96 % 1016,3 hPa 0,0 mm 0,0 km/h (0 Bft) S-SW 195 ° 0 min 0,000 mm 0,0 UV-I 0 W/m² 6,2 °C 6,8 °C 0,0 km/h (0 Bft)
23.10.2019 07:37 6,8 °C 96 % 1016,3 hPa 0,0 mm 0,0 km/h (0 Bft) S-SW 195 ° 0 min 0,000 mm 0,0 UV-I 0 W/m² 6,2 °C 6,8 °C 0,0 km/h (0 Bft)
23.10.2019 07:38 6,8 °C 96 % 1016,3 hPa 0,0 mm 0,0 km/h (0 Bft) S-SW 195 ° 0 min 0,000 mm 0,0 UV-I 0 W/m² 6,2 °C 6,8 °C 0,0 km/h (0 Bft)
23.10.2019 07:39 6,8 °C 96 % 1016,4 hPa 0,0 mm 0,0 km/h (0 Bft) S-SW 195 ° 0 min 0,000 mm 0,0 UV-I 0 W/m² 6,2 °C 6,8 °C 0,0 km/h (0 Bft)
23.10.2019 07:40 6,8 °C 96 % 1016,4 hPa 0,0 mm 0,0 km/h (0 Bft) S-SW 195 ° 0 min 0,000 mm 0,0 UV-I 0 W/m² 6,2 °C 6,8 °C 0,0 km/h (0 Bft)
23.10.2019 07:41 6,7 °C 96 % 1016,3 hPa 0,0 mm 0,0 km/h (0 Bft) S-SW 195 ° 0 min 0,000 mm 0,0 UV-I 0 W/m² 6,1 °C 6,7 °C 0,0 km/h (0 Bft)
23.10.2019 07:42 6,7 °C 96 % 1016,2 hPa 0,0 mm 0,0 km/h (0 Bft) S 190 ° 0 min 0,000 mm 0,0 UV-I 0 W/m² 6,1 °C 6,7 °C 0,0 km/h (0 Bft)
23.10.2019 07:43 6,7 °C 96 % 1016,2 hPa 0,0 mm 0,0 km/h (0 Bft) S 190 ° 0 min 0,000 mm 0,0 UV-I 0 W/m² 6,1 °C 6,7 °C 0,0 km/h (0 Bft)
23.10.2019 07:44 6,7 °C 96 % 1016,2 hPa 0,0 mm 0,0 km/h (0 Bft) S 190 ° 0 min 0,000 mm 0,0 UV-I 0 W/m² 6,1 °C 6,7 °C 0,0 km/h (0 Bft)
23.10.2019 07:45 6,7 °C 96 % 1016,3 hPa 0,0 mm 0,0 km/h (0 Bft) S 191 ° 0 min 0,000 mm 0,0 UV-I 0 W/m² 6,1 °C 6,7 °C 0,0 km/h (0 Bft)
23.10.2019 07:46 6,6 °C 96 % 1016,3 hPa 0,0 mm 0,0 km/h (0 Bft) S 191 ° 0 min 0,000 mm 0,0 UV-I 0 W/m² 6,0 °C 6,6 °C 0,0 km/h (0 Bft)
23.10.2019 07:47 6,6 °C 96 % 1016,4 hPa 0,0 mm 0,0 km/h (0 Bft) S 191 ° 0 min 0,000 mm 0,0 UV-I 0 W/m² 6,0 °C 6,6 °C 0,0 km/h (0 Bft)
23.10.2019 07:48 6,5 °C 96 % 1016,4 hPa 0,0 mm 0,0 km/h (0 Bft) S 191 ° 0 min 0,000 mm 0,0 UV-I 0 W/m² 5,9 °C 6,5 °C 0,0 km/h (0 Bft)
23.10.2019 07:49 6,4 °C 96 % 1016,4 hPa 0,0 mm 0,0 km/h (0 Bft) S 191 ° 0 min 0,000 mm 0,0 UV-I 5 W/m² 5,8 °C 6,4 °C 0,0 km/h (0 Bft)
23.10.2019 07:50 6,4 °C 96 % 1016,3 hPa 0,0 mm 0,0 km/h (0 Bft) S 191 ° 0 min 0,000 mm 0,0 UV-I 5 W/m² 5,8 °C 6,4 °C 0,0 km/h (0 Bft)
23.10.2019 07:51 6,3 °C 96 % 1016,3 hPa 0,0 mm 0,0 km/h (0 Bft) S 191 ° 0 min 0,000 mm 0,0 UV-I 5 W/m² 5,7 °C 6,3 °C 0,0 km/h (0 Bft)
23.10.2019 07:52 6,3 °C 96 % 1016,4 hPa 0,0 mm 0,0 km/h (0 Bft) S 191 ° 0 min 0,000 mm 0,0 UV-I 5 W/m² 5,7 °C 6,3 °C 0,0 km/h (0 Bft)
23.10.2019 07:53 6,2 °C 96 % 1016,3 hPa 0,0 mm 0,0 km/h (0 Bft) S 191 ° 0 min 0,000 mm 0,0 UV-I 5 W/m² 5,6 °C 6,2 °C 0,0 km/h (0 Bft)
23.10.2019 07:54 6,2 °C 96 % 1016,3 hPa 0,0 mm 0,0 km/h (0 Bft) S 191 ° 0 min 0,000 mm 0,0 UV-I 5 W/m² 5,6 °C 6,2 °C 0,0 km/h (0 Bft)
23.10.2019 07:55 6,1 °C 96 % 1016,3 hPa 0,0 mm 0,0 km/h (0 Bft) S 191 ° 0 min 0,000 mm 0,0 UV-I 5 W/m² 5,5 °C 6,1 °C 0,0 km/h (0 Bft)
23.10.2019 07:56 6,1 °C 96 % 1016,3 hPa 0,0 mm 0,0 km/h (0 Bft) S 191 ° 0 min 0,000 mm 0,0 UV-I 7 W/m² 5,5 °C 6,1 °C 0,0 km/h (0 Bft)
23.10.2019 07:57 6,1 °C 96 % 1016,3 hPa 0,0 mm 0,0 km/h (0 Bft) S 191 ° 0 min 0,000 mm 0,0 UV-I 7 W/m² 5,5 °C 6,1 °C 0,0 km/h (0 Bft)
23.10.2019 07:58 6,1 °C 96 % 1016,2 hPa 0,0 mm 0,0 km/h (0 Bft) S 191 ° 0 min 0,000 mm 0,0 UV-I 7 W/m² 5,5 °C 6,1 °C 0,0 km/h (0 Bft)
23.10.2019 07:59 6,1 °C 96 % 1016,2 hPa 0,0 mm 0,0 km/h (0 Bft) S 191 ° 0 min 0,000 mm 0,0 UV-I 9 W/m² 5,5 °C 6,1 °C 0,0 km/h (0 Bft)
23.10.2019 08:00 6,1 °C 96 % 1016,2 hPa 0,0 mm 0,0 km/h (0 Bft) S 191 ° 0 min 0,000 mm 0,0 UV-I 9 W/m² 5,5 °C 6,1 °C 0,0 km/h (0 Bft)
23.10.2019 08:01 6,1 °C 96 % 1016,2 hPa 0,0 mm 0,0 km/h (0 Bft) S 191 ° 0 min 0,000 mm 0,0 UV-I 11 W/m² 5,5 °C 6,1 °C 0,0 km/h (0 Bft)
23.10.2019 08:02 6,1 °C 96 % 1016,2 hPa 0,0 mm 0,0 km/h (0 Bft) S 191 ° 0 min 0,000 mm 0,0 UV-I 12 W/m² 5,5 °C 6,1 °C 0,0 km/h (0 Bft)
23.10.2019 08:03 5,9 °C 96 % 1016,2 hPa 0,0 mm 0,0 km/h (0 Bft) S 191 ° 0 min 0,000 mm 0,0 UV-I 11 W/m² 5,3 °C 5,9 °C 0,0 km/h (0 Bft)
23.10.2019 08:04 5,9 °C 96 % 1016,2 hPa 0,0 mm 0,0 km/h (0 Bft) S 191 ° 0 min 0,000 mm 0,0 UV-I 11 W/m² 5,3 °C 5,9 °C 0,0 km/h (0 Bft)
23.10.2019 08:05 5,8 °C 96 % 1016,2 hPa 0,0 mm 0,0 km/h (0 Bft) S 191 ° 0 min 0,000 mm 0,0 UV-I 9 W/m² 5,2 °C 5,8 °C 0,0 km/h (0 Bft)
23.10.2019 08:06 5,8 °C 96 % 1016,3 hPa 0,0 mm 0,0 km/h (0 Bft) S 191 ° 0 min 0,000 mm 0,0 UV-I 9 W/m² 5,2 °C 5,8 °C 0,0 km/h (0 Bft)
23.10.2019 08:07 5,7 °C 96 % 1016,3 hPa 0,0 mm 0,0 km/h (0 Bft) S 191 ° 0 min 0,000 mm 0,0 UV-I 9 W/m² 5,1 °C 5,7 °C 0,0 km/h (0 Bft)
23.10.2019 08:08 5,8 °C 96 % 1016,3 hPa 0,0 mm 0,0 km/h (0 Bft) S 191 ° 0 min 0,000 mm 0,0 UV-I 12 W/m² 5,2 °C 5,8 °C 0,0 km/h (0 Bft)
23.10.2019 08:09 5,8 °C 96 % 1016,3 hPa 0,0 mm 0,0 km/h (0 Bft) S 191 ° 0 min 0,000 mm 0,0 UV-I 14 W/m² 5,2 °C 5,8 °C 0,0 km/h (0 Bft)
23.10.2019 08:10 5,8 °C 96 % 1016,3 hPa 0,0 mm 0,0 km/h (0 Bft) S 191 ° 0 min 0,000 mm 0,0 UV-I 16 W/m² 5,2 °C 5,8 °C 0,0 km/h (0 Bft)
23.10.2019 08:11 5,9 °C 96 % 1016,3 hPa 0,0 mm 0,0 km/h (0 Bft) S 191 ° 0 min 0,000 mm 0,0 UV-I 18 W/m² 5,3 °C 5,9 °C 0,0 km/h (0 Bft)
23.10.2019 08:12 5,9 °C 96 % 1016,4 hPa 0,0 mm 0,0 km/h (0 Bft) S 191 ° 0 min 0,000 mm 0,0 UV-I 21 W/m² 5,3 °C 5,9 °C 0,0 km/h (0 Bft)
23.10.2019 08:13 5,9 °C 96 % 1016,3 hPa 0,0 mm 0,0 km/h (0 Bft) S 191 ° 0 min 0,000 mm 0,0 UV-I 19 W/m² 5,3 °C 5,9 °C 0,0 km/h (0 Bft)
23.10.2019 08:14 6,1 °C 96 % 1016,4 hPa 0,0 mm 0,0 km/h (0 Bft) S 191 ° 0 min 0,000 mm 0,0 UV-I 21 W/m² 5,5 °C 6,1 °C 0,0 km/h (0 Bft)
23.10.2019 08:15 6,1 °C 96 % 1016,4 hPa 0,0 mm 0,0 km/h (0 Bft) S 191 ° 0 min 0,000 mm 0,0 UV-I 23 W/m² 5,5 °C 6,1 °C 0,0 km/h (0 Bft)
23.10.2019 08:16 6,2 °C 96 % 1016,4 hPa 0,0 mm 0,0 km/h (0 Bft) S 191 ° 0 min 0,000 mm 0,0 UV-I 25 W/m² 5,6 °C 6,2 °C 0,0 km/h (0 Bft)
23.10.2019 08:17 6,3 °C 96 % 1016,4 hPa 0,0 mm 0,0 km/h (0 Bft) S 191 ° 0 min 0,000 mm 0,0 UV-I 25 W/m² 5,7 °C 6,3 °C 0,0 km/h (0 Bft)
23.10.2019 08:18 6,3 °C 96 % 1016,4 hPa 0,0 mm 0,0 km/h (0 Bft) S 191 ° 0 min 0,000 mm 0,0 UV-I 26 W/m² 5,7 °C 6,3 °C 0,0 km/h (0 Bft)
23.10.2019 08:19 6,4 °C 96 % 1016,4 hPa 0,0 mm 0,0 km/h (0 Bft) S 191 ° 0 min 0,000 mm 0,0 UV-I 23 W/m² 5,8 °C 6,4 °C 0,0 km/h (0 Bft)
23.10.2019 08:20 6,5 °C 96 % 1016,4 hPa 0,0 mm 0,0 km/h (0 Bft) S 191 ° 0 min 0,000 mm 0,0 UV-I 23 W/m² 5,9 °C 6,5 °C 0,0 km/h (0 Bft)
23.10.2019 08:21 6,6 °C 96 % 1016,4 hPa 0,0 mm 0,0 km/h (0 Bft) S 191 ° 0 min 0,000 mm 0,0 UV-I 25 W/m² 6,0 °C 6,6 °C 0,0 km/h (0 Bft)
23.10.2019 08:22 6,6 °C 96 % 1016,4 hPa 0,0 mm 0,0 km/h (0 Bft) S 191 ° 0 min 0,000 mm 0,0 UV-I 25 W/m² 6,0 °C 6,6 °C 0,0 km/h (0 Bft)
23.10.2019 08:23 6,7 °C 97 % 1016,4 hPa 0,0 mm 0,0 km/h (0 Bft) S 191 ° 0 min 0,000 mm 0,0 UV-I 28 W/m² 6,3 °C 6,7 °C 0,0 km/h (0 Bft)
23.10.2019 08:24 6,7 °C 97 % 1016,3 hPa 0,0 mm 0,0 km/h (0 Bft) S 191 ° 0 min 0,000 mm 0,0 UV-I 33 W/m² 6,3 °C 6,7 °C 0,0 km/h (0 Bft)
23.10.2019 08:25 6,7 °C 97 % 1016,3 hPa 0,0 mm 0,0 km/h (0 Bft) S 191 ° 0 min 0,000 mm 0,0 UV-I 30 W/m² 6,3 °C 6,7 °C 0,0 km/h (0 Bft)
23.10.2019 08:26 6,7 °C 97 % 1016,3 hPa 0,0 mm 0,0 km/h (0 Bft) S 191 ° 0 min 0,000 mm 0,0 UV-I 28 W/m² 6,3 °C 6,7 °C 0,0 km/h (0 Bft)
23.10.2019 08:27 6,7 °C 97 % 1016,4 hPa 0,0 mm 0,0 km/h (0 Bft) S 191 ° 0 min 0,000 mm 0,0 UV-I 32 W/m² 6,3 °C 6,7 °C 0,0 km/h (0 Bft)
23.10.2019 08:28 6,6 °C 97 % 1016,4 hPa 0,0 mm 0,0 km/h (0 Bft) S 191 ° 0 min 0,000 mm 0,0 UV-I 37 W/m² 6,2 °C 6,6 °C 0,0 km/h (0 Bft)
23.10.2019 08:29 6,6 °C 96 % 1016,4 hPa 0,0 mm 0,0 km/h (0 Bft) S 191 ° 0 min 0,000 mm 0,0 UV-I 46 W/m² 6,0 °C 6,6 °C 0,0 km/h (0 Bft)
23.10.2019 08:30 6,4 °C 96 % 1016,4 hPa 0,0 mm 0,0 km/h (0 Bft) S 191 ° 0 min 0,000 mm 0,0 UV-I 51 W/m² 5,8 °C 6,4 °C 0,0 km/h (0 Bft)
23.10.2019 08:31 6,4 °C 96 % 1016,5 hPa 0,0 mm 0,0 km/h (0 Bft) S 191 ° 0 min 0,000 mm 0,0 UV-I 51 W/m² 5,8 °C 6,4 °C 0,0 km/h (0 Bft)
23.10.2019 08:32 6,3 °C 96 % 1016,4 hPa 0,0 mm 0,0 km/h (0 Bft) S 191 ° 0 min 0,000 mm 0,0 UV-I 39 W/m² 5,7 °C 6,3 °C 0,0 km/h (0 Bft)
23.10.2019 08:33 6,3 °C 96 % 1016,4 hPa 0,0 mm 0,0 km/h (0 Bft) S 191 ° 0 min 0,000 mm 0,0 UV-I 39 W/m² 5,7 °C 6,3 °C 0,0 km/h (0 Bft)
23.10.2019 08:34 6,3 °C 96 % 1016,4 hPa 0,0 mm 0,0 km/h (0 Bft) S 191 ° 0 min 0,000 mm 0,0 UV-I 46 W/m² 5,7 °C 6,3 °C 0,0 km/h (0 Bft)
23.10.2019 08:35 6,2 °C 96 % 1016,4 hPa 0,0 mm 0,0 km/h (0 Bft) S 191 ° 0 min 0,000 mm 0,0 UV-I 51 W/m² 5,6 °C 6,2 °C 0,0 km/h (0 Bft)
23.10.2019 08:36 6,2 °C 96 % 1016,4 hPa 0,0 mm 0,0 km/h (0 Bft) S 191 ° 0 min 0,000 mm 0,0 UV-I 47 W/m² 5,6 °C 6,2 °C 0,0 km/h (0 Bft)
23.10.2019 08:37 6,2 °C 96 % 1016,4 hPa 0,0 mm 0,0 km/h (0 Bft) S 191 ° 0 min 0,000 mm 0,0 UV-I 40 W/m² 5,6 °C 6,2 °C 0,0 km/h (0 Bft)
23.10.2019 08:38 6,2 °C 96 % 1016,4 hPa 0,0 mm 0,0 km/h (0 Bft) S 191 ° 0 min 0,000 mm 0,0 UV-I 39 W/m² 5,6 °C 6,2 °C 0,0 km/h (0 Bft)
23.10.2019 08:39 6,1 °C 96 % 1016,4 hPa 0,0 mm 0,0 km/h (0 Bft) S 191 ° 0 min 0,000 mm 0,0 UV-I 44 W/m² 5,5 °C 6,1 °C 0,0 km/h (0 Bft)
23.10.2019 08:40 6,1 °C 96 % 1016,4 hPa 0,0 mm 0,0 km/h (0 Bft) S 191 ° 0 min 0,000 mm 0,0 UV-I 49 W/m² 5,5 °C 6,1 °C 0,0 km/h (0 Bft)
23.10.2019 08:41 6,2 °C 96 % 1016,4 hPa 0,0 mm 0,0 km/h (0 Bft) S 191 ° 0 min 0,000 mm 0,0 UV-I 51 W/m² 5,6 °C 6,2 °C 0,0 km/h (0 Bft)
23.10.2019 08:42 6,2 °C 96 % 1016,4 hPa 0,0 mm 0,0 km/h (0 Bft) S 191 ° 0 min 0,000 mm 0,0 UV-I 49 W/m² 5,6 °C 6,2 °C 0,0 km/h (0 Bft)
23.10.2019 08:43 6,3 °C 96 % 1016,4 hPa 0,0 mm 0,0 km/h (0 Bft) S 190 ° 0 min 0,000 mm 0,0 UV-I 39 W/m² 5,7 °C 6,3 °C 0,0 km/h (0 Bft)
23.10.2019 08:44 6,3 °C 96 % 1016,4 hPa 0,0 mm 0,0 km/h (0 Bft) S 190 ° 0 min 0,000 mm 0,0 UV-I 35 W/m² 5,7 °C 6,3 °C 0,0 km/h (0 Bft)
23.10.2019 08:45 6,3 °C 96 % 1016,4 hPa 0,0 mm 0,0 km/h (0 Bft) S 190 ° 0 min 0,000 mm 0,0 UV-I 39 W/m² 5,7 °C 6,3 °C 0,0 km/h (0 Bft)
23.10.2019 08:46 6,4 °C 96 % 1016,3 hPa 0,0 mm 0,0 km/h (0 Bft) S 190 ° 0 min 0,000 mm 0,0 UV-I 47 W/m² 5,8 °C 6,4 °C 0,0 km/h (0 Bft)
23.10.2019 08:47 6,4 °C 96 % 1016,3 hPa 0,0 mm 0,0 km/h (0 Bft) S 190 ° 0 min 0,000 mm 0,0 UV-I 53 W/m² 5,8 °C 6,4 °C 0,0 km/h (0 Bft)
23.10.2019 08:48 6,4 °C 96 % 1016,4 hPa 0,0 mm 0,0 km/h (0 Bft) S 190 ° 0 min 0,000 mm 0,0 UV-I 56 W/m² 5,8 °C 6,4 °C 0,0 km/h (0 Bft)
23.10.2019 08:49 6,4 °C 96 % 1016,4 hPa 0,0 mm 0,0 km/h (0 Bft) S 190 ° 0 min 0,000 mm 0,0 UV-I 54 W/m² 5,8 °C 6,4 °C 0,0 km/h (0 Bft)
23.10.2019 08:50 6,4 °C 96 % 1016,4 hPa 0,0 mm 0,0 km/h (0 Bft) S 190 ° 0 min 0,000 mm 0,0 UV-I 54 W/m² 5,8 °C 6,4 °C 0,0 km/h (0 Bft)
23.10.2019 08:51 6,4 °C 96 % 1016,4 hPa 0,0 mm 0,0 km/h (0 Bft) S 190 ° 0 min 0,000 mm 0,0 UV-I 58 W/m² 5,8 °C 6,4 °C 0,0 km/h (0 Bft)
23.10.2019 08:52 6,4 °C 96 % 1016,4 hPa 0,0 mm 0,0 km/h (0 Bft) S 190 ° 0 min 0,000 mm 0,0 UV-I 56 W/m² 5,8 °C 6,4 °C 0,0 km/h (0 Bft)
23.10.2019 08:53 6,4 °C 96 % 1016,4 hPa 0,0 mm 0,0 km/h (0 Bft) S 190 ° 0 min 0,000 mm 0,0 UV-I 54 W/m² 5,8 °C 6,4 °C 0,0 km/h (0 Bft)
23.10.2019 08:54 6,5 °C 96 % 1016,4 hPa 0,0 mm 0,0 km/h (0 Bft) S 190 ° 0 min 0,000 mm 0,0 UV-I 58 W/m² 5,9 °C 6,5 °C 0,0 km/h (0 Bft)
23.10.2019 08:55 6,5 °C 96 % 1016,4 hPa 0,0 mm 0,0 km/h (0 Bft) S 190 ° 0 min 0,000 mm 0,0 UV-I 54 W/m² 5,9 °C 6,5 °C 0,0 km/h (0 Bft)
23.10.2019 08:56 6,6 °C 96 % 1016,4 hPa 0,0 mm 0,0 km/h (0 Bft) S 190 ° 0 min 0,000 mm 0,0 UV-I 60 W/m² 6,0 °C 6,6 °C 0,0 km/h (0 Bft)
23.10.2019 08:57 6,6 °C 96 % 1016,4 hPa 0,0 mm 0,0 km/h (0 Bft) S 190 ° 0 min 0,000 mm 0,0 UV-I 56 W/m² 6,0 °C 6,6 °C 0,0 km/h (0 Bft)
23.10.2019 08:58 6,6 °C 96 % 1016,5 hPa 0,0 mm 0,0 km/h (0 Bft) S 190 ° 0 min 0,000 mm 0,0 UV-I 62 W/m² 6,0 °C 6,6 °C 0,0 km/h (0 Bft)
23.10.2019 08:59 6,7 °C 97 % 1016,5 hPa 0,0 mm 0,0 km/h (0 Bft) S 190 ° 0 min 0,000 mm 0,0 UV-I 63 W/m² 6,3 °C 6,7 °C 0,0 km/h (0 Bft)
23.10.2019 09:00 6,6 °C 97 % 1016,5 hPa 0,0 mm 0,0 km/h (0 Bft) S 190 ° 0 min 0,025 mm 0,0 UV-I 62 W/m² 6,2 °C 6,6 °C 0,0 km/h (0 Bft)
23.10.2019 09:01 6,6 °C 96 % 1016,5 hPa 0,0 mm 0,0 km/h (0 Bft) S 190 ° 0 min 0,000 mm 0,0 UV-I 67 W/m² 6,0 °C 6,6 °C 0,0 km/h (0 Bft)
23.10.2019 09:02 6,6 °C 96 % 1016,5 hPa 0,0 mm 0,0 km/h (0 Bft) S 190 ° 0 min 0,000 mm 0,0 UV-I 62 W/m² 6,0 °C 6,6 °C 0,0 km/h (0 Bft)
23.10.2019 09:03 6,6 °C 97 % 1016,4 hPa 0,0 mm 0,0 km/h (0 Bft) S 190 ° 0 min 0,000 mm 0,0 UV-I 62 W/m² 6,2 °C 6,6 °C 0,0 km/h (0 Bft)
23.10.2019 09:04 6,6 °C 96 % 1016,4 hPa 0,0 mm 0,0 km/h (0 Bft) S 190 ° 0 min 0,000 mm 0,0 UV-I 54 W/m² 6,0 °C 6,6 °C 0,0 km/h (0 Bft)
23.10.2019 09:05 6,6 °C 96 % 1016,4 hPa 0,0 mm 0,0 km/h (0 Bft) S 190 ° 0 min 0,000 mm 0,0 UV-I 54 W/m² 6,0 °C 6,6 °C 0,0 km/h (0 Bft)
23.10.2019 09:06 6,6 °C 96 % 1016,3 hPa 0,0 mm 0,0 km/h (0 Bft) S 190 ° 0 min 0,000 mm 0,0 UV-I 54 W/m² 6,0 °C 6,6 °C 0,0 km/h (0 Bft)
23.10.2019 09:07 6,5 °C 96 % 1016,3 hPa 0,0 mm 0,0 km/h (0 Bft) S 190 ° 0 min 0,000 mm 0,0 UV-I 70 W/m² 5,9 °C 6,5 °C 0,0 km/h (0 Bft)
23.10.2019 09:08 6,5 °C 96 % 1016,4 hPa 0,0 mm 0,0 km/h (0 Bft) S 190 ° 0 min 0,000 mm 0,0 UV-I 70 W/m² 5,9 °C 6,5 °C 0,0 km/h (0 Bft)
23.10.2019 09:09 6,6 °C 96 % 1016,4 hPa 0,0 mm 0,0 km/h (0 Bft) S 191 ° 0 min 0,000 mm 0,0 UV-I 74 W/m² 6,0 °C 6,6 °C 0,0 km/h (0 Bft)
23.10.2019 09:10 6,6 °C 96 % 1016,4 hPa 0,0 mm 0,0 km/h (0 Bft) S 190 ° 0 min 0,000 mm 0,0 UV-I 70 W/m² 6,0 °C 6,6 °C 0,0 km/h (0 Bft)
23.10.2019 09:11 6,6 °C 96 % 1016,4 hPa 0,0 mm 0,0 km/h (0 Bft) S 191 ° 0 min 0,000 mm 0,0 UV-I 69 W/m² 6,0 °C 6,6 °C 0,0 km/h (0 Bft)
23.10.2019 09:12 6,6 °C 96 % 1016,4 hPa 0,0 mm 0,0 km/h (0 Bft) S 190 ° 0 min 0,000 mm 0,0 UV-I 65 W/m² 6,0 °C 6,6 °C 0,0 km/h (0 Bft)
23.10.2019 09:13 6,6 °C 96 % 1016,4 hPa 0,0 mm 0,0 km/h (0 Bft) S 191 ° 0 min 0,000 mm 0,0 UV-I 62 W/m² 6,0 °C 6,6 °C 0,0 km/h (0 Bft)
23.10.2019 09:14 6,5 °C 96 % 1016,5 hPa 0,0 mm 0,0 km/h (0 Bft) S 191 ° 0 min 0,000 mm 0,0 UV-I 62 W/m² 5,9 °C 6,5 °C 0,0 km/h (0 Bft)
23.10.2019 09:15 6,5 °C 96 % 1016,4 hPa 0,0 mm 0,0 km/h (0 Bft) S 191 ° 0 min 0,000 mm 0,5 UV-I 70 W/m² 5,9 °C 6,5 °C 0,0 km/h (0 Bft)
23.10.2019 09:16 6,6 °C 96 % 1016,4 hPa 0,0 mm 0,0 km/h (0 Bft) S 191 ° 0 min 0,000 mm 0,5 UV-I 81 W/m² 6,0 °C 6,6 °C 0,0 km/h (0 Bft)
23.10.2019 09:17 6,6 °C 96 % 1016,4 hPa 0,0 mm 0,0 km/h (0 Bft) S 190 ° 0 min 0,000 mm 0,5 UV-I 81 W/m² 6,0 °C 6,6 °C 0,0 km/h (0 Bft)
23.10.2019 09:18 6,7 °C 96 % 1016,4 hPa 0,0 mm 0,0 km/h (0 Bft) S 190 ° 0 min 0,000 mm 0,5 UV-I 83 W/m² 6,1 °C 6,7 °C 0,0 km/h (0 Bft)
23.10.2019 09:19 6,7 °C 96 % 1016,4 hPa 0,0 mm 0,0 km/h (0 Bft) S 190 ° 0 min 0,000 mm 0,5 UV-I 84 W/m² 6,1 °C 6,7 °C 0,0 km/h (0 Bft)
23.10.2019 09:20 6,6 °C 96 % 1016,4 hPa 0,0 mm 0,0 km/h (0 Bft) S 190 ° 0 min 0,000 mm 0,5 UV-I 88 W/m² 6,0 °C 6,6 °C 0,0 km/h (0 Bft)
23.10.2019 09:21 6,6 °C 96 % 1016,4 hPa 0,0 mm 0,0 km/h (0 Bft) S 190 ° 0 min 0,000 mm 0,5 UV-I 90 W/m² 6,0 °C 6,6 °C 0,0 km/h (0 Bft)
23.10.2019 09:22 6,6 °C 96 % 1016,4 hPa 0,0 mm 0,0 km/h (0 Bft) S 191 ° 0 min 0,000 mm 0,5 UV-I 93 W/m² 6,0 °C 6,6 °C 0,0 km/h (0 Bft)
23.10.2019 09:23 6,5 °C 96 % 1016,4 hPa 0,0 mm 0,0 km/h (0 Bft) S 190 ° 0 min 0,000 mm 0,5 UV-I 91 W/m² 5,9 °C 6,5 °C 0,0 km/h (0 Bft)
23.10.2019 09:24 6,5 °C 96 % 1016,4 hPa 0,0 mm 0,0 km/h (0 Bft) S 190 ° 0 min 0,000 mm 0,5 UV-I 97 W/m² 5,9 °C 6,5 °C 0,0 km/h (0 Bft)
23.10.2019 09:25 6,6 °C 96 % 1016,4 hPa 0,0 mm 0,0 km/h (0 Bft) S 191 ° 0 min 0,000 mm 0,5 UV-I 98 W/m² 6,0 °C 6,6 °C 0,0 km/h (0 Bft)
23.10.2019 09:26 6,6 °C 96 % 1016,4 hPa 0,0 mm 0,0 km/h (0 Bft) S 191 ° 0 min 0,000 mm 0,5 UV-I 93 W/m² 6,0 °C 6,6 °C 0,0 km/h (0 Bft)
23.10.2019 09:27 6,7 °C 96 % 1016,3 hPa 0,0 mm 0,0 km/h (0 Bft) S 191 ° 0 min 0,000 mm 0,5 UV-I 88 W/m² 6,1 °C 6,7 °C 0,0 km/h (0 Bft)
23.10.2019 09:28 6,7 °C 96 % 1016,4 hPa 0,0 mm 0,0 km/h (0 Bft) S 191 ° 0 min 0,000 mm 0,5 UV-I 81 W/m² 6,1 °C 6,7 °C 0,0 km/h (0 Bft)
23.10.2019 09:29 6,7 °C 96 % 1016,4 hPa 0,0 mm 0,0 km/h (0 Bft) S 191 ° 0 min 0,000 mm 0,5 UV-I 77 W/m² 6,1 °C 6,7 °C 0,0 km/h (0 Bft)
23.10.2019 09:30 6,7 °C 96 % 1016,4 hPa 0,0 mm 0,0 km/h (0 Bft) S 191 ° 0 min 0,000 mm 0,5 UV-I 79 W/m² 6,1 °C 6,7 °C 0,0 km/h (0 Bft)
23.10.2019 09:31 6,8 °C 96 % 1016,5 hPa 0,0 mm 0,0 km/h (0 Bft) S 191 ° 0 min 0,000 mm 0,5 UV-I 84 W/m² 6,2 °C 6,8 °C 0,0 km/h (0 Bft)
23.10.2019 09:32 6,7 °C 96 % 1016,5 hPa 0,0 mm 0,0 km/h (0 Bft) S 191 ° 0 min 0,000 mm 0,6 UV-I 91 W/m² 6,1 °C 6,7 °C 0,0 km/h (0 Bft)
23.10.2019 09:33 6,7 °C 96 % 1016,4 hPa 0,0 mm 0,0 km/h (0 Bft) S 191 ° 0 min 0,000 mm 0,6 UV-I 102 W/m² 6,1 °C 6,7 °C 0,0 km/h (0 Bft)
23.10.2019 09:34 6,7 °C 96 % 1016,4 hPa 0,0 mm 0,0 km/h (0 Bft) S 191 ° 0 min 0,000 mm 0,6 UV-I 102 W/m² 6,1 °C 6,7 °C 0,0 km/h (0 Bft)
23.10.2019 09:35 6,7 °C 96 % 1016,4 hPa 0,0 mm 0,0 km/h (0 Bft) S 191 ° 0 min 0,000 mm 0,6 UV-I 116 W/m² 6,1 °C 6,7 °C 0,0 km/h (0 Bft)
23.10.2019 09:36 6,8 °C 96 % 1016,4 hPa 0,0 mm 0,0 km/h (0 Bft) S 191 ° 0 min 0,000 mm 0,6 UV-I 111 W/m² 6,2 °C 6,8 °C 0,0 km/h (0 Bft)
23.10.2019 09:37 6,8 °C 96 % 1016,4 hPa 0,0 mm 0,0 km/h (0 Bft) S 191 ° 0 min 0,000 mm 0,6 UV-I 100 W/m² 6,2 °C 6,8 °C 0,0 km/h (0 Bft)
23.10.2019 09:38 6,9 °C 96 % 1016,4 hPa 0,0 mm 0,0 km/h (0 Bft) S 191 ° 0 min 0,000 mm 0,6 UV-I 91 W/m² 6,3 °C 6,9 °C 0,0 km/h (0 Bft)
23.10.2019 09:39 6,9 °C 96 % 1016,4 hPa 0,0 mm 0,0 km/h (0 Bft) S 191 ° 0 min 0,000 mm 0,6 UV-I 93 W/m² 6,3 °C 6,9 °C 0,0 km/h (0 Bft)
23.10.2019 09:40 6,9 °C 96 % 1016,4 hPa 0,0 mm 0,0 km/h (0 Bft) S 191 ° 0 min 0,000 mm 0,6 UV-I 91 W/m² 6,3 °C 6,9 °C 0,0 km/h (0 Bft)
23.10.2019 09:41 6,9 °C 96 % 1016,4 hPa 0,0 mm 0,0 km/h (0 Bft) S 191 ° 0 min 0,000 mm 0,6 UV-I 90 W/m² 6,3 °C 6,9 °C 0,0 km/h (0 Bft)
23.10.2019 09:42 6,9 °C 97 % 1016,3 hPa 0,0 mm 0,0 km/h (0 Bft) S 191 ° 0 min 0,000 mm 0,6 UV-I 98 W/m² 6,5 °C 6,9 °C 0,0 km/h (0 Bft)
23.10.2019 09:43 7,0 °C 97 % 1016,3 hPa 0,0 mm 0,0 km/h (0 Bft) S 191 ° 0 min 0,000 mm 0,6 UV-I 107 W/m² 6,6 °C 7,0 °C 0,0 km/h (0 Bft)
23.10.2019 09:44 7,1 °C 97 % 1016,3 hPa 0,0 mm 0,0 km/h (0 Bft) S 191 ° 0 min 0,000 mm 0,7 UV-I 116 W/m² 6,7 °C 7,1 °C 0,0 km/h (0 Bft)
23.10.2019 09:45 7,1 °C 97 % 1016,3 hPa 0,0 mm 0,0 km/h (0 Bft) S 191 ° 0 min 0,000 mm 0,7 UV-I 120 W/m² 6,7 °C 7,1 °C 0,0 km/h (0 Bft)
23.10.2019 09:46 7,1 °C 97 % 1016,3 hPa 0,0 mm 0,0 km/h (0 Bft) S 191 ° 0 min 0,000 mm 0,7 UV-I 116 W/m² 6,7 °C 7,1 °C 0,0 km/h (0 Bft)
23.10.2019 09:47 7,2 °C 97 % 1016,3 hPa 0,0 mm 0,0 km/h (0 Bft) S 191 ° 0 min 0,000 mm 0,7 UV-I 113 W/m² 6,8 °C 7,2 °C 0,0 km/h (0 Bft)
23.10.2019 09:48 7,2 °C 97 % 1016,2 hPa 0,0 mm 0,0 km/h (0 Bft) S 191 ° 0 min 0,000 mm 0,7 UV-I 118 W/m² 6,8 °C 7,2 °C 0,0 km/h (0 Bft)
23.10.2019 09:49 7,3 °C 96 % 1016,2 hPa 0,0 mm 0,0 km/h (0 Bft) S 191 ° 0 min 0,000 mm 0,7 UV-I 116 W/m² 6,7 °C 7,3 °C 0,0 km/h (0 Bft)
23.10.2019 09:50 7,3 °C 97 % 1016,2 hPa 0,0 mm 0,0 km/h (0 Bft) S 191 ° 0 min 0,000 mm 0,7 UV-I 127 W/m² 6,9 °C 7,3 °C 0,0 km/h (0 Bft)
23.10.2019 09:51 7,2 °C 97 % 1016,2 hPa 0,0 mm 0,0 km/h (0 Bft) S 191 ° 0 min 0,000 mm 0,7 UV-I 128 W/m² 6,8 °C 7,2 °C 0,0 km/h (0 Bft)
23.10.2019 09:52 7,2 °C 96 % 1016,2 hPa 0,0 mm 0,0 km/h (0 Bft) S 191 ° 0 min 0,000 mm 0,7 UV-I 132 W/m² 6,6 °C 7,2 °C 0,0 km/h (0 Bft)
23.10.2019 09:53 7,2 °C 97 % 1016,2 hPa 0,0 mm 0,0 km/h (0 Bft) S 191 ° 0 min 0,000 mm 0,7 UV-I 128 W/m² 6,8 °C 7,2 °C 0,0 km/h (0 Bft)
23.10.2019 09:54 7,2 °C 97 % 1016,1 hPa 0,0 mm 0,0 km/h (0 Bft) S 191 ° 0 min 0,000 mm 0,8 UV-I 132 W/m² 6,8 °C 7,2 °C 0,0 km/h (0 Bft)
23.10.2019 09:55 7,3 °C 96 % 1016,1 hPa 0,0 mm 0,0 km/h (0 Bft) S 191 ° 0 min 0,000 mm 0,8 UV-I 134 W/m² 6,7 °C 7,3 °C 0,0 km/h (0 Bft)
23.10.2019 09:56 7,3 °C 96 % 1016,1 hPa 0,0 mm 0,0 km/h (0 Bft) S 191 ° 0 min 0,000 mm 0,8 UV-I 135 W/m² 6,7 °C 7,3 °C 0,0 km/h (0 Bft)
23.10.2019 09:57 7,3 °C 96 % 1016,1 hPa 0,0 mm 0,0 km/h (0 Bft) S 191 ° 0 min 0,000 mm 0,8 UV-I 142 W/m² 6,7 °C 7,3 °C 0,0 km/h (0 Bft)
23.10.2019 09:58 7,3 °C 97 % 1016,1 hPa 0,0 mm 0,0 km/h (0 Bft) S 191 ° 0 min 0,000 mm 0,8 UV-I 148 W/m² 6,9 °C 7,3 °C 0,0 km/h (0 Bft)
23.10.2019 09:59 7,4 °C 97 % 1016,1 hPa 0,0 mm 0,0 km/h (0 Bft) S 191 ° 0 min 0,000 mm 0,8 UV-I 142 W/m² 7,0 °C 7,4 °C 0,0 km/h (0 Bft)
23.10.2019 10:00 7,4 °C 97 % 1016,1 hPa 0,0 mm 0,0 km/h (0 Bft) S 191 ° 0 min 0,051 mm 0,8 UV-I 139 W/m² 7,0 °C 7,4 °C 0,0 km/h (0 Bft)
23.10.2019 10:01 7,6 °C 97 % 1016,1 hPa 0,0 mm 0,0 km/h (0 Bft) S 191 ° 0 min 0,000 mm 0,8 UV-I 130 W/m² 7,2 °C 7,6 °C 0,0 km/h (0 Bft)
23.10.2019 10:02 7,6 °C 97 % 1016,1 hPa 0,0 mm 0,0 km/h (0 Bft) S 191 ° 0 min 0,000 mm 0,8 UV-I 130 W/m² 7,2 °C 7,6 °C 0,0 km/h (0 Bft)
23.10.2019 10:03 7,6 °C 97 % 1016,2 hPa 0,0 mm 0,0 km/h (0 Bft) S 191 ° 0 min 0,000 mm 0,8 UV-I 134 W/m² 7,2 °C 7,6 °C 0,0 km/h (0 Bft)
23.10.2019 10:04 7,5 °C 97 % 1016,1 hPa 0,0 mm 0,0 km/h (0 Bft) S 191 ° 0 min 0,000 mm 0,8 UV-I 132 W/m² 7,1 °C 7,5 °C 0,0 km/h (0 Bft)
23.10.2019 10:05 7,5 °C 97 % 1016,1 hPa 0,0 mm 0,0 km/h (0 Bft) S 191 ° 0 min 0,000 mm 0,8 UV-I 135 W/m² 7,1 °C 7,5 °C 0,0 km/h (0 Bft)
23.10.2019 10:06 7,5 °C 97 % 1016,1 hPa 0,0 mm 0,0 km/h (0 Bft) S 191 ° 0 min 0,000 mm 0,8 UV-I 137 W/m² 7,1 °C 7,5 °C 0,0 km/h (0 Bft)
23.10.2019 10:07 7,5 °C 97 % 1016,2 hPa 0,0 mm 0,0 km/h (0 Bft) S 191 ° 0 min 0,000 mm 0,8 UV-I 149 W/m² 7,1 °C 7,5 °C 0,0 km/h (0 Bft)
23.10.2019 10:08 7,4 °C 97 % 1016,1 hPa 0,0 mm 0,0 km/h (0 Bft) S 191 ° 0 min 0,000 mm 0,8 UV-I 153 W/m² 7,0 °C 7,4 °C 0,0 km/h (0 Bft)
23.10.2019 10:09 7,5 °C 97 % 1016,1 hPa 0,0 mm 0,0 km/h (0 Bft) S 191 ° 0 min 0,000 mm 0,8 UV-I 146 W/m² 7,1 °C 7,5 °C 0,0 km/h (0 Bft)
23.10.2019 10:10 7,5 °C 97 % 1016,0 hPa 0,0 mm 0,0 km/h (0 Bft) S 191 ° 0 min 0,000 mm 0,8 UV-I 132 W/m² 7,1 °C 7,5 °C 0,0 km/h (0 Bft)
23.10.2019 10:11 7,5 °C 97 % 1016,0 hPa 0,0 mm 0,0 km/h (0 Bft) S 191 ° 0 min 0,000 mm 0,9 UV-I 139 W/m² 7,1 °C 7,5 °C 0,0 km/h (0 Bft)
23.10.2019 10:12 7,6 °C 96 % 1016,1 hPa 0,0 mm 0,0 km/h (0 Bft) S 191 ° 0 min 0,000 mm 0,8 UV-I 139 W/m² 7,0 °C 7,6 °C 0,0 km/h (0 Bft)
23.10.2019 10:13 7,6 °C 96 % 1016,1 hPa 0,0 mm 0,0 km/h (0 Bft) S 191 ° 0 min 0,000 mm 0,8 UV-I 148 W/m² 7,0 °C 7,6 °C 0,0 km/h (0 Bft)
23.10.2019 10:14 7,6 °C 97 % 1016,1 hPa 0,0 mm 0,0 km/h (0 Bft) S 191 ° 0 min 0,000 mm 0,8 UV-I 139 W/m² 7,2 °C 7,6 °C 0,0 km/h (0 Bft)
23.10.2019 10:15 7,7 °C 97 % 1016,1 hPa 0,0 mm 0,0 km/h (0 Bft) S 191 ° 0 min 0,000 mm 0,9 UV-I 142 W/m² 7,3 °C 7,7 °C 0,0 km/h (0 Bft)
23.10.2019 10:16 7,8 °C 97 % 1016,1 hPa 0,0 mm 0,0 km/h (0 Bft) S 191 ° 0 min 0,000 mm 0,9 UV-I 148 W/m² 7,4 °C 7,8 °C 0,0 km/h (0 Bft)
23.10.2019 10:17 7,9 °C 97 % 1016,1 hPa 0,0 mm 0,0 km/h (0 Bft) S 191 ° 0 min 0,000 mm 0,9 UV-I 142 W/m² 7,5 °C 7,9 °C 0,0 km/h (0 Bft)
23.10.2019 10:18 7,9 °C 97 % 1016,1 hPa 0,0 mm 0,0 km/h (0 Bft) S 191 ° 0 min 0,000 mm 0,9 UV-I 141 W/m² 7,5 °C 7,9 °C 0,0 km/h (0 Bft)
23.10.2019 10:19 7,8 °C 97 % 1016,0 hPa 0,0 mm 0,0 km/h (0 Bft) S 191 ° 0 min 0,000 mm 0,9 UV-I 141 W/m² 7,4 °C 7,8 °C 0,0 km/h (0 Bft)
23.10.2019 10:20 7,9 °C 97 % 1016,1 hPa 0,0 mm 0,0 km/h (0 Bft) S 191 ° 0 min 0,000 mm 0,9 UV-I 142 W/m² 7,5 °C 7,9 °C 0,0 km/h (0 Bft)
23.10.2019 10:21 7,9 °C 97 % 1016,0 hPa 0,0 mm 0,0 km/h (0 Bft) S 191 ° 0 min 0,000 mm 0,9 UV-I 146 W/m² 7,5 °C 7,9 °C 0,0 km/h (0 Bft)
23.10.2019 10:22 8,1 °C 97 % 1015,9 hPa 0,0 mm 0,0 km/h (0 Bft) S 191 ° 0 min 0,000 mm 0,9 UV-I 151 W/m² 7,7 °C 8,1 °C 0,0 km/h (0 Bft)
23.10.2019 10:23 8,1 °C 97 % 1015,9 hPa 0,0 mm 0,0 km/h (0 Bft) S 191 ° 0 min 0,000 mm 0,9 UV-I 156 W/m² 7,7 °C 8,1 °C 0,0 km/h (0 Bft)
23.10.2019 10:24 8,2 °C 97 % 1016,0 hPa 0,0 mm 0,0 km/h (0 Bft) S 191 ° 0 min 0,000 mm 0,9 UV-I 155 W/m² 7,8 °C 8,2 °C 0,0 km/h (0 Bft)
23.10.2019 10:25 8,1 °C 97 % 1016,0 hPa 0,0 mm 0,0 km/h (0 Bft) S 191 ° 0 min 0,000 mm 0,9 UV-I 153 W/m² 7,7 °C 8,1 °C 0,0 km/h (0 Bft)
23.10.2019 10:26 8,1 °C 97 % 1016,0 hPa 0,0 mm 0,0 km/h (0 Bft) S 191 ° 0 min 0,000 mm 0,9 UV-I 155 W/m² 7,7 °C 8,1 °C 0,0 km/h (0 Bft)
23.10.2019 10:27 8,1 °C 97 % 1016,0 hPa 0,0 mm 0,0 km/h (0 Bft) S 191 ° 0 min 0,000 mm 0,9 UV-I 158 W/m² 7,7 °C 8,1 °C 0,0 km/h (0 Bft)
23.10.2019 10:28 8,2 °C 97 % 1015,9 hPa 0,0 mm 0,0 km/h (0 Bft) S 191 ° 0 min 0,000 mm 1,0 UV-I 162 W/m² 7,8 °C 8,2 °C 0,0 km/h (0 Bft)
23.10.2019 10:29 8,2 °C 97 % 1015,9 hPa 0,0 mm 0,0 km/h (0 Bft) S 191 ° 0 min 0,000 mm 1,0 UV-I 165 W/m² 7,8 °C 8,2 °C 0,0 km/h (0 Bft)
23.10.2019 10:30 8,1 °C 97 % 1015,8 hPa 0,0 mm 0,0 km/h (0 Bft) S 191 ° 0 min 0,000 mm 1,0 UV-I 160 W/m² 7,7 °C 8,1 °C 0,0 km/h (0 Bft)
23.10.2019 10:31 8,3 °C 97 % 1015,8 hPa 0,0 mm 0,0 km/h (0 Bft) S 191 ° 0 min 0,000 mm 1,0 UV-I 167 W/m² 7,9 °C 8,3 °C 0,0 km/h (0 Bft)
23.10.2019 10:32 8,3 °C 97 % 1015,8 hPa 0,0 mm 0,0 km/h (0 Bft) S 191 ° 0 min 0,000 mm 1,0 UV-I 156 W/m² 7,9 °C 8,3 °C 0,0 km/h (0 Bft)
23.10.2019 10:33 8,4 °C 97 % 1015,8 hPa 0,0 mm 0,0 km/h (0 Bft) S 191 ° 0 min 0,000 mm 1,0 UV-I 153 W/m² 8,0 °C 8,4 °C 0,0 km/h (0 Bft)
23.10.2019 10:34 8,4 °C 97 % 1015,8 hPa 0,0 mm 0,0 km/h (0 Bft) S 191 ° 0 min 0,000 mm 1,0 UV-I 153 W/m² 8,0 °C 8,4 °C 0,0 km/h (0 Bft)
23.10.2019 10:35 8,4 °C 97 % 1015,8 hPa 0,0 mm 0,0 km/h (0 Bft) S 191 ° 0 min 0,000 mm 1,0 UV-I 149 W/m² 8,0 °C 8,4 °C 0,0 km/h (0 Bft)
23.10.2019 10:36 8,5 °C 97 % 1015,8 hPa 0,2 mm 0,0 km/h (0 Bft) S 186 ° 0 min 0,000 mm 1,0 UV-I 151 W/m² 8,1 °C 8,5 °C 0,0 km/h (0 Bft)
23.10.2019 10:37 8,4 °C 97 % 1015,8 hPa 0,0 mm 0,0 km/h (0 Bft) NO 53 ° 0 min 0,000 mm 1,0 UV-I 146 W/m² 8,0 °C 8,4 °C 0,0 km/h (0 Bft)
23.10.2019 10:38 8,4 °C 97 % 1015,8 hPa 0,0 mm 0,0 km/h (0 Bft) NO 53 ° 0 min 0,000 mm 1,0 UV-I 163 W/m² 8,0 °C 8,4 °C 0,0 km/h (0 Bft)
23.10.2019 10:39 8,5 °C 97 % 1015,8 hPa 0,0 mm 0,0 km/h (0 Bft) NO 53 ° 0 min 0,000 mm 1,1 UV-I 172 W/m² 8,1 °C 8,5 °C 0,0 km/h (0 Bft)
23.10.2019 10:40 8,6 °C 97 % 1015,7 hPa 0,0 mm 0,0 km/h (0 Bft) NO 53 ° 0 min 0,000 mm 1,1 UV-I 165 W/m² 8,2 °C 8,6 °C 0,0 km/h (0 Bft)
23.10.2019 10:41 8,6 °C 97 % 1015,8 hPa 0,0 mm 0,0 km/h (0 Bft) NO 53 ° 0 min 0,000 mm 1,1 UV-I 155 W/m² 8,2 °C 8,6 °C 0,0 km/h (0 Bft)
23.10.2019 10:42 8,5 °C 97 % 1015,7 hPa 0,0 mm 0,0 km/h (0 Bft) NO 53 ° 0 min 0,000 mm 1,1 UV-I 149 W/m² 8,1 °C 8,5 °C 0,0 km/h (0 Bft)
23.10.2019 10:43 8,6 °C 97 % 1015,7 hPa 0,0 mm 0,0 km/h (0 Bft) NO 53 ° 0 min 0,000 mm 1,1 UV-I 162 W/m² 8,2 °C 8,6 °C 0,0 km/h (0 Bft)
23.10.2019 10:44 8,7 °C 97 % 1015,6 hPa 0,0 mm 0,0 km/h (0 Bft) NO 53 ° 0 min 0,000 mm 1,2 UV-I 174 W/m² 8,3 °C 8,7 °C 0,0 km/h (0 Bft)
23.10.2019 10:45 8,7 °C 97 % 1015,7 hPa 0,0 mm 0,0 km/h (0 Bft) NO 53 ° 0 min 0,000 mm 1,2 UV-I 185 W/m² 8,3 °C 8,7 °C 0,0 km/h (0 Bft)
23.10.2019 10:46 8,7 °C 97 % 1015,7 hPa 0,0 mm 0,0 km/h (0 Bft) NO 53 ° 0 min 0,000 mm 1,1 UV-I 165 W/m² 8,3 °C 8,7 °C 0,0 km/h (0 Bft)
23.10.2019 10:47 8,7 °C 97 % 1015,7 hPa 0,0 mm 0,0 km/h (0 Bft) NO 53 ° 0 min 0,000 mm 1,1 UV-I 153 W/m² 8,3 °C 8,7 °C 0,0 km/h (0 Bft)
23.10.2019 10:48 8,8 °C 97 % 1015,7 hPa 0,0 mm 0,0 km/h (0 Bft) NO 53 ° 0 min 0,000 mm 1,2 UV-I 144 W/m² 8,4 °C 8,8 °C 0,0 km/h (0 Bft)
23.10.2019 10:49 8,8 °C 97 % 1015,6 hPa 0,0 mm 0,0 km/h (0 Bft) NO 53 ° 0 min 0,000 mm 1,2 UV-I 151 W/m² 8,4 °C 8,8 °C 0,0 km/h (0 Bft)
23.10.2019 10:50 8,8 °C 97 % 1015,5 hPa 0,0 mm 0,0 km/h (0 Bft) NO 53 ° 0 min 0,000 mm 1,2 UV-I 155 W/m² 8,4 °C 8,8 °C 0,0 km/h (0 Bft)
23.10.2019 10:51 8,8 °C 97 % 1015,5 hPa 0,0 mm 0,0 km/h (0 Bft) NO 53 ° 0 min 0,000 mm 1,2 UV-I 156 W/m² 8,4 °C 8,8 °C 0,0 km/h (0 Bft)
23.10.2019 10:52 8,9 °C 97 % 1015,6 hPa 0,0 mm 0,0 km/h (0 Bft) NO 53 ° 0 min 0,000 mm 1,2 UV-I 188 W/m² 8,4 °C 8,9 °C 0,0 km/h (0 Bft)
23.10.2019 10:53 8,9 °C 97 % 1015,6 hPa 0,0 mm 0,0 km/h (0 Bft) NO 53 ° 0 min 0,000 mm 1,2 UV-I 183 W/m² 8,4 °C 8,9 °C 0,0 km/h (0 Bft)
23.10.2019 10:54 8,9 °C 97 % 1015,6 hPa 0,0 mm 0,0 km/h (0 Bft) NO 53 ° 0 min 0,000 mm 1,2 UV-I 181 W/m² 8,4 °C 8,9 °C 0,0 km/h (0 Bft)
23.10.2019 10:55 9,1 °C 97 % 1015,6 hPa 0,0 mm 0,0 km/h (0 Bft) NO 53 ° 0 min 0,000 mm 1,3 UV-I 183 W/m² 8,6 °C 9,1 °C 0,0 km/h (0 Bft)
23.10.2019 10:56 9,2 °C 97 % 1015,5 hPa 0,0 mm 0,0 km/h (0 Bft) NO 53 ° 0 min 0,000 mm 1,3 UV-I 186 W/m² 8,7 °C 9,2 °C 0,0 km/h (0 Bft)
23.10.2019 10:57 9,2 °C 97 % 1015,5 hPa 0,0 mm 0,0 km/h (0 Bft) NO 53 ° 0 min 0,000 mm 1,3 UV-I 174 W/m² 8,7 °C 9,2 °C 0,0 km/h (0 Bft)
23.10.2019 10:58 9,2 °C 97 % 1015,5 hPa 0,0 mm 0,0 km/h (0 Bft) NO 53 ° 0 min 0,000 mm 1,3 UV-I 181 W/m² 8,7 °C 9,2 °C 0,0 km/h (0 Bft)
23.10.2019 10:59 9,2 °C 97 % 1015,4 hPa 0,0 mm 0,0 km/h (0 Bft) NO 53 ° 0 min 0,000 mm 1,3 UV-I 195 W/m² 8,7 °C 9,2 °C 0,0 km/h (0 Bft)
23.10.2019 11:00 9,3 °C 97 % 1015,5 hPa 0,0 mm 0,0 km/h (0 Bft) NO 53 ° 0 min 0,000 mm 1,3 UV-I 179 W/m² 8,8 °C 9,3 °C 0,0 km/h (0 Bft)
23.10.2019 11:01 9,4 °C 97 % 1015,3 hPa 0,0 mm 0,0 km/h (0 Bft) NO 53 ° 0 min 0,076 mm 1,3 UV-I 174 W/m² 8,9 °C 9,4 °C 0,0 km/h (0 Bft)
23.10.2019 11:02 9,4 °C 97 % 1015,3 hPa 0,0 mm 0,0 km/h (0 Bft) NO 53 ° 0 min 0,000 mm 1,3 UV-I 163 W/m² 8,9 °C 9,4 °C 0,0 km/h (0 Bft)
23.10.2019 11:03 9,6 °C 97 % 1015,4 hPa 0,0 mm 0,0 km/h (0 Bft) NO 53 ° 0 min 0,000 mm 1,3 UV-I 165 W/m² 9,1 °C 9,6 °C 0,0 km/h (0 Bft)
23.10.2019 11:04 9,7 °C 97 % 1015,3 hPa 0,0 mm 0,0 km/h (0 Bft) NO 53 ° 0 min 0,000 mm 1,3 UV-I 171 W/m² 9,2 °C 9,7 °C 0,0 km/h (0 Bft)
23.10.2019 11:05 9,6 °C 97 % 1015,3 hPa 0,0 mm 0,0 km/h (0 Bft) NO 53 ° 0 min 0,000 mm 1,3 UV-I 172 W/m² 9,1 °C 9,6 °C 0,0 km/h (0 Bft)
23.10.2019 11:06 9,6 °C 97 % 1015,3 hPa 0,0 mm 0,0 km/h (0 Bft) NO 53 ° 0 min 0,000 mm 1,3 UV-I 156 W/m² 9,1 °C 9,6 °C 0,0 km/h (0 Bft)
23.10.2019 11:07 9,6 °C 97 % 1015,3 hPa 0,0 mm 0,0 km/h (0 Bft) NO 53 ° 0 min 0,000 mm 1,3 UV-I 153 W/m² 9,1 °C 9,6 °C 0,0 km/h (0 Bft)
23.10.2019 11:08 9,7 °C 97 % 1015,3 hPa 0,0 mm 0,0 km/h (0 Bft) NO 53 ° 0 min 0,000 mm 1,4 UV-I 174 W/m² 9,2 °C 9,7 °C 0,0 km/h (0 Bft)
23.10.2019 11:09 9,7 °C 97 % 1015,2 hPa 0,0 mm 0,0 km/h (0 Bft) NO 53 ° 0 min 0,000 mm 1,4 UV-I 171 W/m² 9,2 °C 9,7 °C 0,0 km/h (0 Bft)
23.10.2019 11:10 9,8 °C 97 % 1015,2 hPa 0,0 mm 0,0 km/h (0 Bft) NO 53 ° 0 min 0,000 mm 1,4 UV-I 142 W/m² 9,3 °C 9,8 °C 0,0 km/h (0 Bft)
23.10.2019 11:11 9,9 °C 97 % 1015,1 hPa 0,0 mm 0,0 km/h (0 Bft) NO 53 ° 0 min 0,000 mm 1,3 UV-I 128 W/m² 9,4 °C 9,9 °C 0,0 km/h (0 Bft)
23.10.2019 11:12 9,9 °C 97 % 1015,2 hPa 0,0 mm 0,0 km/h (0 Bft) NO 53 ° 0 min 0,000 mm 1,3 UV-I 104 W/m² 9,4 °C 9,9 °C 0,0 km/h (0 Bft)
23.10.2019 11:13 9,9 °C 97 % 1015,2 hPa 0,0 mm 0,0 km/h (0 Bft) NO 53 ° 0 min 0,000 mm 1,3 UV-I 86 W/m² 9,4 °C 9,9 °C 0,0 km/h (0 Bft)
23.10.2019 11:14 9,9 °C 97 % 1015,1 hPa 0,0 mm 0,0 km/h (0 Bft) NO 53 ° 0 min 0,000 mm 0,0 UV-I 54 W/m² 9,4 °C 9,9 °C 0,0 km/h (0 Bft)
23.10.2019 11:15 9,8 °C 97 % 1014,9 hPa 0,0 mm 0,0 km/h (0 Bft) NO 53 ° 0 min 0,000 mm 0,0 UV-I 42 W/m² 9,3 °C 9,8 °C 0,0 km/h (0 Bft)
23.10.2019 11:16 9,8 °C 97 % 1014,9 hPa 0,0 mm 0,0 km/h (0 Bft) NO 53 ° 0 min 0,000 mm 0,0 UV-I 40 W/m² 9,3 °C 9,8 °C 0,0 km/h (0 Bft)
23.10.2019 11:17 9,8 °C 97 % 1015,0 hPa 0,0 mm 0,0 km/h (0 Bft) NO 53 ° 0 min 0,000 mm 0,0 UV-I 39 W/m² 9,3 °C 9,8 °C 0,0 km/h (0 Bft)
23.10.2019 11:18 9,7 °C 97 % 1015,0 hPa 0,0 mm 0,0 km/h (0 Bft) NO 53 ° 0 min 0,000 mm 0,0 UV-I 37 W/m² 9,2 °C 9,7 °C 0,0 km/h (0 Bft)
23.10.2019 11:19 9,8 °C 97 % 1015,0 hPa 0,0 mm 0,0 km/h (0 Bft) NO 53 ° 0 min 0,000 mm 0,0 UV-I 35 W/m² 9,3 °C 9,8 °C 0,0 km/h (0 Bft)
23.10.2019 11:20 9,8 °C 97 % 1014,9 hPa 0,0 mm 0,0 km/h (0 Bft) NO 53 ° 0 min 0,000 mm 0,0 UV-I 35 W/m² 9,3 °C 9,8 °C 0,0 km/h (0 Bft)
23.10.2019 11:21 9,9 °C 97 % 1014,9 hPa 0,0 mm 0,0 km/h (0 Bft) NO 53 ° 0 min 0,000 mm 0,0 UV-I 35 W/m² 9,4 °C 9,9 °C 0,0 km/h (0 Bft)
23.10.2019 11:22 10,1 °C 97 % 1014,9 hPa 0,0 mm 0,0 km/h (0 Bft) NO 53 ° 0 min 0,000 mm 0,0 UV-I 35 W/m² 9,6 °C 10,1 °C 0,0 km/h (0 Bft)
23.10.2019 11:23 10,2 °C 97 % 1014,9 hPa 0,0 mm 0,3 km/h (0 Bft) W 263 ° 0 min 0,000 mm 0,0 UV-I 35 W/m² 9,7 °C 10,2 °C 3,2 km/h (1 Bft)
23.10.2019 11:24 10,3 °C 97 % 1014,9 hPa 0,0 mm 3,7 km/h (1 Bft) W 263 ° 0 min 0,000 mm 0,0 UV-I 35 W/m² 9,8 °C 10,3 °C 6,4 km/h (2 Bft)
23.10.2019 11:25 10,6 °C 97 % 1014,9 hPa 0,0 mm 1,1 km/h (1 Bft) W 263 ° 0 min 0,000 mm 0,0 UV-I 35 W/m² 10,1 °C 10,6 °C 1,6 km/h (1 Bft)
23.10.2019 11:26 10,6 °C 97 % 1014,9 hPa 0,0 mm 0,0 km/h (0 Bft) W 263 ° 0 min 0,000 mm 0,0 UV-I 37 W/m² 10,1 °C 10,6 °C 0,0 km/h (0 Bft)
23.10.2019 11:27 10,6 °C 97 % 1014,9 hPa 0,0 mm 0,0 km/h (0 Bft) W 263 ° 0 min 0,000 mm 0,0 UV-I 35 W/m² 10,1 °C 10,6 °C 0,0 km/h (0 Bft)
23.10.2019 11:28 10,6 °C 97 % 1014,9 hPa 0,0 mm 0,0 km/h (0 Bft) W 263 ° 0 min 0,000 mm 0,0 UV-I 35 W/m² 10,1 °C 10,6 °C 0,0 km/h (0 Bft)
23.10.2019 11:29 10,7 °C 97 % 1014,9 hPa 0,0 mm 0,2 km/h (0 Bft) W 263 ° 0 min 0,000 mm 0,0 UV-I 35 W/m² 10,2 °C 10,7 °C 1,6 km/h (1 Bft)
23.10.2019 11:30 10,8 °C 97 % 1014,9 hPa 0,0 mm 0,0 km/h (0 Bft) W 263 ° 0 min 0,000 mm 0,0 UV-I 33 W/m² 10,3 °C 10,8 °C 0,0 km/h (0 Bft)
23.10.2019 11:31 11,0 °C 97 % 1014,9 hPa 0,0 mm 0,0 km/h (0 Bft) W 263 ° 0 min 0,000 mm 0,0 UV-I 33 W/m² 10,5 °C 11,0 °C 0,0 km/h (0 Bft)
23.10.2019 11:32 11,1 °C 97 % 1014,8 hPa 0,0 mm 0,0 km/h (0 Bft) W 263 ° 0 min 0,000 mm 0,0 UV-I 33 W/m² 10,6 °C 11,1 °C 0,0 km/h (0 Bft)
23.10.2019 11:33 11,2 °C 97 % 1014,8 hPa 0,0 mm 0,0 km/h (0 Bft) W 263 ° 0 min 0,000 mm 0,0 UV-I 44 W/m² 10,7 °C 11,2 °C 0,0 km/h (0 Bft)
23.10.2019 11:34 11,4 °C 97 % 1014,8 hPa 0,0 mm 0,0 km/h (0 Bft) W 263 ° 0 min 0,000 mm 1,4 UV-I 60 W/m² 10,9 °C 11,4 °C 0,0 km/h (0 Bft)
23.10.2019 11:35 11,5 °C 97 % 1014,8 hPa 0,0 mm 0,0 km/h (0 Bft) W 263 ° 0 min 0,000 mm 1,4 UV-I 125 W/m² 11,0 °C 11,5 °C 0,0 km/h (0 Bft)
23.10.2019 11:36 11,7 °C 97 % 1014,8 hPa 0,0 mm 0,0 km/h (0 Bft) W 263 ° 0 min 0,000 mm 1,6 UV-I 169 W/m² 11,2 °C 11,7 °C 0,0 km/h (0 Bft)
23.10.2019 11:37 11,8 °C 97 % 1014,8 hPa 0,0 mm 0,0 km/h (0 Bft) W 263 ° 0 min 0,000 mm 1,6 UV-I 158 W/m² 11,3 °C 11,8 °C 0,0 km/h (0 Bft)
23.10.2019 11:38 11,9 °C 97 % 1014,8 hPa 0,0 mm 0,0 km/h (0 Bft) W 263 ° 0 min 0,000 mm 1,5 UV-I 104 W/m² 11,4 °C 11,9 °C 0,0 km/h (0 Bft)
23.10.2019 11:39 11,9 °C 97 % 1014,8 hPa 0,0 mm 0,0 km/h (0 Bft) W 263 ° 0 min 0,000 mm 1,4 UV-I 58 W/m² 11,4 °C 11,9 °C 0,0 km/h (0 Bft)
23.10.2019 11:40 12,1 °C 97 % 1014,8 hPa 0,0 mm 0,0 km/h (0 Bft) W 263 ° 0 min 0,000 mm 1,4 UV-I 58 W/m² 11,6 °C 12,1 °C 0,0 km/h (0 Bft)
23.10.2019 11:41 12,2 °C 97 % 1014,7 hPa 0,0 mm 0,0 km/h (0 Bft) S-SO 147 ° 0 min 0,000 mm 0,0 UV-I 49 W/m² 11,7 °C 12,2 °C 0,0 km/h (0 Bft)
23.10.2019 11:42 12,2 °C 97 % 1014,7 hPa 0,0 mm 0,0 km/h (0 Bft) S-SO 147 ° 0 min 0,000 mm 1,4 UV-I 58 W/m² 11,7 °C 12,2 °C 0,0 km/h (0 Bft)
23.10.2019 11:43 12,2 °C 97 % 1014,6 hPa 0,0 mm 0,0 km/h (0 Bft) S-SO 147 ° 0 min 0,000 mm 1,4 UV-I 98 W/m² 11,7 °C 12,2 °C 0,0 km/h (0 Bft)
23.10.2019 11:44 12,3 °C 97 % 1014,7 hPa 0,0 mm 0,0 km/h (0 Bft) S-SO 147 ° 0 min 0,000 mm 1,4 UV-I 174 W/m² 11,8 °C 12,3 °C 0,0 km/h (0 Bft)
23.10.2019 11:45 12,3 °C 97 % 1014,7 hPa 0,0 mm 0,0 km/h (0 Bft) S-SO 147 ° 0 min 0,000 mm 1,8 UV-I 156 W/m² 11,8 °C 12,3 °C 0,0 km/h (0 Bft)
23.10.2019 11:46 12,3 °C 97 % 1014,6 hPa 0,0 mm 0,0 km/h (0 Bft) S-SO 147 ° 0 min 0,000 mm 1,7 UV-I 185 W/m² 11,8 °C 12,3 °C 0,0 km/h (0 Bft)
23.10.2019 11:47 12,3 °C 97 % 1014,7 hPa 0,0 mm 0,0 km/h (0 Bft) S-SO 147 ° 0 min 0,000 mm 1,9 UV-I 267 W/m² 11,8 °C 12,3 °C 0,0 km/h (0 Bft)
23.10.2019 11:48 12,4 °C 97 % 1014,7 hPa 0,0 mm 0,0 km/h (0 Bft) S-SO 147 ° 0 min 0,000 mm 2,1 UV-I 338 W/m² 11,9 °C 12,4 °C 0,0 km/h (0 Bft)
23.10.2019 11:49 12,5 °C 97 % 1014,7 hPa 0,0 mm 0,0 km/h (0 Bft) S-SO 147 ° 0 min 0,000 mm 2,1 UV-I 318 W/m² 12,0 °C 12,5 °C 0,0 km/h (0 Bft)
23.10.2019 11:50 12,5 °C 97 % 1014,6 hPa 0,0 mm 0,0 km/h (0 Bft) S-SO 147 ° 0 min 0,000 mm 1,8 UV-I 318 W/m² 12,0 °C 12,5 °C 0,0 km/h (0 Bft)
23.10.2019 11:51 12,5 °C 97 % 1014,6 hPa 0,0 mm 0,0 km/h (0 Bft) S-SO 147 ° 0 min 0,000 mm 0,0 UV-I 35 W/m² 12,0 °C 12,5 °C 0,0 km/h (0 Bft)
23.10.2019 11:52 12,5 °C 97 % 1014,6 hPa 0,0 mm 0,0 km/h (0 Bft) S-SO 147 ° 0 min 0,000 mm 0,0 UV-I 37 W/m² 12,0 °C 12,5 °C 0,0 km/h (0 Bft)
23.10.2019 11:53 12,6 °C 97 % 1014,7 hPa 0,0 mm 0,0 km/h (0 Bft) S-SO 147 ° 0 min 0,000 mm 1,5 UV-I 102 W/m² 12,1 °C 12,6 °C 0,0 km/h (0 Bft)
23.10.2019 11:54 12,4 °C 97 % 1014,6 hPa 0,0 mm 0,0 km/h (0 Bft) S-SO 147 ° 0 min 0,000 mm 1,9 UV-I 102 W/m² 11,9 °C 12,4 °C 0,0 km/h (0 Bft)
23.10.2019 11:55 12,5 °C 97 % 1014,7 hPa 0,0 mm 0,0 km/h (0 Bft) S-SO 147 ° 0 min 0,000 mm 2,4 UV-I 102 W/m² 12,0 °C 12,5 °C 0,0 km/h (0 Bft)
23.10.2019 11:56 12,5 °C 97 % 1014,7 hPa 0,0 mm 0,0 km/h (0 Bft) S-SO 147 ° 0 min 0,000 mm 2,5 UV-I 490 W/m² 12,0 °C 12,5 °C 0,0 km/h (0 Bft)
23.10.2019 11:57 12,5 °C 97 % 1014,6 hPa 0,0 mm 0,0 km/h (0 Bft) S-SO 147 ° 0 min 0,000 mm 2,5 UV-I 468 W/m² 12,0 °C 12,5 °C 0,0 km/h (0 Bft)
23.10.2019 11:58 12,6 °C 97 % 1014,6 hPa 0,0 mm 2,1 km/h (1 Bft) S-SO 147 ° 0 min 0,000 mm 2,4 UV-I 468 W/m² 12,1 °C 12,6 °C 4,8 km/h (1 Bft)
23.10.2019 11:59 12,6 °C 97 % 1014,6 hPa 0,0 mm 0,9 km/h (0 Bft) S-SO 147 ° 0 min 0,000 mm 2,5 UV-I 482 W/m² 12,1 °C 12,6 °C 3,2 km/h (1 Bft)
23.10.2019 12:00 12,7 °C 97 % 1014,6 hPa 0,0 mm 3,4 km/h (1 Bft) S-SO 147 ° 0 min 0,000 mm 2,5 UV-I 499 W/m² 12,2 °C 12,7 °C 4,8 km/h (1 Bft)
23.10.2019 12:01 12,6 °C 97 % 1014,6 hPa 0,0 mm 0,0 km/h (0 Bft) S-SO 147 ° 0 min 0,077 mm 2,5 UV-I 501 W/m² 12,1 °C 12,6 °C 0,0 km/h (0 Bft)
23.10.2019 12:02 12,6 °C 97 % 1014,6 hPa 0,0 mm 0,0 km/h (0 Bft) S-SO 147 ° 0 min 0,000 mm 2,5 UV-I 503 W/m² 12,1 °C 12,6 °C 0,0 km/h (0 Bft)
23.10.2019 12:03 12,6 °C 97 % 1014,6 hPa 0,0 mm 0,0 km/h (0 Bft) S-SO 147 ° 0 min 0,000 mm 2,5 UV-I 454 W/m² 12,1 °C 12,6 °C 0,0 km/h (0 Bft)
23.10.2019 12:04 12,7 °C 97 % 1014,6 hPa 0,0 mm 0,0 km/h (0 Bft) S-SO 147 ° 0 min 0,000 mm 2,4 UV-I 397 W/m² 12,2 °C 12,7 °C 0,0 km/h (0 Bft)
23.10.2019 12:05 12,8 °C 97 % 1014,6 hPa 0,0 mm 0,0 km/h (0 Bft) S-SO 147 ° 0 min 0,000 mm 2,1 UV-I 397 W/m² 12,3 °C 12,8 °C 0,0 km/h (0 Bft)
23.10.2019 12:06 12,8 °C 97 % 1014,6 hPa 0,0 mm 0,0 km/h (0 Bft) S-SO 147 ° 0 min 0,000 mm 1,7 UV-I 397 W/m² 12,3 °C 12,8 °C 0,0 km/h (0 Bft)
23.10.2019 12:07 12,9 °C 97 % 1014,5 hPa 0,0 mm 0,0 km/h (0 Bft) S-SO 147 ° 0 min 0,000 mm 1,5 UV-I 58 W/m² 12,4 °C 12,9 °C 0,0 km/h (0 Bft)
23.10.2019 12:08 13,0 °C 97 % 1014,5 hPa 0,0 mm 2,5 km/h (1 Bft) N-NO 22 ° 0 min 0,000 mm 0,0 UV-I 40 W/m² 12,5 °C 13,0 °C 4,8 km/h (1 Bft)
23.10.2019 12:09 13,1 °C 97 % 1014,5 hPa 0,0 mm 2,1 km/h (1 Bft) NO 53 ° 0 min 0,000 mm 1,5 UV-I 114 W/m² 12,6 °C 13,1 °C 4,8 km/h (1 Bft)
23.10.2019 12:10 13,2 °C 97 % 1014,6 hPa 0,0 mm 1,3 km/h (1 Bft) NO 53 ° 0 min 0,000 mm 2,0 UV-I 114 W/m² 12,7 °C 13,2 °C 3,2 km/h (1 Bft)
23.10.2019 12:11 13,3 °C 97 % 1014,5 hPa 0,0 mm 0,0 km/h (0 Bft) NO 53 ° 0 min 0,000 mm 2,5 UV-I 114 W/m² 12,8 °C 13,3 °C 0,0 km/h (0 Bft)
23.10.2019 12:12 13,4 °C 97 % 1014,5 hPa 0,0 mm 0,0 km/h (0 Bft) NO 53 ° 0 min 0,000 mm 2,6 UV-I 510 W/m² 12,9 °C 13,4 °C 0,0 km/h (0 Bft)
23.10.2019 12:13 13,5 °C 97 % 1014,4 hPa 0,0 mm 0,0 km/h (0 Bft) NO 53 ° 0 min 0,000 mm 2,7 UV-I 510 W/m² 13,0 °C 13,5 °C 0,0 km/h (0 Bft)
23.10.2019 12:14 13,7 °C 96 % 1014,4 hPa 0,0 mm 0,9 km/h (0 Bft) NO 51 ° 0 min 0,000 mm 2,7 UV-I 512 W/m² 13,1 °C 13,7 °C 3,2 km/h (1 Bft)
23.10.2019 12:15 13,8 °C 96 % 1014,4 hPa 0,0 mm 0,6 km/h (0 Bft) NO 51 ° 0 min 0,000 mm 2,7 UV-I 510 W/m² 13,2 °C 13,8 °C 3,2 km/h (1 Bft)
23.10.2019 12:16 14,0 °C 96 % 1014,5 hPa 0,0 mm 0,5 km/h (0 Bft) NO 52 ° 0 min 0,000 mm 2,8 UV-I 510 W/m² 13,4 °C 14,0 °C 1,6 km/h (1 Bft)
23.10.2019 12:17 14,0 °C 95 % 1014,4 hPa 0,0 mm 1,4 km/h (1 Bft) NO 52 ° 0 min 0,000 mm 2,8 UV-I 513 W/m² 13,2 °C 14,0 °C 3,2 km/h (1 Bft)
23.10.2019 12:18 13,9 °C 95 % 1014,4 hPa 0,0 mm 0,0 km/h (0 Bft) NO 52 ° 0 min 0,000 mm 2,8 UV-I 508 W/m² 13,1 °C 13,9 °C 0,0 km/h (0 Bft)
23.10.2019 12:19 14,0 °C 95 % 1014,4 hPa 0,0 mm 0,0 km/h (0 Bft) NO 52 ° 0 min 0,000 mm 2,7 UV-I 450 W/m² 13,2 °C 14,0 °C 0,0 km/h (0 Bft)
23.10.2019 12:20 14,1 °C 95 % 1014,4 hPa 0,0 mm 0,0 km/h (0 Bft) NO 52 ° 0 min 0,000 mm 2,7 UV-I 450 W/m² 13,3 °C 14,1 °C 0,0 km/h (0 Bft)
23.10.2019 12:21 14,2 °C 95 % 1014,3 hPa 0,0 mm 0,0 km/h (0 Bft) NO 52 ° 0 min 0,000 mm 1,7 UV-I 83 W/m² 13,4 °C 14,2 °C 0,0 km/h (0 Bft)
23.10.2019 12:22 14,2 °C 95 % 1014,3 hPa 0,0 mm 0,0 km/h (0 Bft) NO 52 ° 0 min 0,000 mm 1,9 UV-I 179 W/m² 13,4 °C 14,2 °C 0,0 km/h (0 Bft)
23.10.2019 12:23 14,3 °C 95 % 1014,3 hPa 0,0 mm 0,0 km/h (0 Bft) NO 52 ° 0 min 0,000 mm 2,4 UV-I 179 W/m² 13,5 °C 14,3 °C 0,0 km/h (0 Bft)
23.10.2019 12:24 14,4 °C 95 % 1014,3 hPa 0,0 mm 0,0 km/h (0 Bft) NO 52 ° 0 min 0,000 mm 2,8 UV-I 179 W/m² 13,6 °C 14,4 °C 0,0 km/h (0 Bft)
23.10.2019 12:25 14,4 °C 94 % 1014,2 hPa 0,0 mm 0,0 km/h (0 Bft) NO 52 ° 0 min 0,000 mm 2,9 UV-I 510 W/m² 13,4 °C 14,4 °C 0,0 km/h (0 Bft)
23.10.2019 12:26 14,6 °C 94 % 1014,2 hPa 0,0 mm 2,3 km/h (1 Bft) NO 55 ° 0 min 0,000 mm 2,8 UV-I 515 W/m² 13,6 °C 14,6 °C 4,8 km/h (1 Bft)
23.10.2019 12:27 14,8 °C 94 % 1014,2 hPa 0,0 mm 2,9 km/h (1 Bft) N-NW 346 ° 0 min 0,000 mm 2,9 UV-I 520 W/m² 13,8 °C 14,8 °C 4,8 km/h (1 Bft)
23.10.2019 12:28 15,0 °C 94 % 1014,2 hPa 0,0 mm 4,8 km/h (1 Bft) N-NW 348 ° 0 min 0,000 mm 2,7 UV-I 420 W/m² 14,0 °C 15,0 °C 6,4 km/h (2 Bft)
23.10.2019 12:29 15,2 °C 93 % 1014,2 hPa 0,0 mm 4,2 km/h (1 Bft) N-NO 17 ° 0 min 0,000 mm 2,2 UV-I 420 W/m² 14,1 °C 15,2 °C 6,4 km/h (2 Bft)
23.10.2019 12:30 15,3 °C 92 % 1014,2 hPa 0,0 mm 5,6 km/h (1 Bft) N 5 ° 0 min 0,000 mm 1,9 UV-I 139 W/m² 14,0 °C 15,3 °C 8,0 km/h (2 Bft)
23.10.2019 12:31 15,4 °C 92 % 1014,2 hPa 0,0 mm 5,0 km/h (1 Bft) N 11 ° 0 min 0,000 mm 1,8 UV-I 118 W/m² 14,1 °C 15,4 °C 6,4 km/h (2 Bft)
23.10.2019 12:32 15,6 °C 92 % 1014,1 hPa 0,0 mm 2,7 km/h (1 Bft) N 11 ° 0 min 0,000 mm 1,9 UV-I 153 W/m² 14,3 °C 15,6 °C 4,8 km/h (1 Bft)
23.10.2019 12:33 15,7 °C 91 % 1014,1 hPa 0,0 mm 2,2 km/h (1 Bft) N 11 ° 0 min 0,000 mm 2,2 UV-I 248 W/m² 14,2 °C 15,7 °C 3,2 km/h (1 Bft)
23.10.2019 12:34 15,7 °C 91 % 1014,1 hPa 0,0 mm 0,2 km/h (0 Bft) N 11 ° 0 min 0,000 mm 2,4 UV-I 248 W/m² 14,2 °C 15,7 °C 1,6 km/h (1 Bft)
23.10.2019 12:35 15,6 °C 89 % 1014,1 hPa 0,0 mm 0,0 km/h (0 Bft) N 11 ° 0 min 0,000 mm 2,6 UV-I 248 W/m² 13,8 °C 15,6 °C 0,0 km/h (0 Bft)
23.10.2019 12:36 15,6 °C 89 % 1014,1 hPa 0,0 mm 3,3 km/h (1 Bft) O 85 ° 0 min 0,000 mm 2,2 UV-I 248 W/m² 13,8 °C 15,6 °C 4,8 km/h (1 Bft)
23.10.2019 12:37 15,5 °C 88 % 1014,1 hPa 0,0 mm 3,9 km/h (1 Bft) O 85 ° 0 min 0,000 mm 1,8 UV-I 69 W/m² 13,5 °C 15,5 °C 4,8 km/h (1 Bft)
23.10.2019 12:38 15,6 °C 88 % 1014,0 hPa 0,0 mm 0,6 km/h (0 Bft) O 85 ° 0 min 0,000 mm 1,8 UV-I 53 W/m² 13,6 °C 15,6 °C 3,2 km/h (1 Bft)
23.10.2019 12:39 15,6 °C 87 % 1014,0 hPa 0,0 mm 0,0 km/h (0 Bft) O 85 ° 0 min 0,000 mm 1,9 UV-I 53 W/m² 13,4 °C 15,6 °C 0,0 km/h (0 Bft)
23.10.2019 12:40 15,6 °C 87 % 1014,0 hPa 0,0 mm 0,0 km/h (0 Bft) O 85 ° 0 min 0,000 mm 2,5 UV-I 53 W/m² 13,4 °C 15,6 °C 0,0 km/h (0 Bft)
23.10.2019 12:41 15,7 °C 86 % 1014,0 hPa 0,0 mm 0,0 km/h (0 Bft) O 85 ° 0 min 0,000 mm 2,4 UV-I 332 W/m² 13,4 °C 15,7 °C 0,0 km/h (0 Bft)
23.10.2019 12:42 15,7 °C 85 % 1013,9 hPa 0,0 mm 0,0 km/h (0 Bft) O 85 ° 0 min 0,000 mm 2,2 UV-I 332 W/m² 13,2 °C 15,7 °C 0,0 km/h (0 Bft)
23.10.2019 12:43 15,7 °C 85 % 1013,9 hPa 0,0 mm 0,0 km/h (0 Bft) O 85 ° 0 min 0,000 mm 2,0 UV-I 144 W/m² 13,2 °C 15,7 °C 0,0 km/h (0 Bft)
23.10.2019 12:44 15,7 °C 85 % 1014,0 hPa 0,0 mm 0,0 km/h (0 Bft) O 85 ° 0 min 0,000 mm 1,8 UV-I 241 W/m² 13,2 °C 15,7 °C 0,0 km/h (0 Bft)
23.10.2019 12:45 15,7 °C 85 % 1014,0 hPa 0,0 mm 0,0 km/h (0 Bft) O 85 ° 0 min 0,000 mm 2,5 UV-I 241 W/m² 13,2 °C 15,7 °C 0,0 km/h (0 Bft)
23.10.2019 12:46 15,7 °C 84 % 1014,0 hPa 0,0 mm 0,0 km/h (0 Bft) O 85 ° 0 min 0,000 mm 2,8 UV-I 241 W/m² 13,0 °C 15,7 °C 0,0 km/h (0 Bft)
23.10.2019 12:47 15,6 °C 85 % 1014,0 hPa 0,0 mm 0,0 km/h (0 Bft) O 85 ° 0 min 0,000 mm 2,9 UV-I 487 W/m² 13,1 °C 15,6 °C 0,0 km/h (0 Bft)
23.10.2019 12:48 15,7 °C 85 % 1014,0 hPa 0,0 mm 0,0 km/h (0 Bft) O 85 ° 0 min 0,000 mm 2,6 UV-I 487 W/m² 13,2 °C 15,7 °C 0,0 km/h (0 Bft)
23.10.2019 12:49 15,7 °C 85 % 1014,0 hPa 0,0 mm 0,0 km/h (0 Bft) O 85 ° 0 min 0,000 mm 2,1 UV-I 148 W/m² 13,2 °C 15,7 °C 0,0 km/h (0 Bft)
23.10.2019 12:50 15,8 °C 84 % 1014,0 hPa 0,0 mm 0,0 km/h (0 Bft) O 85 ° 0 min 0,000 mm 1,9 UV-I 214 W/m² 13,1 °C 15,8 °C 0,0 km/h (0 Bft)
23.10.2019 12:51 15,8 °C 85 % 1014,0 hPa 0,0 mm 0,0 km/h (0 Bft) O 85 ° 0 min 0,000 mm 2,0 UV-I 160 W/m² 13,3 °C 15,8 °C 0,0 km/h (0 Bft)
23.10.2019 12:52 15,7 °C 84 % 1014,0 hPa 0,0 mm 0,0 km/h (0 Bft) O 85 ° 0 min 0,000 mm 1,9 UV-I 160 W/m² 13,0 °C 15,7 °C 0,0 km/h (0 Bft)
23.10.2019 12:53 15,6 °C 86 % 1014,0 hPa 0,0 mm 0,0 km/h (0 Bft) O 85 ° 0 min 0,000 mm 1,8 UV-I 79 W/m² 13,3 °C 15,6 °C 0,0 km/h (0 Bft)
23.10.2019 12:54 15,6 °C 86 % 1014,0 hPa 0,0 mm 0,0 km/h (0 Bft) O 86 ° 0 min 0,000 mm 0,0 UV-I 37 W/m² 13,3 °C 15,6 °C 0,0 km/h (0 Bft)
23.10.2019 12:55 15,6 °C 86 % 1014,0 hPa 0,0 mm 0,0 km/h (0 Bft) O 86 ° 0 min 0,000 mm 0,0 UV-I 70 W/m² 13,3 °C 15,6 °C 0,0 km/h (0 Bft)
23.10.2019 12:56 15,6 °C 86 % 1014,0 hPa 0,0 mm 2,1 km/h (1 Bft) O 95 ° 0 min 0,000 mm 1,7 UV-I 74 W/m² 13,3 °C 15,6 °C 4,8 km/h (1 Bft)
23.10.2019 12:57 15,6 °C 86 % 1014,0 hPa 0,0 mm 1,3 km/h (1 Bft) O 95 ° 0 min 0,000 mm 0,0 UV-I 42 W/m² 13,3 °C 15,6 °C 3,2 km/h (1 Bft)
23.10.2019 12:58 15,6 °C 87 % 1014,0 hPa 0,0 mm 0,3 km/h (0 Bft) O 95 ° 0 min 0,000 mm 0,0 UV-I 40 W/m² 13,4 °C 15,6 °C 3,2 km/h (1 Bft)
23.10.2019 12:59 15,6 °C 88 % 1013,9 hPa 0,0 mm 3,1 km/h (1 Bft) O-SO 106 ° 0 min 0,000 mm 1,6 UV-I 58 W/m² 13,6 °C 15,6 °C 6,4 km/h (2 Bft)
23.10.2019 13:00 15,7 °C 88 % 1013,9 hPa 0,0 mm 3,6 km/h (1 Bft) O-SO 120 ° 0 min 0,000 mm 1,9 UV-I 58 W/m² 13,7 °C 15,7 °C 6,4 km/h (2 Bft)
23.10.2019 13:01 15,8 °C 88 % 1013,9 hPa 0,0 mm 0,0 km/h (0 Bft) O-SO 120 ° 0 min 0,152 mm 2,2 UV-I 137 W/m² 13,8 °C 15,8 °C 0,0 km/h (0 Bft)
23.10.2019 13:02 15,9 °C 87 % 1013,9 hPa 0,0 mm 0,0 km/h (0 Bft) O-SO 120 ° 0 min 0,000 mm 0,0 UV-I 47 W/m² 13,7 °C 15,9 °C 0,0 km/h (0 Bft)
23.10.2019 13:03 16,0 °C 86 % 1013,9 hPa 0,0 mm 0,0 km/h (0 Bft) O-SO 120 ° 0 min 0,000 mm 0,0 UV-I 37 W/m² 13,7 °C 16,0 °C 0,0 km/h (0 Bft)
23.10.2019 13:04 16,1 °C 86 % 1013,8 hPa 0,0 mm 1,5 km/h (1 Bft) O-SO 120 ° 0 min 0,000 mm 0,0 UV-I 37 W/m² 13,8 °C 16,1 °C 3,2 km/h (1 Bft)
23.10.2019 13:05 16,1 °C 84 % 1013,8 hPa 0,0 mm 3,0 km/h (1 Bft) O-SO 121 ° 0 min 0,000 mm 0,0 UV-I 37 W/m² 13,4 °C 16,1 °C 4,8 km/h (1 Bft)
23.10.2019 13:06 16,2 °C 85 % 1013,9 hPa 0,0 mm 2,0 km/h (1 Bft) O-SO 121 ° 0 min 0,000 mm 0,0 UV-I 37 W/m² 13,7 °C 16,2 °C 3,2 km/h (1 Bft)
23.10.2019 13:07 16,3 °C 86 % 1013,9 hPa 0,0 mm 0,1 km/h (0 Bft) O-SO 121 ° 0 min 0,000 mm 0,0 UV-I 37 W/m² 14,0 °C 16,3 °C 1,6 km/h (1 Bft)
23.10.2019 13:08 16,4 °C 85 % 1013,8 hPa 0,0 mm 0,0 km/h (0 Bft) O-SO 121 ° 0 min 0,000 mm 0,0 UV-I 37 W/m² 13,9 °C 16,4 °C 0,0 km/h (0 Bft)
23.10.2019 13:09 16,7 °C 83 % 1013,7 hPa 0,0 mm 2,1 km/h (1 Bft) O-SO 121 ° 0 min 0,000 mm 0,0 UV-I 37 W/m² 13,8 °C 16,7 °C 4,8 km/h (1 Bft)
23.10.2019 13:10 16,9 °C 84 % 1013,7 hPa 0,0 mm 2,3 km/h (1 Bft) O-SO 121 ° 0 min 0,000 mm 0,0 UV-I 37 W/m² 14,2 °C 16,9 °C 3,2 km/h (1 Bft)
23.10.2019 13:11 17,1 °C 84 % 1013,7 hPa 0,0 mm 1,1 km/h (1 Bft) O-SO 121 ° 0 min 0,000 mm 0,0 UV-I 39 W/m² 14,4 °C 17,1 °C 3,2 km/h (1 Bft)
23.10.2019 13:12 17,3 °C 83 % 1013,6 hPa 0,0 mm 0,0 km/h (0 Bft) O-SO 121 ° 0 min 0,000 mm 0,0 UV-I 40 W/m² 14,4 °C 17,3 °C 0,0 km/h (0 Bft)
23.10.2019 13:13 17,4 °C 83 % 1013,6 hPa 0,0 mm 0,0 km/h (0 Bft) O-SO 121 ° 0 min 0,000 mm 0,0 UV-I 40 W/m² 14,5 °C 17,4 °C 0,0 km/h (0 Bft)
23.10.2019 13:14 17,6 °C 83 % 1013,6 hPa 0,0 mm 0,0 km/h (0 Bft) O-SO 121 ° 0 min 0,000 mm 0,0 UV-I 51 W/m² 14,7 °C 17,6 °C 0,0 km/h (0 Bft)
23.10.2019 13:15 17,7 °C 83 % 1013,6 hPa 0,0 mm 0,0 km/h (0 Bft) O-SO 121 ° 0 min 0,000 mm 0,0 UV-I 65 W/m² 14,8 °C 17,7 °C 0,0 km/h (0 Bft)
23.10.2019 13:16 17,8 °C 82 % 1013,6 hPa 0,0 mm 0,0 km/h (0 Bft) O-SO 121 ° 0 min 0,000 mm 1,6 UV-I 63 W/m² 14,7 °C 17,8 °C 0,0 km/h (0 Bft)
23.10.2019 13:17 17,8 °C 81 % 1013,7 hPa 0,0 mm 0,2 km/h (0 Bft) O-SO 121 ° 0 min 0,000 mm 0,0 UV-I 47 W/m² 14,5 °C 17,8 °C 1,6 km/h (1 Bft)
23.10.2019 13:18 17,8 °C 81 % 1013,7 hPa 0,0 mm 0,0 km/h (0 Bft) SW 219 ° 0 min 0,000 mm 0,0 UV-I 62 W/m² 14,5 °C 17,8 °C 0,0 km/h (0 Bft)
23.10.2019 13:19 18,1 °C 81 % 1013,7 hPa 0,0 mm 3,1 km/h (1 Bft) W-SW 246 ° 0 min 0,000 mm 1,6 UV-I 76 W/m² 14,8 °C 18,1 °C 4,8 km/h (1 Bft)
23.10.2019 13:20 18,2 °C 80 % 1013,7 hPa 0,0 mm 1,3 km/h (1 Bft) W-SW 246 ° 0 min 0,000 mm 1,7 UV-I 86 W/m² 14,7 °C 18,2 °C 3,2 km/h (1 Bft)
23.10.2019 13:21 18,4 °C 79 % 1013,7 hPa 0,0 mm 6,0 km/h (2 Bft) N 5 ° 0 min 0,000 mm 1,6 UV-I 58 W/m² 14,7 °C 18,4 °C 9,7 km/h (2 Bft)
23.10.2019 13:22 18,5 °C 77 % 1013,8 hPa 0,0 mm 8,2 km/h (2 Bft) N 5 ° 0 min 0,000 mm 0,0 UV-I 46 W/m² 14,4 °C 18,5 °C 12,9 km/h (3 Bft)
23.10.2019 13:23 18,6 °C 76 % 1013,8 hPa 0,0 mm 4,4 km/h (1 Bft) N-NO 33 ° 0 min 0,000 mm 0,0 UV-I 40 W/m² 14,3 °C 18,6 °C 6,4 km/h (2 Bft)
23.10.2019 13:24 18,7 °C 75 % 1013,7 hPa 0,0 mm 3,6 km/h (1 Bft) N-NO 27 ° 0 min 0,000 mm 0,0 UV-I 40 W/m² 14,2 °C 18,7 °C 6,4 km/h (2 Bft)
23.10.2019 13:25 18,8 °C 75 % 1013,7 hPa 0,0 mm 4,8 km/h (1 Bft) O-NO 63 ° 0 min 0,000 mm 0,0 UV-I 51 W/m² 14,3 °C 18,8 °C 6,4 km/h (2 Bft)
23.10.2019 13:26 18,9 °C 74 % 1013,8 hPa 0,0 mm 6,0 km/h (2 Bft) NO 40 ° 0 min 0,000 mm 1,7 UV-I 128 W/m² 14,2 °C 18,9 °C 8,0 km/h (2 Bft)
23.10.2019 13:27 18,9 °C 74 % 1013,7 hPa 0,0 mm 3,9 km/h (1 Bft) NO 42 ° 0 min 0,000 mm 1,9 UV-I 160 W/m² 14,2 °C 18,9 °C 8,0 km/h (2 Bft)
23.10.2019 13:28 18,9 °C 74 % 1013,7 hPa 0,0 mm 4,2 km/h (1 Bft) O-NO 69 ° 0 min 0,000 mm 1,7 UV-I 90 W/m² 14,2 °C 18,9 °C 8,0 km/h (2 Bft)
23.10.2019 13:29 18,8 °C 73 % 1013,6 hPa 0,0 mm 0,5 km/h (0 Bft) O-NO 69 ° 0 min 0,000 mm 1,8 UV-I 179 W/m² 13,9 °C 18,8 °C 3,2 km/h (1 Bft)
23.10.2019 13:30 18,7 °C 74 % 1013,6 hPa 0,0 mm 4,5 km/h (1 Bft) O-NO 69 ° 0 min 0,000 mm 2,3 UV-I 179 W/m² 14,0 °C 18,7 °C 8,0 km/h (2 Bft)
23.10.2019 13:31 18,6 °C 74 % 1013,7 hPa 0,0 mm 4,0 km/h (1 Bft) O 88 ° 0 min 0,000 mm 2,7 UV-I 489 W/m² 13,9 °C 18,6 °C 9,7 km/h (2 Bft)
23.10.2019 13:32 18,4 °C 75 % 1013,7 hPa 0,0 mm 4,1 km/h (1 Bft) O 84 ° 0 min 0,000 mm 2,4 UV-I 489 W/m² 13,9 °C 18,4 °C 4,8 km/h (1 Bft)
23.10.2019 13:33 18,2 °C 76 % 1013,7 hPa 0,0 mm 4,0 km/h (1 Bft) O-NO 59 ° 0 min 0,000 mm 1,9 UV-I 489 W/m² 13,9 °C 18,2 °C 6,4 km/h (2 Bft)
23.10.2019 13:34 18,0 °C 76 % 1013,7 hPa 0,0 mm 3,0 km/h (1 Bft) NO 49 ° 0 min 0,000 mm 1,7 UV-I 77 W/m² 13,7 °C 18,0 °C 4,8 km/h (1 Bft)
23.10.2019 13:35 17,9 °C 77 % 1013,7 hPa 0,0 mm 0,3 km/h (0 Bft) NO 49 ° 0 min 0,000 mm 1,6 UV-I 56 W/m² 13,8 °C 17,9 °C 1,6 km/h (1 Bft)
23.10.2019 13:36 17,9 °C 77 % 1013,7 hPa 0,0 mm 0,0 km/h (0 Bft) NO 49 ° 0 min 0,000 mm 1,6 UV-I 70 W/m² 13,8 °C 17,9 °C 0,0 km/h (0 Bft)
23.10.2019 13:37 18,0 °C 78 % 1013,7 hPa 0,0 mm 1,0 km/h (0 Bft) NO 49 ° 0 min 0,000 mm 2,4 UV-I 70 W/m² 14,1 °C 18,0 °C 3,2 km/h (1 Bft)
23.10.2019 13:38 18,2 °C 78 % 1013,7 hPa 0,0 mm 2,1 km/h (1 Bft) NO 49 ° 0 min 0,000 mm 2,8 UV-I 70 W/m² 14,3 °C 18,2 °C 3,2 km/h (1 Bft)
23.10.2019 13:39 18,2 °C 77 % 1013,7 hPa 0,0 mm 5,2 km/h (1 Bft) N-NO 14 ° 0 min 0,000 mm 2,8 UV-I 524 W/m² 14,1 °C 18,2 °C 8,0 km/h (2 Bft)
23.10.2019 13:40 18,1 °C 77 % 1013,8 hPa 0,0 mm 2,5 km/h (1 Bft) NO 34 ° 0 min 0,000 mm 2,9 UV-I 524 W/m² 14,0 °C 18,1 °C 6,4 km/h (2 Bft)
23.10.2019 13:41 18,2 °C 76 % 1013,8 hPa 0,0 mm 6,0 km/h (2 Bft) N 5 ° 0 min 0,000 mm 2,9 UV-I 524 W/m² 13,9 °C 18,2 °C 8,0 km/h (2 Bft)
23.10.2019 13:42 18,4 °C 76 % 1013,7 hPa 0,0 mm 3,7 km/h (1 Bft) N 360 ° 0 min 0,000 mm 2,9 UV-I 522 W/m² 14,1 °C 18,4 °C 6,4 km/h (2 Bft)
23.10.2019 13:43 18,6 °C 75 % 1013,6 hPa 0,0 mm 5,0 km/h (1 Bft) N 5 ° 0 min 0,000 mm 2,8 UV-I 519 W/m² 14,1 °C 18,6 °C 8,0 km/h (2 Bft)
23.10.2019 13:44 18,8 °C 75 % 1013,7 hPa 0,0 mm 3,7 km/h (1 Bft) N-NO 28 ° 0 min 0,000 mm 2,8 UV-I 483 W/m² 14,3 °C 18,8 °C 4,8 km/h (1 Bft)
23.10.2019 13:45 18,7 °C 75 % 1013,6 hPa 0,0 mm 3,5 km/h (1 Bft) O-NO 61 ° 0 min 0,000 mm 2,5 UV-I 483 W/m² 14,2 °C 18,7 °C 4,8 km/h (1 Bft)
23.10.2019 13:46 18,5 °C 76 % 1013,6 hPa 0,0 mm 5,0 km/h (1 Bft) O-NO 67 ° 0 min 0,000 mm 2,0 UV-I 483 W/m² 14,2 °C 18,5 °C 9,7 km/h (2 Bft)
23.10.2019 13:47 18,3 °C 76 % 1013,6 hPa 0,0 mm 6,7 km/h (2 Bft) O 85 ° 0 min 0,000 mm 1,6 UV-I 483 W/m² 14,0 °C 18,3 °C 8,0 km/h (2 Bft)
23.10.2019 13:48 18,2 °C 77 % 1013,6 hPa 0,0 mm 7,9 km/h (2 Bft) O-NO 64 ° 0 min 0,000 mm 1,6 UV-I 56 W/m² 14,1 °C 18,2 °C 12,9 km/h (3 Bft)
23.10.2019 13:49 18,0 °C 77 % 1013,5 hPa 0,0 mm 6,5 km/h (2 Bft) O 80 ° 0 min 0,000 mm 1,6 UV-I 63 W/m² 13,9 °C 18,0 °C 11,3 km/h (2 Bft)
23.10.2019 13:50 17,8 °C 78 % 1013,5 hPa 0,0 mm 2,5 km/h (1 Bft) O 88 ° 0 min 0,000 mm 1,6 UV-I 63 W/m² 13,9 °C 17,8 °C 4,8 km/h (1 Bft)
23.10.2019 13:51 17,8 °C 77 % 1013,5 hPa 0,0 mm 2,3 km/h (1 Bft) O 88 ° 0 min 0,000 mm 1,6 UV-I 60 W/m² 13,7 °C 17,8 °C 3,2 km/h (1 Bft)
23.10.2019 13:52 17,7 °C 78 % 1013,5 hPa 0,0 mm 1,2 km/h (1 Bft) O 88 ° 0 min 0,000 mm 1,6 UV-I 83 W/m² 13,8 °C 17,7 °C 3,2 km/h (1 Bft)
23.10.2019 13:53 17,7 °C 79 % 1013,5 hPa 0,0 mm 2,6 km/h (1 Bft) NO 53 ° 0 min 0,000 mm 1,8 UV-I 156 W/m² 14,0 °C 17,7 °C 4,8 km/h (1 Bft)
23.10.2019 13:54 17,8 °C 79 % 1013,5 hPa 0,0 mm 4,8 km/h (1 Bft) O-NO 59 ° 0 min 0,000 mm 2,1 UV-I 156 W/m² 14,1 °C 17,8 °C 6,4 km/h (2 Bft)
23.10.2019 13:55 17,9 °C 79 % 1013,4 hPa 0,0 mm 4,4 km/h (1 Bft) N 11 ° 0 min 0,000 mm 2,7 UV-I 478 W/m² 14,2 °C 17,9 °C 6,4 km/h (2 Bft)
23.10.2019 13:56 18,1 °C 79 % 1013,4 hPa 0,0 mm 1,5 km/h (1 Bft) N 11 ° 0 min 0,000 mm 2,7 UV-I 490 W/m² 14,4 °C 18,1 °C 4,8 km/h (1 Bft)
23.10.2019 13:57 18,3 °C 78 % 1013,5 hPa 0,0 mm 4,1 km/h (1 Bft) N 355 ° 0 min 0,000 mm 2,6 UV-I 431 W/m² 14,4 °C 18,3 °C 9,7 km/h (2 Bft)
23.10.2019 13:58 18,4 °C 77 % 1013,5 hPa 0,0 mm 5,9 km/h (2 Bft) N-NO 25 ° 0 min 0,000 mm 2,2 UV-I 431 W/m² 14,3 °C 18,4 °C 8,0 km/h (2 Bft)
23.10.2019 13:59 18,2 °C 77 % 1013,5 hPa 0,0 mm 7,3 km/h (2 Bft) N 351 ° 0 min 0,000 mm 1,9 UV-I 237 W/m² 14,1 °C 18,2 °C 12,9 km/h (3 Bft)
23.10.2019 14:00 18,2 °C 76 % 1013,5 hPa 0,0 mm 5,8 km/h (2 Bft) N-NO 15 ° 0 min 0,127 mm 2,1 UV-I 237 W/m² 13,9 °C 18,2 °C 8,0 km/h (2 Bft)
23.10.2019 14:01 18,2 °C 76 % 1013,5 hPa 0,0 mm 4,5 km/h (1 Bft) N-NO 16 ° 0 min 0,000 mm 2,7 UV-I 237 W/m² 13,9 °C 18,2 °C 8,0 km/h (2 Bft)
23.10.2019 14:02 18,2 °C 77 % 1013,4 hPa 0,0 mm 4,6 km/h (1 Bft) N-NO 16 ° 0 min 0,000 mm 2,8 UV-I 515 W/m² 14,1 °C 18,2 °C 8,0 km/h (2 Bft)
23.10.2019 14:03 18,2 °C 76 % 1013,4 hPa 0,0 mm 5,4 km/h (1 Bft) N-NW 342 ° 0 min 0,000 mm 2,8 UV-I 510 W/m² 13,9 °C 18,2 °C 9,7 km/h (2 Bft)
23.10.2019 14:04 18,3 °C 75 % 1013,4 hPa 0,0 mm 4,2 km/h (1 Bft) N-NO 24 ° 0 min 0,000 mm 2,7 UV-I 506 W/m² 13,8 °C 18,3 °C 8,0 km/h (2 Bft)
23.10.2019 14:05 18,3 °C 75 % 1013,4 hPa 0,0 mm 6,0 km/h (2 Bft) N-NO 30 ° 0 min 0,000 mm 2,7 UV-I 503 W/m² 13,8 °C 18,3 °C 8,0 km/h (2 Bft)
23.10.2019 14:06 18,4 °C 75 % 1013,4 hPa 0,0 mm 5,8 km/h (2 Bft) O-NO 69 ° 0 min 0,000 mm 2,7 UV-I 501 W/m² 13,9 °C 18,4 °C 8,0 km/h (2 Bft)
23.10.2019 14:07 18,3 °C 74 % 1013,4 hPa 0,0 mm 5,2 km/h (1 Bft) N-NO 33 ° 0 min 0,000 mm 2,7 UV-I 497 W/m² 13,6 °C 18,3 °C 8,0 km/h (2 Bft)
23.10.2019 14:08 18,2 °C 74 % 1013,4 hPa 0,0 mm 5,6 km/h (1 Bft) N-NO 15 ° 0 min 0,000 mm 2,7 UV-I 503 W/m² 13,5 °C 18,2 °C 8,0 km/h (2 Bft)
23.10.2019 14:09 18,2 °C 75 % 1013,4 hPa 0,0 mm 7,7 km/h (2 Bft) N-NO 25 ° 0 min 0,000 mm 2,7 UV-I 503 W/m² 13,7 °C 18,2 °C 14,5 km/h (3 Bft)
23.10.2019 14:10 18,2 °C 74 % 1013,4 hPa 0,0 mm 4,8 km/h (1 Bft) N-NO 23 ° 0 min 0,000 mm 2,7 UV-I 501 W/m² 13,5 °C 18,2 °C 8,0 km/h (2 Bft)
23.10.2019 14:11 18,2 °C 74 % 1013,4 hPa 0,0 mm 2,1 km/h (1 Bft) O 90 ° 0 min 0,000 mm 2,7 UV-I 499 W/m² 13,5 °C 18,2 °C 4,8 km/h (1 Bft)
23.10.2019 14:12 18,1 °C 74 % 1013,4 hPa 0,0 mm 8,2 km/h (2 Bft) NO 47 ° 0 min 0,000 mm 2,7 UV-I 499 W/m² 13,4 °C 18,1 °C 12,9 km/h (3 Bft)
23.10.2019 14:13 18,0 °C 75 % 1013,4 hPa 0,0 mm 7,3 km/h (2 Bft) N 11 ° 0 min 0,000 mm 2,7 UV-I 496 W/m² 13,5 °C 18,0 °C 11,3 km/h (2 Bft)
23.10.2019 14:14 18,1 °C 74 % 1013,3 hPa 0,0 mm 7,1 km/h (2 Bft) O-NO 71 ° 0 min 0,000 mm 2,7 UV-I 497 W/m² 13,4 °C 18,1 °C 12,9 km/h (3 Bft)
23.10.2019 14:15 18,1 °C 74 % 1013,3 hPa 0,0 mm 6,4 km/h (2 Bft) NO 45 ° 0 min 0,000 mm 2,7 UV-I 496 W/m² 13,4 °C 18,1 °C 8,0 km/h (2 Bft)
23.10.2019 14:16 18,1 °C 74 % 1013,3 hPa 0,0 mm 5,8 km/h (2 Bft) NO 39 ° 0 min 0,000 mm 2,7 UV-I 499 W/m² 13,4 °C 18,1 °C 9,7 km/h (2 Bft)
23.10.2019 14:17 18,1 °C 74 % 1013,2 hPa 0,0 mm 5,4 km/h (1 Bft) O-NO 67 ° 0 min 0,000 mm 2,6 UV-I 494 W/m² 13,4 °C 18,1 °C 9,7 km/h (2 Bft)
23.10.2019 14:18 18,1 °C 75 % 1013,2 hPa 0,0 mm 5,9 km/h (2 Bft) O 86 ° 0 min 0,000 mm 2,6 UV-I 490 W/m² 13,6 °C 18,1 °C 12,9 km/h (3 Bft)
23.10.2019 14:19 17,8 °C 75 % 1013,2 hPa 0,0 mm 6,9 km/h (2 Bft) O-NO 65 ° 0 min 0,000 mm 2,6 UV-I 494 W/m² 13,3 °C 17,8 °C 12,9 km/h (3 Bft)
23.10.2019 14:20 17,7 °C 75 % 1013,2 hPa 0,0 mm 3,8 km/h (1 Bft) O 86 ° 0 min 0,000 mm 2,5 UV-I 459 W/m² 13,2 °C 17,7 °C 6,4 km/h (2 Bft)
23.10.2019 14:21 17,4 °C 77 % 1013,2 hPa 0,0 mm 4,4 km/h (1 Bft) O 80 ° 0 min 0,000 mm 2,6 UV-I 480 W/m² 13,3 °C 17,4 °C 11,3 km/h (2 Bft)
23.10.2019 14:22 17,4 °C 78 % 1013,2 hPa 0,0 mm 5,2 km/h (1 Bft) O-NO 69 ° 0 min 0,000 mm 2,6 UV-I 494 W/m² 13,5 °C 17,4 °C 9,7 km/h (2 Bft)
23.10.2019 14:23 17,3 °C 77 % 1013,1 hPa 0,0 mm 3,5 km/h (1 Bft) O-NO 78 ° 0 min 0,000 mm 2,6 UV-I 455 W/m² 13,2 °C 17,3 °C 8,0 km/h (2 Bft)
23.10.2019 14:24 17,4 °C 76 % 1013,1 hPa 0,0 mm 3,7 km/h (1 Bft) O-NO 76 ° 0 min 0,000 mm 2,5 UV-I 485 W/m² 13,1 °C 17,4 °C 6,4 km/h (2 Bft)
23.10.2019 14:25 17,3 °C 77 % 1013,1 hPa 0,0 mm 1,0 km/h (0 Bft) NO 38 ° 0 min 0,000 mm 2,5 UV-I 457 W/m² 13,2 °C 17,3 °C 3,2 km/h (1 Bft)
23.10.2019 14:26 17,2 °C 77 % 1013,1 hPa 0,0 mm 1,7 km/h (1 Bft) NO 42 ° 0 min 0,000 mm 2,3 UV-I 415 W/m² 13,1 °C 17,2 °C 6,4 km/h (2 Bft)
23.10.2019 14:27 17,3 °C 79 % 1013,2 hPa 0,0 mm 1,1 km/h (1 Bft) O-NO 65 ° 0 min 0,000 mm 2,3 UV-I 385 W/m² 13,6 °C 17,3 °C 3,2 km/h (1 Bft)
23.10.2019 14:28 17,6 °C 78 % 1013,2 hPa 0,0 mm 0,4 km/h (0 Bft) O-NO 65 ° 0 min 0,000 mm 2,2 UV-I 367 W/m² 13,7 °C 17,6 °C 1,6 km/h (1 Bft)
23.10.2019 14:29 17,8 °C 78 % 1013,2 hPa 0,0 mm 2,2 km/h (1 Bft) O-NO 65 ° 0 min 0,000 mm 2,2 UV-I 334 W/m² 13,9 °C 17,8 °C 3,2 km/h (1 Bft)
23.10.2019 14:30 17,7 °C 75 % 1013,2 hPa 0,0 mm 0,1 km/h (0 Bft) O-NO 65 ° 0 min 0,000 mm 2,0 UV-I 279 W/m² 13,2 °C 17,7 °C 1,6 km/h (1 Bft)
23.10.2019 14:31 17,7 °C 74 % 1013,2 hPa 0,0 mm 3,1 km/h (1 Bft) O-NO 63 ° 0 min 0,000 mm 2,1 UV-I 292 W/m² 13,0 °C 17,7 °C 6,4 km/h (2 Bft)
23.10.2019 14:32 17,7 °C 74 % 1013,2 hPa 0,0 mm 3,3 km/h (1 Bft) O 89 ° 0 min 0,000 mm 2,2 UV-I 374 W/m² 13,0 °C 17,7 °C 4,8 km/h (1 Bft)
23.10.2019 14:33 17,8 °C 75 % 1013,1 hPa 0,0 mm 7,2 km/h (2 Bft) O 89 ° 0 min 0,000 mm 2,1 UV-I 338 W/m² 13,3 °C 17,8 °C 11,3 km/h (2 Bft)
23.10.2019 14:34 17,8 °C 74 % 1013,2 hPa 0,0 mm 6,4 km/h (2 Bft) O-NO 77 ° 0 min 0,000 mm 1,9 UV-I 285 W/m² 13,1 °C 17,8 °C 9,7 km/h (2 Bft)
23.10.2019 14:35 17,8 °C 75 % 1013,2 hPa 0,0 mm 5,3 km/h (1 Bft) O 86 ° 0 min 0,000 mm 1,8 UV-I 221 W/m² 13,3 °C 17,8 °C 11,3 km/h (2 Bft)
23.10.2019 14:36 17,8 °C 75 % 1013,1 hPa 0,0 mm 9,2 km/h (2 Bft) NO 53 ° 0 min 0,000 mm 1,6 UV-I 193 W/m² 13,3 °C 17,8 °C 12,9 km/h (3 Bft)
23.10.2019 14:37 17,8 °C 74 % 1013,1 hPa 0,0 mm 5,1 km/h (1 Bft) O-NO 58 ° 0 min 0,000 mm 1,6 UV-I 193 W/m² 13,1 °C 17,8 °C 11,3 km/h (2 Bft)
23.10.2019 14:38 17,7 °C 74 % 1013,1 hPa 0,0 mm 2,8 km/h (1 Bft) O-NO 59 ° 0 min 0,000 mm 1,6 UV-I 188 W/m² 13,0 °C 17,7 °C 4,8 km/h (1 Bft)
23.10.2019 14:39 17,7 °C 74 % 1013,1 hPa 0,0 mm 0,1 km/h (0 Bft) O-NO 59 ° 0 min 0,000 mm 1,6 UV-I 183 W/m² 13,0 °C 17,7 °C 1,6 km/h (1 Bft)
23.10.2019 14:40 17,7 °C 74 % 1013,0 hPa 0,0 mm 0,8 km/h (0 Bft) NO 53 ° 0 min 0,000 mm 1,7 UV-I 253 W/m² 13,0 °C 17,7 °C 1,6 km/h (1 Bft)
23.10.2019 14:41 17,5 °C 77 % 1013,0 hPa 0,0 mm 0,7 km/h (0 Bft) NO 53 ° 0 min 0,000 mm 1,8 UV-I 290 W/m² 13,4 °C 17,5 °C 3,2 km/h (1 Bft)
23.10.2019 14:42 17,3 °C 76 % 1012,9 hPa 0,0 mm 0,3 km/h (0 Bft) NO 53 ° 0 min 0,000 mm 1,6 UV-I 221 W/m² 13,0 °C 17,3 °C 1,6 km/h (1 Bft)
23.10.2019 14:43 17,2 °C 77 % 1012,9 hPa 0,0 mm 0,8 km/h (0 Bft) NO 53 ° 0 min 0,000 mm 1,6 UV-I 188 W/m² 13,1 °C 17,2 °C 1,6 km/h (1 Bft)
23.10.2019 14:44 17,2 °C 76 % 1012,9 hPa 0,0 mm 2,2 km/h (1 Bft) O-SO 119 ° 0 min 0,000 mm 1,6 UV-I 227 W/m² 12,9 °C 17,2 °C 6,4 km/h (2 Bft)
23.10.2019 14:45 17,1 °C 77 % 1012,9 hPa 0,0 mm 2,7 km/h (1 Bft) O-SO 119 ° 0 min 0,000 mm 1,6 UV-I 218 W/m² 13,0 °C 17,1 °C 6,4 km/h (2 Bft)
23.10.2019 14:46 17,0 °C 78 % 1012,9 hPa 0,0 mm 2,9 km/h (1 Bft) O 93 ° 0 min 0,000 mm 1,6 UV-I 188 W/m² 13,1 °C 17,0 °C 6,4 km/h (2 Bft)
23.10.2019 14:47 16,9 °C 78 % 1012,8 hPa 0,0 mm 3,8 km/h (1 Bft) O 82 ° 0 min 0,000 mm 1,5 UV-I 171 W/m² 13,0 °C 16,9 °C 4,8 km/h (1 Bft)
23.10.2019 14:48 16,8 °C 78 % 1012,8 hPa 0,0 mm 2,2 km/h (1 Bft) O 82 ° 0 min 0,000 mm 1,5 UV-I 165 W/m² 12,9 °C 16,8 °C 3,2 km/h (1 Bft)
23.10.2019 14:49 16,8 °C 78 % 1012,9 hPa 0,0 mm 3,0 km/h (1 Bft) O-NO 61 ° 0 min 0,000 mm 1,5 UV-I 183 W/m² 12,9 °C 16,8 °C 4,8 km/h (1 Bft)
23.10.2019 14:50 16,9 °C 79 % 1012,9 hPa 0,0 mm 1,9 km/h (1 Bft) O-NO 61 ° 0 min 0,000 mm 1,5 UV-I 190 W/m² 13,2 °C 16,9 °C 3,2 km/h (1 Bft)
23.10.2019 14:51 16,9 °C 79 % 1012,9 hPa 0,0 mm 1,7 km/h (1 Bft) O-NO 69 ° 0 min 0,000 mm 1,6 UV-I 199 W/m² 13,2 °C 16,9 °C 4,8 km/h (1 Bft)
23.10.2019 14:52 16,8 °C 78 % 1012,9 hPa 0,0 mm 0,4 km/h (0 Bft) O-NO 69 ° 0 min 0,000 mm 1,6 UV-I 264 W/m² 12,9 °C 16,8 °C 1,6 km/h (1 Bft)
23.10.2019 14:53 16,8 °C 78 % 1012,8 hPa 0,0 mm 3,1 km/h (1 Bft) NO 51 ° 0 min 0,000 mm 1,7 UV-I 274 W/m² 12,9 °C 16,8 °C 6,4 km/h (2 Bft)
23.10.2019 14:54 16,7 °C 80 % 1012,9 hPa 0,0 mm 2,9 km/h (1 Bft) O-SO 106 ° 0 min 0,000 mm 1,8 UV-I 283 W/m² 13,2 °C 16,7 °C 6,4 km/h (2 Bft)
23.10.2019 14:55 16,8 °C 80 % 1012,8 hPa 0,0 mm 2,1 km/h (1 Bft) O-NO 59 ° 0 min 0,000 mm 1,8 UV-I 316 W/m² 13,3 °C 16,8 °C 4,8 km/h (1 Bft)
23.10.2019 14:56 16,9 °C 79 % 1012,8 hPa 0,0 mm 1,1 km/h (1 Bft) NO 49 ° 0 min 0,000 mm 1,8 UV-I 308 W/m² 13,2 °C 16,9 °C 3,2 km/h (1 Bft)
23.10.2019 14:57 17,1 °C 78 % 1012,9 hPa 0,0 mm 4,5 km/h (1 Bft) O-NO 71 ° 0 min 0,000 mm 1,8 UV-I 297 W/m² 13,2 °C 17,1 °C 9,7 km/h (2 Bft)
23.10.2019 14:58 17,2 °C 77 % 1012,9 hPa 0,0 mm 6,9 km/h (2 Bft) O-NO 67 ° 0 min 0,000 mm 1,7 UV-I 264 W/m² 13,1 °C 17,2 °C 12,9 km/h (3 Bft)
23.10.2019 14:59 17,3 °C 77 % 1012,9 hPa 0,0 mm 4,5 km/h (1 Bft) NO 43 ° 0 min 0,000 mm 1,6 UV-I 213 W/m² 13,2 °C 17,3 °C 6,4 km/h (2 Bft)
23.10.2019 15:00 17,3 °C 78 % 1012,8 hPa 0,0 mm 5,6 km/h (1 Bft) NO 38 ° 0 min 0,203 mm 1,6 UV-I 211 W/m² 13,4 °C 17,3 °C 8,0 km/h (2 Bft)
23.10.2019 15:01 17,3 °C 77 % 1012,8 hPa 0,0 mm 2,7 km/h (1 Bft) O-NO 61 ° 0 min 0,000 mm 1,6 UV-I 236 W/m² 13,2 °C 17,3 °C 6,4 km/h (2 Bft)
23.10.2019 15:02 17,3 °C 77 % 1012,8 hPa 0,0 mm 4,1 km/h (1 Bft) O-NO 67 ° 0 min 0,000 mm 1,7 UV-I 253 W/m² 13,2 °C 17,3 °C 6,4 km/h (2 Bft)
23.10.2019 15:03 17,1 °C 78 % 1012,8 hPa 0,0 mm 2,9 km/h (1 Bft) NO 48 ° 0 min 0,000 mm 1,9 UV-I 339 W/m² 13,2 °C 17,1 °C 6,4 km/h (2 Bft)
23.10.2019 15:04 17,0 °C 78 % 1012,8 hPa 0,0 mm 6,2 km/h (2 Bft) O-NO 76 ° 0 min 0,000 mm 2,0 UV-I 330 W/m² 13,1 °C 17,0 °C 11,3 km/h (2 Bft)
23.10.2019 15:05 17,0 °C 78 % 1012,8 hPa 0,0 mm 5,3 km/h (1 Bft) O-NO 59 ° 0 min 0,000 mm 2,1 UV-I 427 W/m² 13,1 °C 17,0 °C 9,7 km/h (2 Bft)
23.10.2019 15:06 17,1 °C 78 % 1012,8 hPa 0,0 mm 5,8 km/h (2 Bft) NO 53 ° 0 min 0,000 mm 2,0 UV-I 385 W/m² 13,2 °C 17,1 °C 8,0 km/h (2 Bft)
23.10.2019 15:07 17,2 °C 77 % 1012,8 hPa 0,0 mm 3,6 km/h (1 Bft) NO 51 ° 0 min 0,000 mm 2,1 UV-I 422 W/m² 13,1 °C 17,2 °C 6,4 km/h (2 Bft)
23.10.2019 15:08 17,2 °C 78 % 1012,8 hPa 0,0 mm 5,6 km/h (1 Bft) NO 53 ° 0 min 0,000 mm 2,1 UV-I 425 W/m² 13,3 °C 17,2 °C 6,4 km/h (2 Bft)
23.10.2019 15:09 17,3 °C 77 % 1012,8 hPa 0,0 mm 2,6 km/h (1 Bft) O-SO 113 ° 0 min 0,000 mm 2,1 UV-I 455 W/m² 13,2 °C 17,3 °C 4,8 km/h (1 Bft)
23.10.2019 15:10 17,4 °C 77 % 1012,8 hPa 0,0 mm 2,9 km/h (1 Bft) NO 42 ° 0 min 0,000 mm 2,1 UV-I 441 W/m² 13,3 °C 17,4 °C 3,2 km/h (1 Bft)
23.10.2019 15:11 17,5 °C 77 % 1012,8 hPa 0,0 mm 3,0 km/h (1 Bft) NO 44 ° 0 min 0,000 mm 2,2 UV-I 461 W/m² 13,4 °C 17,5 °C 6,4 km/h (2 Bft)
23.10.2019 15:12 17,5 °C 77 % 1012,8 hPa 0,0 mm 1,0 km/h (0 Bft) NO 44 ° 0 min 0,000 mm 2,1 UV-I 431 W/m² 13,4 °C 17,5 °C 3,2 km/h (1 Bft)
23.10.2019 15:13 17,4 °C 76 % 1012,8 hPa 0,0 mm 4,8 km/h (1 Bft) O-NO 64 ° 0 min 0,000 mm 2,1 UV-I 425 W/m² 13,1 °C 17,4 °C 12,9 km/h (3 Bft)
23.10.2019 15:14 17,5 °C 75 % 1012,8 hPa 0,0 mm 5,6 km/h (1 Bft) O-NO 78 ° 0 min 0,000 mm 2,1 UV-I 429 W/m² 13,0 °C 17,5 °C 9,7 km/h (2 Bft)
23.10.2019 15:15 17,6 °C 75 % 1012,8 hPa 0,0 mm 1,5 km/h (1 Bft) O-NO 76 ° 0 min 0,000 mm 2,1 UV-I 429 W/m² 13,1 °C 17,6 °C 6,4 km/h (2 Bft)
23.10.2019 15:16 17,6 °C 76 % 1012,8 hPa 0,0 mm 3,5 km/h (1 Bft) O-NO 75 ° 0 min 0,000 mm 1,9 UV-I 417 W/m² 13,3 °C 17,6 °C 8,0 km/h (2 Bft)
23.10.2019 15:17 17,4 °C 77 % 1012,7 hPa 0,0 mm 3,1 km/h (1 Bft) O-NO 76 ° 0 min 0,000 mm 2,0 UV-I 399 W/m² 13,3 °C 17,4 °C 6,4 km/h (2 Bft)
23.10.2019 15:18 17,2 °C 77 % 1012,6 hPa 0,0 mm 1,3 km/h (1 Bft) O-NO 76 ° 0 min 0,000 mm 2,0 UV-I 420 W/m² 13,1 °C 17,2 °C 3,2 km/h (1 Bft)
23.10.2019 15:19 17,1 °C 77 % 1012,6 hPa 0,0 mm 3,1 km/h (1 Bft) O-SO 117 ° 0 min 0,000 mm 2,0 UV-I 429 W/m² 13,0 °C 17,1 °C 4,8 km/h (1 Bft)
23.10.2019 15:20 17,3 °C 78 % 1012,5 hPa 0,0 mm 0,0 km/h (0 Bft) O-SO 117 ° 0 min 0,000 mm 2,0 UV-I 432 W/m² 13,4 °C 17,3 °C 0,0 km/h (0 Bft)
23.10.2019 15:21 17,3 °C 79 % 1012,5 hPa 0,0 mm 4,0 km/h (1 Bft) O 90 ° 0 min 0,000 mm 2,0 UV-I 371 W/m² 13,6 °C 17,3 °C 9,7 km/h (2 Bft)
23.10.2019 15:22 17,2 °C 79 % 1012,5 hPa 0,0 mm 4,4 km/h (1 Bft) O 80 ° 0 min 0,000 mm 1,9 UV-I 371 W/m² 13,5 °C 17,2 °C 6,4 km/h (2 Bft)
23.10.2019 15:23 17,3 °C 79 % 1012,5 hPa 0,0 mm 2,0 km/h (1 Bft) O 80 ° 0 min 0,000 mm 1,9 UV-I 388 W/m² 13,6 °C 17,3 °C 4,8 km/h (1 Bft)
23.10.2019 15:24 17,3 °C 80 % 1012,5 hPa 0,0 mm 1,1 km/h (1 Bft) O 80 ° 0 min 0,000 mm 1,9 UV-I 380 W/m² 13,8 °C 17,3 °C 3,2 km/h (1 Bft)
23.10.2019 15:25 17,2 °C 79 % 1012,5 hPa 0,0 mm 3,4 km/h (1 Bft) O 80 ° 0 min 0,000 mm 1,6 UV-I 380 W/m² 13,5 °C 17,2 °C 6,4 km/h (2 Bft)
23.10.2019 15:26 17,1 °C 80 % 1012,5 hPa 0,0 mm 2,9 km/h (1 Bft) O-NO 59 ° 0 min 0,000 mm 1,8 UV-I 362 W/m² 13,6 °C 17,1 °C 4,8 km/h (1 Bft)
23.10.2019 15:27 17,1 °C 80 % 1012,5 hPa 0,0 mm 2,7 km/h (1 Bft) O-NO 59 ° 0 min 0,000 mm 1,8 UV-I 332 W/m² 13,6 °C 17,1 °C 4,8 km/h (1 Bft)
23.10.2019 15:28 17,1 °C 80 % 1012,4 hPa 0,0 mm 4,1 km/h (1 Bft) NO 55 ° 0 min 0,000 mm 1,7 UV-I 260 W/m² 13,6 °C 17,1 °C 6,4 km/h (2 Bft)
23.10.2019 15:29 17,0 °C 82 % 1012,4 hPa 0,0 mm 6,0 km/h (2 Bft) O-NO 62 ° 0 min 0,000 mm 1,6 UV-I 251 W/m² 13,9 °C 17,0 °C 9,7 km/h (2 Bft)
23.10.2019 15:30 16,9 °C 82 % 1012,3 hPa 0,0 mm 7,8 km/h (2 Bft) O-NO 66 ° 0 min 0,000 mm 1,6 UV-I 309 W/m² 13,8 °C 16,9 °C 11,3 km/h (2 Bft)
23.10.2019 15:31 16,9 °C 82 % 1012,3 hPa 0,0 mm 5,5 km/h (1 Bft) O 87 ° 0 min 0,000 mm 1,6 UV-I 313 W/m² 13,8 °C 16,9 °C 6,4 km/h (2 Bft)
23.10.2019 15:32 16,8 °C 82 % 1012,3 hPa 0,0 mm 5,1 km/h (1 Bft) O-NO 62 ° 0 min 0,000 mm 1,6 UV-I 311 W/m² 13,7 °C 16,8 °C 8,0 km/h (2 Bft)
23.10.2019 15:33 16,7 °C 84 % 1012,3 hPa 0,0 mm 4,7 km/h (1 Bft) O-NO 74 ° 0 min 0,000 mm 1,6 UV-I 330 W/m² 14,0 °C 16,7 °C 8,0 km/h (2 Bft)
23.10.2019 15:34 16,7 °C 83 % 1012,3 hPa 0,0 mm 4,3 km/h (1 Bft) O-NO 74 ° 0 min 0,000 mm 1,6 UV-I 334 W/m² 13,8 °C 16,7 °C 6,4 km/h (2 Bft)
23.10.2019 15:35 16,6 °C 83 % 1012,3 hPa 0,0 mm 2,7 km/h (1 Bft) O-NO 74 ° 0 min 0,000 mm 1,6 UV-I 330 W/m² 13,7 °C 16,6 °C 4,8 km/h (1 Bft)
23.10.2019 15:36 16,6 °C 84 % 1012,3 hPa 0,0 mm 4,6 km/h (1 Bft) O-NO 78 ° 0 min 0,000 mm 1,5 UV-I 295 W/m² 13,9 °C 16,6 °C 6,4 km/h (2 Bft)
23.10.2019 15:37 16,6 °C 83 % 1012,3 hPa 0,0 mm 5,7 km/h (1 Bft) O-NO 77 ° 0 min 0,000 mm 1,5 UV-I 220 W/m² 13,7 °C 16,6 °C 9,7 km/h (2 Bft)
23.10.2019 15:38 16,7 °C 83 % 1012,3 hPa 0,0 mm 3,8 km/h (1 Bft) O-NO 69 ° 0 min 0,000 mm 1,5 UV-I 311 W/m² 13,8 °C 16,7 °C 6,4 km/h (2 Bft)
23.10.2019 15:39 16,8 °C 83 % 1012,3 hPa 0,0 mm 4,5 km/h (1 Bft) O-NO 77 ° 0 min 0,000 mm 1,5 UV-I 288 W/m² 13,9 °C 16,8 °C 6,4 km/h (2 Bft)
23.10.2019 15:40 16,8 °C 83 % 1012,3 hPa 0,0 mm 3,1 km/h (1 Bft) NO 56 ° 0 min 0,000 mm 1,4 UV-I 244 W/m² 13,9 °C 16,8 °C 4,8 km/h (1 Bft)
23.10.2019 15:41 16,8 °C 82 % 1012,2 hPa 0,0 mm 3,6 km/h (1 Bft) O-NO 63 ° 0 min 0,000 mm 1,5 UV-I 299 W/m² 13,7 °C 16,8 °C 6,4 km/h (2 Bft)
23.10.2019 15:42 16,8 °C 82 % 1012,2 hPa 0,0 mm 3,1 km/h (1 Bft) O-NO 61 ° 0 min 0,000 mm 1,4 UV-I 287 W/m² 13,7 °C 16,8 °C 4,8 km/h (1 Bft)
23.10.2019 15:43 17,0 °C 81 % 1012,2 hPa 0,0 mm 1,1 km/h (1 Bft) O-NO 61 ° 0 min 0,000 mm 1,4 UV-I 288 W/m² 13,7 °C 17,0 °C 3,2 km/h (1 Bft)
23.10.2019 15:44 17,1 °C 82 % 1012,2 hPa 0,0 mm 0,0 km/h (0 Bft) O-NO 61 ° 0 min 0,000 mm 1,4 UV-I 290 W/m² 14,0 °C 17,1 °C 0,0 km/h (0 Bft)
23.10.2019 15:45 17,2 °C 81 % 1012,2 hPa 0,0 mm 1,6 km/h (1 Bft) O-NO 61 ° 0 min 0,000 mm 1,4 UV-I 318 W/m² 13,9 °C 17,2 °C 3,2 km/h (1 Bft)
23.10.2019 15:46 17,1 °C 81 % 1012,3 hPa 0,0 mm 3,7 km/h (1 Bft) O-NO 69 ° 0 min 0,000 mm 1,4 UV-I 322 W/m² 13,8 °C 17,1 °C 8,0 km/h (2 Bft)
23.10.2019 15:47 17,1 °C 81 % 1012,2 hPa 0,0 mm 2,5 km/h (1 Bft) O-NO 76 ° 0 min 0,000 mm 1,5 UV-I 323 W/m² 13,8 °C 17,1 °C 6,4 km/h (2 Bft)
23.10.2019 15:48 17,1 °C 81 % 1012,3 hPa 0,0 mm 4,9 km/h (1 Bft) O-NO 62 ° 0 min 0,000 mm 1,4 UV-I 334 W/m² 13,8 °C 17,1 °C 8,0 km/h (2 Bft)
23.10.2019 15:49 17,3 °C 81 % 1012,3 hPa 0,0 mm 5,2 km/h (1 Bft) O-NO 65 ° 0 min 0,000 mm 1,4 UV-I 316 W/m² 14,0 °C 17,3 °C 8,0 km/h (2 Bft)
23.10.2019 15:50 17,4 °C 81 % 1012,3 hPa 0,0 mm 5,7 km/h (1 Bft) O 98 ° 0 min 0,000 mm 1,4 UV-I 311 W/m² 14,1 °C 17,4 °C 9,7 km/h (2 Bft)
23.10.2019 15:51 17,4 °C 81 % 1012,2 hPa 0,0 mm 3,1 km/h (1 Bft) O 101 ° 0 min 0,000 mm 1,4 UV-I 318 W/m² 14,1 °C 17,4 °C 4,8 km/h (1 Bft)
23.10.2019 15:52 17,4 °C 81 % 1012,2 hPa 0,0 mm 5,1 km/h (1 Bft) O-NO 68 ° 0 min 0,000 mm 1,4 UV-I 318 W/m² 14,1 °C 17,4 °C 6,4 km/h (2 Bft)
23.10.2019 15:53 17,5 °C 80 % 1012,1 hPa 0,0 mm 2,7 km/h (1 Bft) O-NO 63 ° 0 min 0,000 mm 1,2 UV-I 318 W/m² 14,0 °C 17,5 °C 4,8 km/h (1 Bft)
23.10.2019 15:54 17,3 °C 81 % 1012,1 hPa 0,0 mm 7,4 km/h (2 Bft) O 83 ° 0 min 0,000 mm 1,4 UV-I 287 W/m² 14,0 °C 17,3 °C 16,1 km/h (3 Bft)
23.10.2019 15:55 17,2 °C 81 % 1012,1 hPa 0,0 mm 6,6 km/h (2 Bft) NO 49 ° 0 min 0,000 mm 1,4 UV-I 306 W/m² 13,9 °C 17,2 °C 12,9 km/h (3 Bft)
23.10.2019 15:56 17,0 °C 82 % 1012,1 hPa 0,0 mm 2,3 km/h (1 Bft) O 81 ° 0 min 0,000 mm 1,3 UV-I 304 W/m² 13,9 °C 17,0 °C 4,8 km/h (1 Bft)
23.10.2019 15:57 16,9 °C 83 % 1012,1 hPa 0,0 mm 5,5 km/h (1 Bft) O-NO 77 ° 0 min 0,000 mm 1,3 UV-I 295 W/m² 14,0 °C 16,9 °C 9,7 km/h (2 Bft)
23.10.2019 15:58 16,9 °C 83 % 1012,1 hPa 0,0 mm 3,2 km/h (1 Bft) O 87 ° 0 min 0,000 mm 1,3 UV-I 274 W/m² 14,0 °C 16,9 °C 4,8 km/h (1 Bft)
23.10.2019 15:59 16,9 °C 84 % 1012,1 hPa 0,0 mm 3,2 km/h (1 Bft) O-SO 113 ° 0 min 0,000 mm 1,2 UV-I 230 W/m² 14,2 °C 16,9 °C 4,8 km/h (1 Bft)
23.10.2019 16:00 16,9 °C 83 % 1012,2 hPa 0,0 mm 3,2 km/h (1 Bft) O-SO 113 ° 0 min 0,000 mm 1,1 UV-I 171 W/m² 14,0 °C 16,9 °C 3,2 km/h (1 Bft)
23.10.2019 16:01 16,9 °C 83 % 1012,1 hPa 0,0 mm 3,7 km/h (1 Bft) O-NO 78 ° 0 min 0,203 mm 1,1 UV-I 153 W/m² 14,0 °C 16,9 °C 4,8 km/h (1 Bft)
23.10.2019 16:02 17,0 °C 83 % 1012,1 hPa 0,0 mm 1,2 km/h (1 Bft) O 79 ° 0 min 0,000 mm 1,1 UV-I 160 W/m² 14,1 °C 17,0 °C 3,2 km/h (1 Bft)
23.10.2019 16:03 17,0 °C 83 % 1012,1 hPa 0,0 mm 2,4 km/h (1 Bft) O 90 ° 0 min 0,000 mm 1,1 UV-I 144 W/m² 14,1 °C 17,0 °C 9,7 km/h (2 Bft)
23.10.2019 16:04 17,1 °C 82 % 1012,1 hPa 0,0 mm 5,3 km/h (1 Bft) NO 44 ° 0 min 0,000 mm 1,1 UV-I 160 W/m² 14,0 °C 17,1 °C 9,7 km/h (2 Bft)
23.10.2019 16:05 17,2 °C 82 % 1012,2 hPa 0,0 mm 3,0 km/h (1 Bft) NO 53 ° 0 min 0,000 mm 1,2 UV-I 216 W/m² 14,1 °C 17,2 °C 8,0 km/h (2 Bft)
23.10.2019 16:06 17,3 °C 81 % 1012,0 hPa 0,0 mm 5,1 km/h (1 Bft) O-SO 115 ° 0 min 0,000 mm 1,2 UV-I 260 W/m² 14,0 °C 17,3 °C 9,7 km/h (2 Bft)
23.10.2019 16:07 17,3 °C 81 % 1012,0 hPa 0,0 mm 0,5 km/h (0 Bft) S-SO 166 ° 0 min 0,000 mm 1,1 UV-I 220 W/m² 14,0 °C 17,3 °C 4,8 km/h (1 Bft)
23.10.2019 16:08 17,4 °C 80 % 1012,0 hPa 0,0 mm 4,6 km/h (1 Bft) O-NO 78 ° 0 min 0,000 mm 1,1 UV-I 186 W/m² 13,9 °C 17,4 °C 6,4 km/h (2 Bft)
23.10.2019 16:09 17,4 °C 80 % 1012,0 hPa 0,0 mm 4,5 km/h (1 Bft) O-NO 69 ° 0 min 0,000 mm 1,1 UV-I 186 W/m² 13,9 °C 17,4 °C 8,0 km/h (2 Bft)
23.10.2019 16:10 17,4 °C 80 % 1012,0 hPa 0,0 mm 5,1 km/h (1 Bft) NO 56 ° 0 min 0,000 mm 1,1 UV-I 207 W/m² 13,9 °C 17,4 °C 6,4 km/h (2 Bft)
23.10.2019 16:11 17,5 °C 80 % 1012,0 hPa 0,0 mm 6,6 km/h (2 Bft) O 83 ° 0 min 0,000 mm 1,1 UV-I 185 W/m² 14,0 °C 17,5 °C 11,3 km/h (2 Bft)
23.10.2019 16:12 17,5 °C 80 % 1012,0 hPa 0,0 mm 5,1 km/h (1 Bft) SO 126 ° 0 min 0,000 mm 1,0 UV-I 188 W/m² 14,0 °C 17,5 °C 9,7 km/h (2 Bft)
23.10.2019 16:13 17,3 °C 80 % 1012,0 hPa 0,0 mm 3,3 km/h (1 Bft) O-SO 105 ° 0 min 0,000 mm 1,0 UV-I 202 W/m² 13,8 °C 17,3 °C 4,8 km/h (1 Bft)
23.10.2019 16:14 17,3 °C 80 % 1012,0 hPa 0,0 mm 5,3 km/h (1 Bft) O 88 ° 0 min 0,000 mm 1,0 UV-I 197 W/m² 13,8 °C 17,3 °C 11,3 km/h (2 Bft)
23.10.2019 16:15 17,3 °C 80 % 1011,9 hPa 0,0 mm 3,2 km/h (1 Bft) O-NO 57 ° 0 min 0,000 mm 1,0 UV-I 195 W/m² 13,8 °C 17,3 °C 6,4 km/h (2 Bft)
23.10.2019 16:16 17,2 °C 81 % 1011,9 hPa 0,0 mm 5,0 km/h (1 Bft) NO 52 ° 0 min 0,000 mm 1,0 UV-I 202 W/m² 13,9 °C 17,2 °C 11,3 km/h (2 Bft)
23.10.2019 16:17 17,2 °C 81 % 1011,9 hPa 0,0 mm 3,0 km/h (1 Bft) O-NO 75 ° 0 min 0,000 mm 1,0 UV-I 209 W/m² 13,9 °C 17,2 °C 6,4 km/h (2 Bft)
23.10.2019 16:18 17,2 °C 81 % 1011,9 hPa 0,0 mm 4,8 km/h (1 Bft) S-SO 150 ° 0 min 0,000 mm 1,0 UV-I 188 W/m² 13,9 °C 17,2 °C 11,3 km/h (2 Bft)
23.10.2019 16:19 17,2 °C 81 % 1011,9 hPa 0,0 mm 2,9 km/h (1 Bft) NO 55 ° 0 min 0,000 mm 0,9 UV-I 153 W/m² 13,9 °C 17,2 °C 8,0 km/h (2 Bft)
23.10.2019 16:20 17,2 °C 81 % 1011,9 hPa 0,0 mm 5,0 km/h (1 Bft) O-NO 60 ° 0 min 0,000 mm 0,9 UV-I 67 W/m² 13,9 °C 17,2 °C 9,7 km/h (2 Bft)
23.10.2019 16:21 17,2 °C 81 % 1012,0 hPa 0,0 mm 1,4 km/h (1 Bft) O-NO 65 ° 0 min 0,000 mm 0,8 UV-I 58 W/m² 13,9 °C 17,2 °C 6,4 km/h (2 Bft)
23.10.2019 16:22 17,3 °C 81 % 1011,9 hPa 0,0 mm 6,7 km/h (2 Bft) O-NO 69 ° 0 min 0,000 mm 0,0 UV-I 44 W/m² 14,0 °C 17,3 °C 14,5 km/h (3 Bft)
23.10.2019 16:23 17,2 °C 81 % 1011,9 hPa 0,0 mm 3,6 km/h (1 Bft) O-NO 74 ° 0 min 0,000 mm 0,0 UV-I 37 W/m² 13,9 °C 17,2 °C 8,0 km/h (2 Bft)
23.10.2019 16:24 17,2 °C 81 % 1011,8 hPa 0,0 mm 2,8 km/h (1 Bft) SO 130 ° 0 min 0,000 mm 0,0 UV-I 35 W/m² 13,9 °C 17,2 °C 4,8 km/h (1 Bft)
23.10.2019 16:25 17,1 °C 81 % 1011,9 hPa 0,0 mm 3,3 km/h (1 Bft) SO 130 ° 0 min 0,000 mm 0,0 UV-I 33 W/m² 13,8 °C 17,1 °C 4,8 km/h (1 Bft)
23.10.2019 16:26 17,0 °C 81 % 1011,9 hPa 0,0 mm 1,5 km/h (1 Bft) O-SO 117 ° 0 min 0,000 mm 0,0 UV-I 32 W/m² 13,7 °C 17,0 °C 3,2 km/h (1 Bft)
23.10.2019 16:27 16,9 °C 81 % 1011,9 hPa 0,0 mm 1,6 km/h (1 Bft) O-SO 114 ° 0 min 0,000 mm 0,0 UV-I 32 W/m² 13,6 °C 16,9 °C 3,2 km/h (1 Bft)
23.10.2019 16:28 16,9 °C 82 % 1011,9 hPa 0,0 mm 4,6 km/h (1 Bft) O-SO 102 ° 0 min 0,000 mm 0,0 UV-I 30 W/m² 13,8 °C 16,9 °C 6,4 km/h (2 Bft)
23.10.2019 16:29 16,9 °C 82 % 1011,9 hPa 0,0 mm 6,9 km/h (2 Bft) SO 128 ° 0 min 0,000 mm 0,0 UV-I 30 W/m² 13,8 °C 16,9 °C 12,9 km/h (3 Bft)
23.10.2019 16:30 16,8 °C 82 % 1011,9 hPa 0,0 mm 7,4 km/h (2 Bft) SO 128 ° 0 min 0,000 mm 0,0 UV-I 28 W/m² 13,7 °C 16,8 °C 12,9 km/h (3 Bft)
23.10.2019 16:31 16,8 °C 82 % 1011,8 hPa 0,0 mm 9,3 km/h (2 Bft) O 88 ° 0 min 0,000 mm 0,0 UV-I 28 W/m² 13,7 °C 16,8 °C 17,7 km/h (3 Bft)
23.10.2019 16:32 16,8 °C 82 % 1011,8 hPa 0,0 mm 6,6 km/h (2 Bft) O-NO 67 ° 0 min 0,000 mm 0,0 UV-I 30 W/m² 13,7 °C 16,8 °C 12,9 km/h (3 Bft)
23.10.2019 16:33 16,7 °C 82 % 1011,8 hPa 0,0 mm 3,6 km/h (1 Bft) O-NO 69 ° 0 min 0,000 mm 0,0 UV-I 28 W/m² 13,6 °C 16,7 °C 6,4 km/h (2 Bft)
23.10.2019 16:34 16,7 °C 82 % 1011,8 hPa 0,0 mm 3,4 km/h (1 Bft) O-NO 69 ° 0 min 0,000 mm 0,0 UV-I 28 W/m² 13,6 °C 16,7 °C 4,8 km/h (1 Bft)
23.10.2019 16:35 16,6 °C 83 % 1011,8 hPa 0,0 mm 5,2 km/h (1 Bft) O 82 ° 0 min 0,000 mm 0,0 UV-I 26 W/m² 13,7 °C 16,6 °C 9,7 km/h (2 Bft)
23.10.2019 16:36 16,6 °C 83 % 1011,8 hPa 0,0 mm 3,3 km/h (1 Bft) O-NO 78 ° 0 min 0,000 mm 0,0 UV-I 26 W/m² 13,7 °C 16,6 °C 4,8 km/h (1 Bft)
23.10.2019 16:37 16,6 °C 83 % 1011,8 hPa 0,0 mm 6,0 km/h (2 Bft) NO 49 ° 0 min 0,000 mm 0,0 UV-I 26 W/m² 13,7 °C 16,6 °C 11,3 km/h (2 Bft)
23.10.2019 16:38 16,5 °C 83 % 1011,8 hPa 0,0 mm 4,6 km/h (1 Bft) O-NO 63 ° 0 min 0,000 mm 0,0 UV-I 26 W/m² 13,6 °C 16,5 °C 8,0 km/h (2 Bft)
23.10.2019 16:39 16,4 °C 83 % 1011,8 hPa 0,0 mm 3,8 km/h (1 Bft) O-NO 65 ° 0 min 0,000 mm 0,0 UV-I 28 W/m² 13,5 °C 16,4 °C 6,4 km/h (2 Bft)
23.10.2019 16:40 16,4 °C 83 % 1011,8 hPa 0,0 mm 0,4 km/h (0 Bft) O-NO 65 ° 0 min 0,000 mm 0,0 UV-I 28 W/m² 13,5 °C 16,4 °C 1,6 km/h (1 Bft)
23.10.2019 16:41 16,3 °C 84 % 1011,8 hPa 0,0 mm 2,6 km/h (1 Bft) O-NO 65 ° 0 min 0,000 mm 0,0 UV-I 30 W/m² 13,6 °C 16,3 °C 4,8 km/h (1 Bft)
23.10.2019 16:42 16,2 °C 84 % 1011,8 hPa 0,0 mm 1,5 km/h (1 Bft) O-NO 65 ° 0 min 0,000 mm 0,0 UV-I 30 W/m² 13,5 °C 16,2 °C 3,2 km/h (1 Bft)
23.10.2019 16:43 16,1 °C 84 % 1011,8 hPa 0,0 mm 2,2 km/h (1 Bft) O-NO 65 ° 0 min 0,000 mm 0,0 UV-I 32 W/m² 13,4 °C 16,1 °C 6,4 km/h (2 Bft)
23.10.2019 16:44 15,9 °C 85 % 1011,9 hPa 0,0 mm 0,0 km/h (0 Bft) O-NO 65 ° 0 min 0,000 mm 0,0 UV-I 33 W/m² 13,4 °C 15,9 °C 0,0 km/h (0 Bft)
23.10.2019 16:45 15,8 °C 84 % 1011,9 hPa 0,0 mm 0,1 km/h (0 Bft) O-NO 65 ° 0 min 0,000 mm 0,0 UV-I 33 W/m² 13,1 °C 15,8 °C 1,6 km/h (1 Bft)
23.10.2019 16:46 15,7 °C 85 % 1011,9 hPa 0,0 mm 3,4 km/h (1 Bft) O 96 ° 0 min 0,000 mm 0,0 UV-I 35 W/m² 13,2 °C 15,7 °C 8,0 km/h (2 Bft)
23.10.2019 16:47 15,6 °C 85 % 1011,9 hPa 0,0 mm 0,5 km/h (0 Bft) O 96 ° 0 min 0,000 mm 0,0 UV-I 37 W/m² 13,1 °C 15,6 °C 3,2 km/h (1 Bft)
23.10.2019 16:48 15,6 °C 86 % 1011,9 hPa 0,0 mm 1,3 km/h (1 Bft) NO 46 ° 0 min 0,000 mm 0,0 UV-I 37 W/m² 13,3 °C 15,6 °C 3,2 km/h (1 Bft)
23.10.2019 16:49 15,5 °C 86 % 1011,9 hPa 0,0 mm 4,0 km/h (1 Bft) NO 55 ° 0 min 0,000 mm 0,0 UV-I 39 W/m² 13,2 °C 15,5 °C 6,4 km/h (2 Bft)
23.10.2019 16:50 15,5 °C 86 % 1011,9 hPa 0,0 mm 1,5 km/h (1 Bft) O-NO 57 ° 0 min 0,000 mm 0,0 UV-I 40 W/m² 13,2 °C 15,5 °C 4,8 km/h (1 Bft)
23.10.2019 16:51 15,4 °C 86 % 1011,8 hPa 0,0 mm 5,8 km/h (2 Bft) NO 42 ° 0 min 0,000 mm 0,0 UV-I 40 W/m² 13,1 °C 15,4 °C 12,9 km/h (3 Bft)
23.10.2019 16:52 15,4 °C 86 % 1011,8 hPa 0,0 mm 7,5 km/h (2 Bft) N-NO 30 ° 0 min 0,000 mm 0,0 UV-I 40 W/m² 13,1 °C 15,4 °C 9,7 km/h (2 Bft)
23.10.2019 16:53 15,6 °C 87 % 1011,8 hPa 0,0 mm 6,1 km/h (2 Bft) O-NO 68 ° 0 min 0,000 mm 0,0 UV-I 42 W/m² 13,4 °C 15,6 °C 9,7 km/h (2 Bft)
23.10.2019 16:54 15,7 °C 86 % 1011,8 hPa 0,0 mm 5,1 km/h (1 Bft) O-NO 64 ° 0 min 0,000 mm 0,0 UV-I 42 W/m² 13,4 °C 15,7 °C 6,4 km/h (2 Bft)
23.10.2019 16:55 15,8 °C 86 % 1011,9 hPa 0,0 mm 4,2 km/h (1 Bft) NO 46 ° 0 min 0,000 mm 0,0 UV-I 42 W/m² 13,5 °C 15,8 °C 6,4 km/h (2 Bft)
23.10.2019 16:56 15,8 °C 86 % 1011,9 hPa 0,0 mm 3,4 km/h (1 Bft) N-NO 23 ° 0 min 0,000 mm 0,0 UV-I 42 W/m² 13,5 °C 15,8 °C 6,4 km/h (2 Bft)
23.10.2019 16:57 15,9 °C 86 % 1011,9 hPa 0,0 mm 2,3 km/h (1 Bft) N-NO 23 ° 0 min 0,000 mm 0,0 UV-I 40 W/m² 13,6 °C 15,9 °C 3,2 km/h (1 Bft)
23.10.2019 16:58 15,9 °C 85 % 1011,9 hPa 0,0 mm 2,2 km/h (1 Bft) N-NO 23 ° 0 min 0,000 mm 0,0 UV-I 40 W/m² 13,4 °C 15,9 °C 3,2 km/h (1 Bft)
23.10.2019 16:59 15,9 °C 85 % 1011,9 hPa 0,0 mm 2,6 km/h (1 Bft) NO 37 ° 0 min 0,000 mm 0,0 UV-I 40 W/m² 13,4 °C 15,9 °C 4,8 km/h (1 Bft)
23.10.2019 17:00 15,9 °C 85 % 1011,9 hPa 0,0 mm 1,4 km/h (1 Bft) NO 37 ° 0 min 0,000 mm 0,0 UV-I 40 W/m² 13,4 °C 15,9 °C 3,2 km/h (1 Bft)
23.10.2019 17:01 15,9 °C 85 % 1011,9 hPa 0,0 mm 0,5 km/h (0 Bft) NO 37 ° 0 min 0,051 mm 0,0 UV-I 39 W/m² 13,4 °C 15,9 °C 1,6 km/h (1 Bft)
23.10.2019 17:02 15,9 °C 85 % 1012,0 hPa 0,0 mm 0,0 km/h (0 Bft) NO 37 ° 0 min 0,000 mm 0,0 UV-I 39 W/m² 13,4 °C 15,9 °C 0,0 km/h (0 Bft)
23.10.2019 17:03 16,0 °C 85 % 1012,0 hPa 0,0 mm 0,2 km/h (0 Bft) NO 37 ° 0 min 0,000 mm 0,0 UV-I 39 W/m² 13,5 °C 16,0 °C 1,6 km/h (1 Bft)
23.10.2019 17:04 15,9 °C 85 % 1011,9 hPa 0,0 mm 1,7 km/h (1 Bft) NO 37 ° 0 min 0,000 mm 0,0 UV-I 37 W/m² 13,4 °C 15,9 °C 3,2 km/h (1 Bft)
23.10.2019 17:05 15,8 °C 84 % 1011,9 hPa 0,0 mm 1,8 km/h (1 Bft) NO 37 ° 0 min 0,000 mm 0,0 UV-I 37 W/m² 13,1 °C 15,8 °C 3,2 km/h (1 Bft)
23.10.2019 17:06 15,6 °C 85 % 1012,0 hPa 0,0 mm 1,3 km/h (1 Bft) NO 37 ° 0 min 0,000 mm 0,0 UV-I 35 W/m² 13,1 °C 15,6 °C 3,2 km/h (1 Bft)
23.10.2019 17:07 15,5 °C 86 % 1012,0 hPa 0,0 mm 0,9 km/h (0 Bft) NO 37 ° 0 min 0,000 mm 0,0 UV-I 35 W/m² 13,2 °C 15,5 °C 3,2 km/h (1 Bft)
23.10.2019 17:08 15,4 °C 86 % 1011,9 hPa 0,0 mm 0,0 km/h (0 Bft) NO 37 ° 0 min 0,000 mm 0,0 UV-I 35 W/m² 13,1 °C 15,4 °C 0,0 km/h (0 Bft)
23.10.2019 17:09 15,3 °C 86 % 1011,9 hPa 0,0 mm 0,0 km/h (0 Bft) NO 37 ° 0 min 0,000 mm 0,0 UV-I 35 W/m² 13,0 °C 15,3 °C 0,0 km/h (0 Bft)
23.10.2019 17:10 15,4 °C 87 % 1011,9 hPa 0,0 mm 0,0 km/h (0 Bft) NO 56 ° 0 min 0,000 mm 0,0 UV-I 35 W/m² 13,2 °C 15,4 °C 0,0 km/h (0 Bft)
23.10.2019 17:11 15,4 °C 87 % 1011,9 hPa 0,0 mm 0,0 km/h (0 Bft) O 86 ° 0 min 0,000 mm 0,0 UV-I 33 W/m² 13,2 °C 15,4 °C 0,0 km/h (0 Bft)
23.10.2019 17:12 15,4 °C 87 % 1011,9 hPa 0,0 mm 0,0 km/h (0 Bft) O 86 ° 0 min 0,000 mm 0,0 UV-I 33 W/m² 13,2 °C 15,4 °C 0,0 km/h (0 Bft)
23.10.2019 17:13 15,4 °C 87 % 1011,9 hPa 0,0 mm 0,0 km/h (0 Bft) O 86 ° 0 min 0,000 mm 0,0 UV-I 32 W/m² 13,2 °C 15,4 °C 0,0 km/h (0 Bft)
23.10.2019 17:14 15,3 °C 87 % 1011,9 hPa 0,0 mm 0,0 km/h (0 Bft) O 86 ° 0 min 0,000 mm 0,0 UV-I 32 W/m² 13,1 °C 15,3 °C 0,0 km/h (0 Bft)
23.10.2019 17:15 15,3 °C 87 % 1011,9 hPa 0,0 mm 2,5 km/h (1 Bft) O-NO 72 ° 0 min 0,000 mm 0,0 UV-I 32 W/m² 13,1 °C 15,3 °C 4,8 km/h (1 Bft)
23.10.2019 17:16 15,2 °C 87 % 1012,0 hPa 0,0 mm 2,5 km/h (1 Bft) O-NO 72 ° 0 min 0,000 mm 0,0 UV-I 32 W/m² 13,0 °C 15,2 °C 4,8 km/h (1 Bft)
23.10.2019 17:17 15,1 °C 87 % 1011,8 hPa 0,0 mm 3,9 km/h (1 Bft) O-NO 57 ° 0 min 0,000 mm 0,0 UV-I 30 W/m² 13,0 °C 15,1 °C 8,0 km/h (2 Bft)
23.10.2019 17:18 15,1 °C 87 % 1011,9 hPa 0,0 mm 5,2 km/h (1 Bft) S-SO 158 ° 0 min 0,000 mm 0,0 UV-I 30 W/m² 13,0 °C 15,1 °C 8,0 km/h (2 Bft)
23.10.2019 17:19 14,9 °C 87 % 1011,9 hPa 0,0 mm 0,0 km/h (0 Bft) S-SO 157 ° 0 min 0,000 mm 0,0 UV-I 28 W/m² 12,8 °C 14,9 °C 0,0 km/h (0 Bft)
23.10.2019 17:20 14,9 °C 88 % 1011,8 hPa 0,0 mm 3,0 km/h (1 Bft) O-NO 78 ° 0 min 0,000 mm 0,0 UV-I 28 W/m² 12,9 °C 14,9 °C 4,8 km/h (1 Bft)
23.10.2019 17:21 14,9 °C 88 % 1011,8 hPa 0,0 mm 1,8 km/h (1 Bft) O 79 ° 0 min 0,000 mm 0,0 UV-I 28 W/m² 12,9 °C 14,9 °C 4,8 km/h (1 Bft)
23.10.2019 17:22 14,8 °C 88 % 1011,9 hPa 0,0 mm 0,7 km/h (0 Bft) O 79 ° 0 min 0,000 mm 0,0 UV-I 26 W/m² 12,8 °C 14,8 °C 1,6 km/h (1 Bft)
23.10.2019 17:23 14,8 °C 88 % 1011,9 hPa 0,0 mm 0,0 km/h (0 Bft) O 79 ° 0 min 0,000 mm 0,0 UV-I 26 W/m² 12,8 °C 14,8 °C 0,0 km/h (0 Bft)
23.10.2019 17:24 14,7 °C 88 % 1011,9 hPa 0,0 mm 0,0 km/h (0 Bft) O 79 ° 0 min 0,000 mm 0,0 UV-I 25 W/m² 12,7 °C 14,7 °C 0,0 km/h (0 Bft)
23.10.2019 17:25 14,7 °C 88 % 1011,9 hPa 0,0 mm 0,0 km/h (0 Bft) O 79 ° 0 min 0,000 mm 0,0 UV-I 25 W/m² 12,7 °C 14,7 °C 0,0 km/h (0 Bft)
23.10.2019 17:26 14,6 °C 88 % 1012,0 hPa 0,0 mm 0,0 km/h (0 Bft) O 79 ° 0 min 0,000 mm 0,0 UV-I 23 W/m² 12,6 °C 14,6 °C 0,0 km/h (0 Bft)
23.10.2019 17:27 14,5 °C 88 % 1012,0 hPa 0,0 mm 0,0 km/h (0 Bft) O 79 ° 0 min 0,000 mm 0,0 UV-I 23 W/m² 12,5 °C 14,5 °C 0,0 km/h (0 Bft)
23.10.2019 17:28 14,4 °C 89 % 1012,0 hPa 0,0 mm 0,0 km/h (0 Bft) O 79 ° 0 min 0,000 mm 0,0 UV-I 23 W/m² 12,6 °C 14,4 °C 0,0 km/h (0 Bft)
23.10.2019 17:29 14,4 °C 89 % 1012,0 hPa 0,0 mm 0,0 km/h (0 Bft) O 79 ° 0 min 0,000 mm 0,0 UV-I 23 W/m² 12,6 °C 14,4 °C 0,0 km/h (0 Bft)
23.10.2019 17:30 14,3 °C 89 % 1011,9 hPa 0,0 mm 0,0 km/h (0 Bft) O 79 ° 0 min 0,000 mm 0,0 UV-I 21 W/m² 12,5 °C 14,3 °C 0,0 km/h (0 Bft)
23.10.2019 17:31 14,3 °C 89 % 1012,0 hPa 0,0 mm 0,0 km/h (0 Bft) O 79 ° 0 min 0,000 mm 0,0 UV-I 21 W/m² 12,5 °C 14,3 °C 0,0 km/h (0 Bft)
23.10.2019 17:32 14,2 °C 89 % 1012,0 hPa 0,0 mm 0,0 km/h (0 Bft) O 79 ° 0 min 0,000 mm 0,0 UV-I 21 W/m² 12,4 °C 14,2 °C 0,0 km/h (0 Bft)
23.10.2019 17:33 14,2 °C 89 % 1011,9 hPa 0,0 mm 0,0 km/h (0 Bft) O 79 ° 0 min 0,000 mm 0,0 UV-I 21 W/m² 12,4 °C 14,2 °C 0,0 km/h (0 Bft)
23.10.2019 17:34 14,2 °C 90 % 1011,9 hPa 0,0 mm 0,0 km/h (0 Bft) O 79 ° 0 min 0,000 mm 0,0 UV-I 21 W/m² 12,6 °C 14,2 °C 0,0 km/h (0 Bft)
23.10.2019 17:35 14,2 °C 90 % 1012,0 hPa 0,0 mm 0,0 km/h (0 Bft) N-NO 27 ° 0 min 0,000 mm 0,0 UV-I 21 W/m² 12,6 °C 14,2 °C 0,0 km/h (0 Bft)
23.10.2019 17:36 14,2 °C 90 % 1011,9 hPa 0,0 mm 0,0 km/h (0 Bft) NW 315 ° 0 min 0,000 mm 0,0 UV-I 21 W/m² 12,6 °C 14,2 °C 0,0 km/h (0 Bft)
23.10.2019 17:37 14,1 °C 89 % 1012,1 hPa 0,0 mm 2,9 km/h (1 Bft) W 265 ° 0 min 0,000 mm 0,0 UV-I 19 W/m² 12,3 °C 14,1 °C 11,3 km/h (2 Bft)
23.10.2019 17:38 14,1 °C 89 % 1012,0 hPa 0,0 mm 11,0 km/h (2 Bft) W 266 ° 0 min 0,000 mm 0,0 UV-I 19 W/m² 12,3 °C 14,1 °C 12,9 km/h (3 Bft)
23.10.2019 17:39 14,2 °C 90 % 1012,1 hPa 0,0 mm 9,3 km/h (2 Bft) W-SW 254 ° 0 min 0,000 mm 0,0 UV-I 19 W/m² 12,6 °C 14,2 °C 11,3 km/h (2 Bft)
23.10.2019 17:40 14,2 °C 90 % 1012,1 hPa 0,0 mm 6,6 km/h (2 Bft) SW 230 ° 0 min 0,000 mm 0,0 UV-I 19 W/m² 12,6 °C 14,2 °C 12,9 km/h (3 Bft)
23.10.2019 17:41 14,2 °C 90 % 1012,1 hPa 0,0 mm 3,4 km/h (1 Bft) SW 233 ° 0 min 0,000 mm 0,0 UV-I 19 W/m² 12,6 °C 14,2 °C 4,8 km/h (1 Bft)
23.10.2019 17:42 14,3 °C 90 % 1012,0 hPa 0,0 mm 4,0 km/h (1 Bft) W-SW 248 ° 0 min 0,000 mm 0,0 UV-I 18 W/m² 12,7 °C 14,3 °C 6,4 km/h (2 Bft)
23.10.2019 17:43 14,3 °C 90 % 1012,0 hPa 0,0 mm 0,0 km/h (0 Bft) W-SW 248 ° 0 min 0,000 mm 0,0 UV-I 16 W/m² 12,7 °C 14,3 °C 0,0 km/h (0 Bft)
23.10.2019 17:44 14,2 °C 89 % 1012,1 hPa 0,0 mm 0,0 km/h (0 Bft) W-SW 248 ° 0 min 0,000 mm 0,0 UV-I 16 W/m² 12,4 °C 14,2 °C 0,0 km/h (0 Bft)
23.10.2019 17:45 14,2 °C 90 % 1012,1 hPa 0,0 mm 0,0 km/h (0 Bft) W-SW 248 ° 0 min 0,000 mm 0,0 UV-I 16 W/m² 12,6 °C 14,2 °C 0,0 km/h (0 Bft)
23.10.2019 17:46 14,2 °C 90 % 1012,2 hPa 0,0 mm 0,0 km/h (0 Bft) W-SW 248 ° 0 min 0,000 mm 0,0 UV-I 14 W/m² 12,6 °C 14,2 °C 0,0 km/h (0 Bft)
23.10.2019 17:47 14,2 °C 90 % 1012,1 hPa 0,0 mm 0,0 km/h (0 Bft) W-SW 248 ° 0 min 0,000 mm 0,0 UV-I 14 W/m² 12,6 °C 14,2 °C 0,0 km/h (0 Bft)
23.10.2019 17:48 14,2 °C 90 % 1012,1 hPa 0,0 mm 0,0 km/h (0 Bft) W-SW 248 ° 0 min 0,000 mm 0,0 UV-I 12 W/m² 12,6 °C 14,2 °C 0,0 km/h (0 Bft)
23.10.2019 17:49 14,1 °C 90 % 1012,1 hPa 0,0 mm 0,0 km/h (0 Bft) W-SW 248 ° 0 min 0,000 mm 0,0 UV-I 12 W/m² 12,5 °C 14,1 °C 0,0 km/h (0 Bft)
23.10.2019 17:50 14,1 °C 90 % 1012,1 hPa 0,0 mm 0,0 km/h (0 Bft) W-SW 248 ° 0 min 0,000 mm 0,0 UV-I 11 W/m² 12,5 °C 14,1 °C 0,0 km/h (0 Bft)
23.10.2019 17:51 14,1 °C 91 % 1012,1 hPa 0,0 mm 1,4 km/h (1 Bft) W-SW 248 ° 0 min 0,000 mm 0,0 UV-I 11 W/m² 12,7 °C 14,1 °C 3,2 km/h (1 Bft)
23.10.2019 17:52 14,1 °C 90 % 1012,1 hPa 0,0 mm 0,1 km/h (0 Bft) W-SW 248 ° 0 min 0,000 mm 0,0 UV-I 11 W/m² 12,5 °C 14,1 °C 1,6 km/h (1 Bft)
23.10.2019 17:53 14,0 °C 90 % 1012,2 hPa 0,0 mm 0,0 km/h (0 Bft) W-SW 248 ° 0 min 0,000 mm 0,0 UV-I 9 W/m² 12,4 °C 14,0 °C 0,0 km/h (0 Bft)
23.10.2019 17:54 14,0 °C 90 % 1012,2 hPa 0,0 mm 0,0 km/h (0 Bft) W-SW 248 ° 0 min 0,000 mm 0,0 UV-I 9 W/m² 12,4 °C 14,0 °C 0,0 km/h (0 Bft)
23.10.2019 17:55 13,9 °C 91 % 1012,1 hPa 0,0 mm 0,0 km/h (0 Bft) W-SW 248 ° 0 min 0,000 mm 0,0 UV-I 7 W/m² 12,5 °C 13,9 °C 0,0 km/h (0 Bft)
23.10.2019 17:56 13,8 °C 90 % 1012,2 hPa 0,0 mm 0,0 km/h (0 Bft) W-SW 248 ° 0 min 0,000 mm 0,0 UV-I 7 W/m² 12,2 °C 13,8 °C 0,0 km/h (0 Bft)
23.10.2019 17:57 13,8 °C 90 % 1012,2 hPa 0,0 mm 0,0 km/h (0 Bft) W-SW 248 ° 0 min 0,000 mm 0,0 UV-I 7 W/m² 12,2 °C 13,8 °C 0,0 km/h (0 Bft)
23.10.2019 17:58 13,8 °C 90 % 1012,1 hPa 0,0 mm 0,0 km/h (0 Bft) W-SW 248 ° 0 min 0,000 mm 0,0 UV-I 7 W/m² 12,2 °C 13,8 °C 0,0 km/h (0 Bft)
23.10.2019 17:59 13,7 °C 90 % 1012,1 hPa 0,0 mm 0,0 km/h (0 Bft) W-SW 248 ° 0 min 0,000 mm 0,0 UV-I 7 W/m² 12,1 °C 13,7 °C 0,0 km/h (0 Bft)
23.10.2019 18:00 13,8 °C 91 % 1012,1 hPa 0,0 mm 0,0 km/h (0 Bft) W-SW 248 ° 0 min 0,000 mm 0,0 UV-I 5 W/m² 12,4 °C 13,8 °C 0,0 km/h (0 Bft)
23.10.2019 18:01 13,9 °C 91 % 1012,1 hPa 0,0 mm 0,0 km/h (0 Bft) W-SW 248 ° 0 min 0,026 mm 0,0 UV-I 5 W/m² 12,5 °C 13,9 °C 0,0 km/h (0 Bft)
23.10.2019 18:02 13,9 °C 91 % 1012,1 hPa 0,0 mm 0,0 km/h (0 Bft) W-SW 248 ° 0 min 0,000 mm 0,0 UV-I 5 W/m² 12,5 °C 13,9 °C 0,0 km/h (0 Bft)
23.10.2019 18:03 14,0 °C 91 % 1012,0 hPa 0,0 mm 0,0 km/h (0 Bft) W-SW 248 ° 0 min 0,000 mm 0,0 UV-I 5 W/m² 12,6 °C 14,0 °C 0,0 km/h (0 Bft)
23.10.2019 18:04 14,0 °C 91 % 1012,0 hPa 0,0 mm 0,0 km/h (0 Bft) W-SW 248 ° 0 min 0,000 mm 0,0 UV-I 5 W/m² 12,6 °C 14,0 °C 0,0 km/h (0 Bft)
23.10.2019 18:05 13,9 °C 91 % 1012,0 hPa 0,0 mm 0,9 km/h (0 Bft) W-SW 248 ° 0 min 0,000 mm 0,0 UV-I 5 W/m² 12,5 °C 13,9 °C 3,2 km/h (1 Bft)
23.10.2019 18:06 13,9 °C 90 % 1012,1 hPa 0,0 mm 2,8 km/h (1 Bft) W-SW 248 ° 0 min 0,000 mm 0,0 UV-I 0 W/m² 12,3 °C 13,9 °C 4,8 km/h (1 Bft)
23.10.2019 18:07 13,8 °C 90 % 1012,0 hPa 0,0 mm 0,9 km/h (0 Bft) SW 221 ° 0 min 0,000 mm 0,0 UV-I 0 W/m² 12,2 °C 13,8 °C 3,2 km/h (1 Bft)
23.10.2019 18:08 13,7 °C 90 % 1012,1 hPa 0,0 mm 5,2 km/h (1 Bft) S-SW 192 ° 0 min 0,000 mm 0,0 UV-I 0 W/m² 12,1 °C 13,7 °C 6,4 km/h (2 Bft)
23.10.2019 18:09 13,7 °C 90 % 1012,1 hPa 0,0 mm 4,4 km/h (1 Bft) S-SW 192 ° 0 min 0,000 mm 0,0 UV-I 0 W/m² 12,1 °C 13,7 °C 6,4 km/h (2 Bft)
23.10.2019 18:10 13,7 °C 90 % 1012,1 hPa 0,0 mm 0,8 km/h (0 Bft) S-SW 192 ° 0 min 0,000 mm 0,0 UV-I 0 W/m² 12,1 °C 13,7 °C 3,2 km/h (1 Bft)
23.10.2019 18:11 13,6 °C 90 % 1012,0 hPa 0,0 mm 0,0 km/h (0 Bft) SO 133 ° 0 min 0,000 mm 0,0 UV-I 0 W/m² 12,0 °C 13,6 °C 0,0 km/h (0 Bft)
23.10.2019 18:12 13,4 °C 90 % 1012,0 hPa 0,0 mm 0,0 km/h (0 Bft) SO 133 ° 0 min 0,000 mm 0,0 UV-I 0 W/m² 11,8 °C 13,4 °C 0,0 km/h (0 Bft)
23.10.2019 18:13 13,3 °C 90 % 1012,0 hPa 0,0 mm 0,0 km/h (0 Bft) SO 133 ° 0 min 0,000 mm 0,0 UV-I 0 W/m² 11,7 °C 13,3 °C 0,0 km/h (0 Bft)
23.10.2019 18:14 13,2 °C 90 % 1012,0 hPa 0,0 mm 0,0 km/h (0 Bft) SO 133 ° 0 min 0,000 mm 0,0 UV-I 0 W/m² 11,6 °C 13,2 °C 0,0 km/h (0 Bft)
23.10.2019 18:15 13,2 °C 90 % 1011,9 hPa 0,0 mm 0,0 km/h (0 Bft) SO 133 ° 0 min 0,000 mm 0,0 UV-I 0 W/m² 11,6 °C 13,2 °C 0,0 km/h (0 Bft)
23.10.2019 18:16 13,1 °C 90 % 1012,0 hPa 0,0 mm 0,0 km/h (0 Bft) O 100 ° 0 min 0,000 mm 0,0 UV-I 0 W/m² 11,5 °C 13,1 °C 0,0 km/h (0 Bft)
23.10.2019 18:17 13,0 °C 90 % 1012,0 hPa 0,0 mm 2,3 km/h (1 Bft) N-NW 338 ° 0 min 0,000 mm 0,0 UV-I 0 W/m² 11,4 °C 13,0 °C 6,4 km/h (2 Bft)
23.10.2019 18:18 12,8 °C 90 % 1012,0 hPa 0,0 mm 3,0 km/h (1 Bft) N-NW 331 ° 0 min 0,000 mm 0,0 UV-I 0 W/m² 11,2 °C 12,8 °C 4,8 km/h (1 Bft)
23.10.2019 18:19 12,6 °C 90 % 1012,0 hPa 0,0 mm 0,0 km/h (0 Bft) N-NW 331 ° 0 min 0,000 mm 0,0 UV-I 0 W/m² 11,0 °C 12,6 °C 0,0 km/h (0 Bft)
23.10.2019 18:20 12,5 °C 90 % 1012,0 hPa 0,0 mm 0,0 km/h (0 Bft) N-NW 331 ° 0 min 0,000 mm 0,0 UV-I 0 W/m² 10,9 °C 12,5 °C 0,0 km/h (0 Bft)
23.10.2019 18:21 12,5 °C 91 % 1012,0 hPa 0,0 mm 0,0 km/h (0 Bft) SW 225 ° 0 min 0,000 mm 0,0 UV-I 0 W/m² 11,1 °C 12,5 °C 0,0 km/h (0 Bft)
23.10.2019 18:22 12,5 °C 91 % 1012,0 hPa 0,0 mm 0,0 km/h (0 Bft) SW 225 ° 0 min 0,000 mm 0,0 UV-I 0 W/m² 11,1 °C 12,5 °C 0,0 km/h (0 Bft)
23.10.2019 18:23 12,5 °C 92 % 1012,1 hPa 0,0 mm 0,0 km/h (0 Bft) SW 225 ° 0 min 0,000 mm 0,0 UV-I 0 W/m² 11,2 °C 12,5 °C 0,0 km/h (0 Bft)
23.10.2019 18:24 12,6 °C 92 % 1012,1 hPa 0,0 mm 0,0 km/h (0 Bft) SW 225 ° 0 min 0,000 mm 0,0 UV-I 0 W/m² 11,3 °C 12,6 °C 0,0 km/h (0 Bft)
23.10.2019 18:25 12,6 °C 92 % 1012,1 hPa 0,0 mm 0,0 km/h (0 Bft) SW 225 ° 0 min 0,000 mm 0,0 UV-I 0 W/m² 11,3 °C 12,6 °C 0,0 km/h (0 Bft)
23.10.2019 18:26 12,7 °C 92 % 1012,1 hPa 0,0 mm 0,0 km/h (0 Bft) SW 225 ° 0 min 0,000 mm 0,0 UV-I 0 W/m² 11,4 °C 12,7 °C 0,0 km/h (0 Bft)
23.10.2019 18:27 12,7 °C 92 % 1012,1 hPa 0,0 mm 0,0 km/h (0 Bft) SW 225 ° 0 min 0,000 mm 0,0 UV-I 0 W/m² 11,4 °C 12,7 °C 0,0 km/h (0 Bft)
23.10.2019 18:28 12,7 °C 92 % 1012,1 hPa 0,0 mm 0,0 km/h (0 Bft) SW 225 ° 0 min 0,000 mm 0,0 UV-I 0 W/m² 11,4 °C 12,7 °C 0,0 km/h (0 Bft)
23.10.2019 18:29 12,7 °C 92 % 1012,0 hPa 0,0 mm 0,0 km/h (0 Bft) SW 225 ° 0 min 0,000 mm 0,0 UV-I 0 W/m² 11,4 °C 12,7 °C 0,0 km/h (0 Bft)
23.10.2019 18:30 12,7 °C 92 % 1012,0 hPa 0,0 mm 0,0 km/h (0 Bft) SW 225 ° 0 min 0,000 mm 0,0 UV-I 0 W/m² 11,4 °C 12,7 °C 0,0 km/h (0 Bft)
23.10.2019 18:31 12,7 °C 92 % 1012,0 hPa 0,0 mm 0,0 km/h (0 Bft) SW 225 ° 0 min 0,000 mm 0,0 UV-I 0 W/m² 11,4 °C 12,7 °C 0,0 km/h (0 Bft)
23.10.2019 18:32 12,8 °C 93 % 1012,0 hPa 0,0 mm 0,0 km/h (0 Bft) SW 225 ° 0 min 0,000 mm 0,0 UV-I 0 W/m² 11,7 °C 12,8 °C 0,0 km/h (0 Bft)
23.10.2019 18:33 12,9 °C 93 % 1012,0 hPa 0,0 mm 0,0 km/h (0 Bft) S 175 ° 0 min 0,000 mm 0,0 UV-I 0 W/m² 11,8 °C 12,9 °C 0,0 km/h (0 Bft)
23.10.2019 18:34 13,1 °C 93 % 1012,0 hPa 0,0 mm 0,0 km/h (0 Bft) S 175 ° 0 min 0,000 mm 0,0 UV-I 0 W/m² 12,0 °C 13,1 °C 0,0 km/h (0 Bft)
23.10.2019 18:35 13,1 °C 93 % 1012,0 hPa 0,0 mm 0,0 km/h (0 Bft) S 175 ° 0 min 0,000 mm 0,0 UV-I 0 W/m² 12,0 °C 13,1 °C 0,0 km/h (0 Bft)
23.10.2019 18:36 13,1 °C 93 % 1011,9 hPa 0,0 mm 0,1 km/h (0 Bft) S 175 ° 0 min 0,000 mm 0,0 UV-I 0 W/m² 12,0 °C 13,1 °C 1,6 km/h (1 Bft)
23.10.2019 18:37 13,1 °C 93 % 1011,9 hPa 0,0 mm 2,3 km/h (1 Bft) S 175 ° 0 min 0,000 mm 0,0 UV-I 0 W/m² 12,0 °C 13,1 °C 4,8 km/h (1 Bft)
23.10.2019 18:38 13,1 °C 92 % 1011,9 hPa 0,0 mm 2,1 km/h (1 Bft) S 175 ° 0 min 0,000 mm 0,0 UV-I 0 W/m² 11,8 °C 13,1 °C 3,2 km/h (1 Bft)
23.10.2019 18:39 12,9 °C 92 % 1011,9 hPa 0,0 mm 3,2 km/h (1 Bft) S 175 ° 0 min 0,000 mm 0,0 UV-I 0 W/m² 11,6 °C 12,9 °C 4,8 km/h (1 Bft)
23.10.2019 18:40 12,9 °C 92 % 1011,9 hPa 0,0 mm 1,5 km/h (1 Bft) S 175 ° 0 min 0,000 mm 0,0 UV-I 0 W/m² 11,6 °C 12,9 °C 3,2 km/h (1 Bft)
23.10.2019 18:41 12,8 °C 92 % 1011,9 hPa 0,0 mm 0,1 km/h (0 Bft) S 175 ° 0 min 0,000 mm 0,0 UV-I 0 W/m² 11,5 °C 12,8 °C 1,6 km/h (1 Bft)
23.10.2019 18:42 12,8 °C 92 % 1011,9 hPa 0,0 mm 2,1 km/h (1 Bft) S 175 ° 0 min 0,000 mm 0,0 UV-I 0 W/m² 11,5 °C 12,8 °C 3,2 km/h (1 Bft)
23.10.2019 18:43 12,7 °C 92 % 1011,8 hPa 0,0 mm 1,7 km/h (1 Bft) S 175 ° 0 min 0,000 mm 0,0 UV-I 0 W/m² 11,4 °C 12,7 °C 3,2 km/h (1 Bft)
23.10.2019 18:44 12,7 °C 92 % 1011,8 hPa 0,0 mm 2,7 km/h (1 Bft) O 85 ° 0 min 0,000 mm 0,0 UV-I 0 W/m² 11,4 °C 12,7 °C 4,8 km/h (1 Bft)
23.10.2019 18:45 12,7 °C 92 % 1011,8 hPa 0,0 mm 1,5 km/h (1 Bft) O 96 ° 0 min 0,000 mm 0,0 UV-I 0 W/m² 11,4 °C 12,7 °C 3,2 km/h (1 Bft)
23.10.2019 18:46 12,7 °C 92 % 1011,8 hPa 0,0 mm 4,0 km/h (1 Bft) O-SO 103 ° 0 min 0,000 mm 0,0 UV-I 0 W/m² 11,4 °C 12,7 °C 4,8 km/h (1 Bft)
23.10.2019 18:47 12,7 °C 92 % 1011,7 hPa 0,0 mm 6,7 km/h (2 Bft) O-SO 102 ° 0 min 0,000 mm 0,0 UV-I 0 W/m² 11,4 °C 12,7 °C 11,3 km/h (2 Bft)
23.10.2019 18:48 12,6 °C 92 % 1011,6 hPa 0,0 mm 2,7 km/h (1 Bft) O-SO 102 ° 0 min 0,000 mm 0,0 UV-I 0 W/m² 11,3 °C 12,6 °C 6,4 km/h (2 Bft)
23.10.2019 18:49 12,6 °C 92 % 1011,6 hPa 0,0 mm 4,2 km/h (1 Bft) O 94 ° 0 min 0,000 mm 0,0 UV-I 0 W/m² 11,3 °C 12,6 °C 6,4 km/h (2 Bft)
23.10.2019 18:50 12,6 °C 92 % 1011,6 hPa 0,0 mm 3,2 km/h (1 Bft) O 94 ° 0 min 0,000 mm 0,0 UV-I 0 W/m² 11,3 °C 12,6 °C 4,8 km/h (1 Bft)
23.10.2019 18:51 12,6 °C 92 % 1011,6 hPa 0,0 mm 5,2 km/h (1 Bft) S-SO 149 ° 0 min 0,000 mm 0,0 UV-I 0 W/m² 11,3 °C 12,6 °C 11,3 km/h (2 Bft)
23.10.2019 18:52 12,6 °C 92 % 1011,7 hPa 0,0 mm 1,2 km/h (1 Bft) SO 130 ° 0 min 0,000 mm 0,0 UV-I 0 W/m² 11,3 °C 12,6 °C 3,2 km/h (1 Bft)
23.10.2019 18:53 12,6 °C 92 % 1011,6 hPa 0,0 mm 3,1 km/h (1 Bft) SO 130 ° 0 min 0,000 mm 0,0 UV-I 0 W/m² 11,3 °C 12,6 °C 4,8 km/h (1 Bft)
23.10.2019 18:54 12,6 °C 92 % 1011,7 hPa 0,0 mm 2,6 km/h (1 Bft) O-SO 104 ° 0 min 0,000 mm 0,0 UV-I 0 W/m² 11,3 °C 12,6 °C 6,4 km/h (2 Bft)
23.10.2019 18:55 12,7 °C 93 % 1011,7 hPa 0,0 mm 0,2 km/h (0 Bft) O-SO 104 ° 0 min 0,000 mm 0,0 UV-I 0 W/m² 11,6 °C 12,7 °C 1,6 km/h (1 Bft)
23.10.2019 18:56 12,7 °C 93 % 1011,7 hPa 0,0 mm 3,7 km/h (1 Bft) O 89 ° 0 min 0,000 mm 0,0 UV-I 0 W/m² 11,6 °C 12,7 °C 6,4 km/h (2 Bft)
23.10.2019 18:57 12,7 °C 93 % 1011,8 hPa 0,0 mm 2,1 km/h (1 Bft) NO 46 ° 0 min 0,000 mm 0,0 UV-I 0 W/m² 11,6 °C 12,7 °C 4,8 km/h (1 Bft)
23.10.2019 18:58 12,7 °C 93 % 1011,7 hPa 0,0 mm 2,7 km/h (1 Bft) O-NO 61 ° 0 min 0,000 mm 0,0 UV-I 0 W/m² 11,6 °C 12,7 °C 6,4 km/h (2 Bft)
23.10.2019 18:59 12,7 °C 93 % 1011,7 hPa 0,0 mm 2,3 km/h (1 Bft) O 79 ° 0 min 0,000 mm 0,0 UV-I 0 W/m² 11,6 °C 12,7 °C 4,8 km/h (1 Bft)
23.10.2019 19:00 12,8 °C 93 % 1011,7 hPa 0,0 mm 0,0 km/h (0 Bft) O 79 ° 0 min 0,000 mm 0,0 UV-I 0 W/m² 11,7 °C 12,8 °C 0,0 km/h (0 Bft)
23.10.2019 19:01 12,8 °C 93 % 1011,8 hPa 0,0 mm 0,0 km/h (0 Bft) O 79 ° 0 min 0,000 mm 0,0 UV-I 0 W/m² 11,7 °C 12,8 °C 0,0 km/h (0 Bft)
23.10.2019 19:02 12,8 °C 93 % 1011,8 hPa 0,0 mm 0,7 km/h (0 Bft) N-NW 344 ° 0 min 0,000 mm 0,0 UV-I 0 W/m² 11,7 °C 12,8 °C 6,4 km/h (2 Bft)
23.10.2019 19:03 12,8 °C 93 % 1011,8 hPa 0,0 mm 5,1 km/h (1 Bft) NW 308 ° 0 min 0,000 mm 0,0 UV-I 0 W/m² 11,7 °C 12,8 °C 8,0 km/h (2 Bft)
23.10.2019 19:04 12,8 °C 93 % 1011,9 hPa 0,0 mm 3,8 km/h (1 Bft) NW 309 ° 0 min 0,000 mm 0,0 UV-I 0 W/m² 11,7 °C 12,8 °C 6,4 km/h (2 Bft)
23.10.2019 19:05 12,8 °C 93 % 1011,9 hPa 0,0 mm 2,3 km/h (1 Bft) NW 309 ° 0 min 0,000 mm 0,0 UV-I 0 W/m² 11,7 °C 12,8 °C 4,8 km/h (1 Bft)
23.10.2019 19:06 12,8 °C 93 % 1012,0 hPa 0,0 mm 1,9 km/h (1 Bft) NW 309 ° 0 min 0,000 mm 0,0 UV-I 0 W/m² 11,7 °C 12,8 °C 3,2 km/h (1 Bft)
23.10.2019 19:07 12,8 °C 93 % 1011,9 hPa 0,0 mm 2,2 km/h (1 Bft) NW 309 ° 0 min 0,000 mm 0,0 UV-I 0 W/m² 11,7 °C 12,8 °C 3,2 km/h (1 Bft)
23.10.2019 19:08 12,8 °C 92 % 1011,9 hPa 0,0 mm 0,1 km/h (0 Bft) NW 309 ° 0 min 0,000 mm 0,0 UV-I 0 W/m² 11,5 °C 12,8 °C 1,6 km/h (1 Bft)
23.10.2019 19:09 12,8 °C 92 % 1011,9 hPa 0,0 mm 1,6 km/h (1 Bft) W 261 ° 0 min 0,000 mm 0,0 UV-I 0 W/m² 11,5 °C 12,8 °C 3,2 km/h (1 Bft)
23.10.2019 19:10 12,8 °C 92 % 1012,0 hPa 0,0 mm 3,1 km/h (1 Bft) W 261 ° 0 min 0,000 mm 0,0 UV-I 0 W/m² 11,5 °C 12,8 °C 4,8 km/h (1 Bft)
23.10.2019 19:11 12,7 °C 92 % 1011,9 hPa 0,0 mm 3,2 km/h (1 Bft) W 261 ° 0 min 0,000 mm 0,0 UV-I 0 W/m² 11,4 °C 12,7 °C 4,8 km/h (1 Bft)
23.10.2019 19:12 12,8 °C 92 % 1011,9 hPa 0,0 mm 3,4 km/h (1 Bft) S-SO 150 ° 0 min 0,000 mm 0,0 UV-I 0 W/m² 11,5 °C 12,8 °C 4,8 km/h (1 Bft)
23.10.2019 19:13 12,8 °C 93 % 1011,9 hPa 0,0 mm 3,8 km/h (1 Bft) S-SO 150 ° 0 min 0,000 mm 0,0 UV-I 0 W/m² 11,7 °C 12,8 °C 4,8 km/h (1 Bft)
23.10.2019 19:14 12,8 °C 93 % 1011,9 hPa 0,0 mm 3,8 km/h (1 Bft) S-SO 150 ° 0 min 0,000 mm 0,0 UV-I 0 W/m² 11,7 °C 12,8 °C 4,8 km/h (1 Bft)
23.10.2019 19:15 12,9 °C 93 % 1011,8 hPa 0,0 mm 3,9 km/h (1 Bft) S-SO 150 ° 0 min 0,000 mm 0,0 UV-I 0 W/m² 11,8 °C 12,9 °C 6,4 km/h (2 Bft)
23.10.2019 19:16 12,9 °C 93 % 1011,8 hPa 0,0 mm 5,2 km/h (1 Bft) S-SO 150 ° 0 min 0,000 mm 0,0 UV-I 0 W/m² 11,8 °C 12,9 °C 6,4 km/h (2 Bft)
23.10.2019 19:17 12,9 °C 92 % 1011,8 hPa 0,0 mm 3,5 km/h (1 Bft) S-SO 150 ° 0 min 0,000 mm 0,0 UV-I 0 W/m² 11,6 °C 12,9 °C 4,8 km/h (1 Bft)
23.10.2019 19:18 12,9 °C 92 % 1011,8 hPa 0,0 mm 3,3 km/h (1 Bft) S-SO 150 ° 0 min 0,000 mm 0,0 UV-I 0 W/m² 11,6 °C 12,9 °C 4,8 km/h (1 Bft)
23.10.2019 19:19 12,9 °C 92 % 1011,8 hPa 0,0 mm 1,9 km/h (1 Bft) S-SO 150 ° 0 min 0,000 mm 0,0 UV-I 0 W/m² 11,6 °C 12,9 °C 3,2 km/h (1 Bft)
23.10.2019 19:20 12,8 °C 92 % 1011,8 hPa 0,0 mm 0,1 km/h (0 Bft) S-SO 150 ° 0 min 0,000 mm 0,0 UV-I 0 W/m² 11,5 °C 12,8 °C 1,6 km/h (1 Bft)
23.10.2019 19:21 12,8 °C 92 % 1011,8 hPa 0,0 mm 0,0 km/h (0 Bft) S-SO 150 ° 0 min 0,000 mm 0,0 UV-I 0 W/m² 11,5 °C 12,8 °C 0,0 km/h (0 Bft)
23.10.2019 19:22 12,8 °C 92 % 1011,8 hPa 0,0 mm 0,5 km/h (0 Bft) S-SO 150 ° 0 min 0,000 mm 0,0 UV-I 0 W/m² 11,5 °C 12,8 °C 1,6 km/h (1 Bft)
23.10.2019 19:23 12,8 °C 92 % 1011,8 hPa 0,0 mm 0,2 km/h (0 Bft) S-SO 150 ° 0 min 0,000 mm 0,0 UV-I 0 W/m² 11,5 °C 12,8 °C 1,6 km/h (1 Bft)
23.10.2019 19:24 12,8 °C 92 % 1011,8 hPa 0,0 mm 0,1 km/h (0 Bft) S-SO 150 ° 0 min 0,000 mm 0,0 UV-I 0 W/m² 11,5 °C 12,8 °C 1,6 km/h (1 Bft)
23.10.2019 19:25 12,8 °C 92 % 1011,6 hPa 0,0 mm 2,9 km/h (1 Bft) S-SO 150 ° 0 min 0,000 mm 0,0 UV-I 0 W/m² 11,5 °C 12,8 °C 4,8 km/h (1 Bft)
23.10.2019 19:26 12,7 °C 91 % 1011,8 hPa 0,0 mm 0,2 km/h (0 Bft) S-SO 150 ° 0 min 0,000 mm 0,0 UV-I 0 W/m² 11,3 °C 12,7 °C 1,6 km/h (1 Bft)
23.10.2019 19:27 12,6 °C 92 % 1011,8 hPa 0,0 mm 0,0 km/h (0 Bft) S-SO 150 ° 0 min 0,000 mm 0,0 UV-I 0 W/m² 11,3 °C 12,6 °C 0,0 km/h (0 Bft)
23.10.2019 19:28 12,4 °C 91 % 1011,9 hPa 0,0 mm 0,0 km/h (0 Bft) S-SO 150 ° 0 min 0,000 mm 0,0 UV-I 0 W/m² 11,0 °C 12,4 °C 0,0 km/h (0 Bft)
23.10.2019 19:29 12,3 °C 91 % 1011,8 hPa 0,0 mm 0,0 km/h (0 Bft) S-SO 150 ° 0 min 0,000 mm 0,0 UV-I 0 W/m² 10,9 °C 12,3 °C 0,0 km/h (0 Bft)
23.10.2019 19:30 12,2 °C 91 % 1011,8 hPa 0,0 mm 1,9 km/h (1 Bft) S-SO 150 ° 0 min 0,000 mm 0,0 UV-I 0 W/m² 10,8 °C 12,2 °C 6,4 km/h (2 Bft)
23.10.2019 19:31 12,3 °C 92 % 1011,9 hPa 0,0 mm 1,5 km/h (1 Bft) S-SO 150 ° 0 min 0,000 mm 0,0 UV-I 0 W/m² 11,0 °C 12,3 °C 4,8 km/h (1 Bft)
23.10.2019 19:32 12,3 °C 92 % 1011,9 hPa 0,0 mm 0,0 km/h (0 Bft) S-SO 150 ° 0 min 0,000 mm 0,0 UV-I 0 W/m² 11,0 °C 12,3 °C 0,0 km/h (0 Bft)
23.10.2019 19:33 12,2 °C 92 % 1011,9 hPa 0,0 mm 0,0 km/h (0 Bft) S-SO 150 ° 0 min 0,000 mm 0,0 UV-I 0 W/m² 10,9 °C 12,2 °C 0,0 km/h (0 Bft)
23.10.2019 19:34 12,1 °C 91 % 1011,9 hPa 0,0 mm 1,5 km/h (1 Bft) S-SO 150 ° 0 min 0,000 mm 0,0 UV-I 0 W/m² 10,7 °C 12,1 °C 4,8 km/h (1 Bft)
23.10.2019 19:35 12,1 °C 92 % 1011,9 hPa 0,0 mm 0,5 km/h (0 Bft) S-SO 150 ° 0 min 0,000 mm 0,0 UV-I 0 W/m² 10,8 °C 12,1 °C 1,6 km/h (1 Bft)
23.10.2019 19:36 12,1 °C 93 % 1011,9 hPa 0,0 mm 0,0 km/h (0 Bft) S-SO 150 ° 0 min 0,000 mm 0,0 UV-I 0 W/m² 11,0 °C 12,1 °C 0,0 km/h (0 Bft)
23.10.2019 19:37 12,1 °C 92 % 1011,9 hPa 0,0 mm 0,0 km/h (0 Bft) S-SO 150 ° 0 min 0,000 mm 0,0 UV-I 0 W/m² 10,8 °C 12,1 °C 0,0 km/h (0 Bft)
23.10.2019 19:38 12,1 °C 92 % 1011,8 hPa 0,0 mm 0,0 km/h (0 Bft) S-SO 150 ° 0 min 0,000 mm 0,0 UV-I 0 W/m² 10,8 °C 12,1 °C 0,0 km/h (0 Bft)
23.10.2019 19:39 12,1 °C 93 % 1011,8 hPa 0,0 mm 0,0 km/h (0 Bft) S-SO 150 ° 0 min 0,000 mm 0,0 UV-I 0 W/m² 11,0 °C 12,1 °C 0,0 km/h (0 Bft)
23.10.2019 19:40 12,0 °C 92 % 1011,8 hPa 0,0 mm 0,0 km/h (0 Bft) S-SO 150 ° 0 min 0,000 mm 0,0 UV-I 0 W/m² 10,7 °C 12,0 °C 0,0 km/h (0 Bft)
23.10.2019 19:41 11,9 °C 92 % 1011,8 hPa 0,0 mm 0,0 km/h (0 Bft) S-SO 150 ° 0 min 0,000 mm 0,0 UV-I 0 W/m² 10,6 °C 11,9 °C 0,0 km/h (0 Bft)
23.10.2019 19:42 11,9 °C 92 % 1011,8 hPa 0,0 mm 1,9 km/h (1 Bft) S-SO 150 ° 0 min 0,000 mm 0,0 UV-I 0 W/m² 10,6 °C 11,9 °C 3,2 km/h (1 Bft)
23.10.2019 19:43 11,9 °C 93 % 1011,9 hPa 0,0 mm 3,0 km/h (1 Bft) S-SO 150 ° 0 min 0,000 mm 0,0 UV-I 0 W/m² 10,8 °C 11,9 °C 4,8 km/h (1 Bft)
23.10.2019 19:44 11,9 °C 93 % 1011,8 hPa 0,0 mm 1,1 km/h (1 Bft) S-SO 150 ° 0 min 0,000 mm 0,0 UV-I 0 W/m² 10,8 °C 11,9 °C 3,2 km/h (1 Bft)
23.10.2019 19:45 11,8 °C 92 % 1011,8 hPa 0,0 mm 0,0 km/h (0 Bft) S-SO 150 ° 0 min 0,000 mm 0,0 UV-I 0 W/m² 10,5 °C 11,8 °C 0,0 km/h (0 Bft)
23.10.2019 19:46 11,8 °C 92 % 1011,8 hPa 0,0 mm 0,8 km/h (0 Bft) S-SO 150 ° 0 min 0,000 mm 0,0 UV-I 0 W/m² 10,5 °C 11,8 °C 1,6 km/h (1 Bft)
23.10.2019 19:47 11,7 °C 92 % 1011,8 hPa 0,0 mm 0,0 km/h (0 Bft) S-SO 150 ° 0 min 0,000 mm 0,0 UV-I 0 W/m² 10,4 °C 11,7 °C 0,0 km/h (0 Bft)
23.10.2019 19:48 11,7 °C 92 % 1011,8 hPa 0,0 mm 1,7 km/h (1 Bft) S-SO 150 ° 0 min 0,000 mm 0,0 UV-I 0 W/m² 10,4 °C 11,7 °C 3,2 km/h (1 Bft)
23.10.2019 19:49 11,6 °C 92 % 1011,8 hPa 0,0 mm 0,1 km/h (0 Bft) S-SO 150 ° 0 min 0,000 mm 0,0 UV-I 0 W/m² 10,3 °C 11,6 °C 1,6 km/h (1 Bft)
23.10.2019 19:50 11,6 °C 93 % 1011,8 hPa 0,0 mm 0,0 km/h (0 Bft) S-SO 150 ° 0 min 0,000 mm 0,0 UV-I 0 W/m² 10,5 °C 11,6 °C 0,0 km/h (0 Bft)
23.10.2019 19:51 11,7 °C 93 % 1011,7 hPa 0,0 mm 0,0 km/h (0 Bft) S-SO 150 ° 0 min 0,000 mm 0,0 UV-I 0 W/m² 10,6 °C 11,7 °C 0,0 km/h (0 Bft)
23.10.2019 19:52 11,6 °C 92 % 1011,8 hPa 0,0 mm 0,0 km/h (0 Bft) S-SO 150 ° 0 min 0,000 mm 0,0 UV-I 0 W/m² 10,3 °C 11,6 °C 0,0 km/h (0 Bft)
23.10.2019 19:53 11,6 °C 93 % 1011,8 hPa 0,0 mm 0,0 km/h (0 Bft) S-SO 150 ° 0 min 0,000 mm 0,0 UV-I 0 W/m² 10,5 °C 11,6 °C 0,0 km/h (0 Bft)
23.10.2019 19:54 11,8 °C 93 % 1011,8 hPa 0,0 mm 0,8 km/h (0 Bft) S-SO 150 ° 0 min 0,000 mm 0,0 UV-I 0 W/m² 10,7 °C 11,8 °C 1,6 km/h (1 Bft)
23.10.2019 19:55 11,8 °C 93 % 1011,8 hPa 0,0 mm 0,0 km/h (0 Bft) S-SO 150 ° 0 min 0,000 mm 0,0 UV-I 0 W/m² 10,7 °C 11,8 °C 0,0 km/h (0 Bft)
23.10.2019 19:56 11,7 °C 93 % 1011,7 hPa 0,0 mm 0,0 km/h (0 Bft) S-SO 150 ° 0 min 0,000 mm 0,0 UV-I 0 W/m² 10,6 °C 11,7 °C 0,0 km/h (0 Bft)
23.10.2019 19:57 11,7 °C 93 % 1011,7 hPa 0,0 mm 0,0 km/h (0 Bft) S-SO 150 ° 0 min 0,000 mm 0,0 UV-I 0 W/m² 10,6 °C 11,7 °C 0,0 km/h (0 Bft)
23.10.2019 19:58 11,7 °C 93 % 1011,7 hPa 0,0 mm 0,0 km/h (0 Bft) S-SO 150 ° 0 min 0,000 mm 0,0 UV-I 0 W/m² 10,6 °C 11,7 °C 0,0 km/h (0 Bft)
23.10.2019 19:59 11,7 °C 93 % 1011,7 hPa 0,0 mm 1,5 km/h (1 Bft) S-SO 150 ° 0 min 0,000 mm 0,0 UV-I 0 W/m² 10,6 °C 11,7 °C 3,2 km/h (1 Bft)
23.10.2019 20:00 11,8 °C 93 % 1011,8 hPa 0,0 mm 0,0 km/h (0 Bft) S-SO 150 ° 0 min 0,000 mm 0,0 UV-I 0 W/m² 10,7 °C 11,8 °C 0,0 km/h (0 Bft)
23.10.2019 20:01 11,7 °C 93 % 1011,7 hPa 0,0 mm 0,0 km/h (0 Bft) S-SO 150 ° 0 min 0,000 mm 0,0 UV-I 0 W/m² 10,6 °C 11,7 °C 0,0 km/h (0 Bft)
23.10.2019 20:02 11,7 °C 93 % 1011,7 hPa 0,0 mm 0,0 km/h (0 Bft) S-SO 150 ° 0 min 0,000 mm 0,0 UV-I 0 W/m² 10,6 °C 11,7 °C 0,0 km/h (0 Bft)
23.10.2019 20:03 11,6 °C 93 % 1011,7 hPa 0,0 mm 0,0 km/h (0 Bft) S-SO 150 ° 0 min 0,000 mm 0,0 UV-I 0 W/m² 10,5 °C 11,6 °C 0,0 km/h (0 Bft)
23.10.2019 20:04 11,4 °C 93 % 1011,7 hPa 0,0 mm 0,0 km/h (0 Bft) S-SO 150 ° 0 min 0,000 mm 0,0 UV-I 0 W/m² 10,3 °C 11,4 °C 0,0 km/h (0 Bft)
23.10.2019 20:05 11,4 °C 93 % 1011,6 hPa 0,0 mm 0,0 km/h (0 Bft) S-SO 150 ° 0 min 0,000 mm 0,0 UV-I 0 W/m² 10,3 °C 11,4 °C 0,0 km/h (0 Bft)
23.10.2019 20:06 11,5 °C 93 % 1011,7 hPa 0,0 mm 0,0 km/h (0 Bft) S-SO 150 ° 0 min 0,000 mm 0,0 UV-I 0 W/m² 10,4 °C 11,5 °C 0,0 km/h (0 Bft)
23.10.2019 20:07 11,6 °C 94 % 1011,7 hPa 0,0 mm 0,0 km/h (0 Bft) S-SO 150 ° 0 min 0,000 mm 0,0 UV-I 0 W/m² 10,7 °C 11,6 °C 0,0 km/h (0 Bft)
23.10.2019 20:08 11,7 °C 94 % 1011,7 hPa 0,0 mm 0,0 km/h (0 Bft) S-SO 150 ° 0 min 0,000 mm 0,0 UV-I 0 W/m² 10,8 °C 11,7 °C 0,0 km/h (0 Bft)
23.10.2019 20:09 11,7 °C 94 % 1011,6 hPa 0,0 mm 0,0 km/h (0 Bft) S-SO 150 ° 0 min 0,000 mm 0,0 UV-I 0 W/m² 10,8 °C 11,7 °C 0,0 km/h (0 Bft)
23.10.2019 20:10 11,6 °C 93 % 1011,5 hPa 0,0 mm 0,0 km/h (0 Bft) S-SO 150 ° 0 min 0,000 mm 0,0 UV-I 0 W/m² 10,5 °C 11,6 °C 0,0 km/h (0 Bft)
23.10.2019 20:11 11,3 °C 92 % 1011,5 hPa 0,0 mm 0,0 km/h (0 Bft) S-SO 150 ° 0 min 0,000 mm 0,0 UV-I 0 W/m² 10,0 °C 11,3 °C 0,0 km/h (0 Bft)
23.10.2019 20:12 11,2 °C 92 % 1011,5 hPa 0,0 mm 0,0 km/h (0 Bft) S-SO 150 ° 0 min 0,000 mm 0,0 UV-I 0 W/m² 9,9 °C 11,2 °C 0,0 km/h (0 Bft)
23.10.2019 20:13 11,2 °C 93 % 1011,5 hPa 0,0 mm 0,0 km/h (0 Bft) S-SO 150 ° 0 min 0,000 mm 0,0 UV-I 0 W/m² 10,1 °C 11,2 °C 0,0 km/h (0 Bft)
23.10.2019 20:14 11,1 °C 93 % 1011,5 hPa 0,0 mm 0,0 km/h (0 Bft) S-SO 150 ° 0 min 0,000 mm 0,0 UV-I 0 W/m² 10,0 °C 11,1 °C 0,0 km/h (0 Bft)
23.10.2019 20:15 11,1 °C 93 % 1011,6 hPa 0,0 mm 0,0 km/h (0 Bft) S-SO 150 ° 0 min 0,000 mm 0,0 UV-I 0 W/m² 10,0 °C 11,1 °C 0,0 km/h (0 Bft)
23.10.2019 20:16 10,9 °C 93 % 1011,6 hPa 0,0 mm 0,0 km/h (0 Bft) S-SO 150 ° 0 min 0,000 mm 0,0 UV-I 0 W/m² 9,8 °C 10,9 °C 0,0 km/h (0 Bft)
23.10.2019 20:17 10,8 °C 93 % 1011,6 hPa 0,0 mm 0,0 km/h (0 Bft) S-SO 150 ° 0 min 0,000 mm 0,0 UV-I 0 W/m² 9,7 °C 10,8 °C 0,0 km/h (0 Bft)
23.10.2019 20:18 10,8 °C 93 % 1011,6 hPa 0,0 mm 0,0 km/h (0 Bft) S-SO 150 ° 0 min 0,000 mm 0,0 UV-I 0 W/m² 9,7 °C 10,8 °C 0,0 km/h (0 Bft)
23.10.2019 20:19 10,7 °C 93 % 1011,5 hPa 0,0 mm 0,0 km/h (0 Bft) S-SO 150 ° 0 min 0,000 mm 0,0 UV-I 0 W/m² 9,6 °C 10,7 °C 0,0 km/h (0 Bft)
23.10.2019 20:20 10,7 °C 93 % 1011,5 hPa 0,0 mm 0,0 km/h (0 Bft) S-SO 150 ° 0 min 0,000 mm 0,0 UV-I 0 W/m² 9,6 °C 10,7 °C 0,0 km/h (0 Bft)
23.10.2019 20:21 10,7 °C 93 % 1011,5 hPa 0,0 mm 0,0 km/h (0 Bft) S-SO 150 ° 0 min 0,000 mm 0,0 UV-I 0 W/m² 9,6 °C 10,7 °C 0,0 km/h (0 Bft)
23.10.2019 20:22 10,7 °C 93 % 1011,6 hPa 0,0 mm 0,0 km/h (0 Bft) S-SO 150 ° 0 min 0,000 mm 0,0 UV-I 0 W/m² 9,6 °C 10,7 °C 0,0 km/h (0 Bft)
23.10.2019 20:23 10,7 °C 94 % 1011,5 hPa 0,0 mm 1,1 km/h (1 Bft) S-SO 150 ° 0 min 0,000 mm 0,0 UV-I 0 W/m² 9,8 °C 10,7 °C 4,8 km/h (1 Bft)
23.10.2019 20:24 10,8 °C 94 % 1011,6 hPa 0,0 mm 2,8 km/h (1 Bft) S-SO 150 ° 0 min 0,000 mm 0,0 UV-I 0 W/m² 9,9 °C 10,8 °C 4,8 km/h (1 Bft)
23.10.2019 20:25 10,8 °C 94 % 1011,5 hPa 0,0 mm 0,1 km/h (0 Bft) S-SO 150 ° 0 min 0,000 mm 0,0 UV-I 0 W/m² 9,9 °C 10,8 °C 1,6 km/h (1 Bft)
23.10.2019 20:26 10,8 °C 93 % 1011,5 hPa 0,0 mm 2,4 km/h (1 Bft) S-SO 150 ° 0 min 0,000 mm 0,0 UV-I 0 W/m² 9,7 °C 10,8 °C 3,2 km/h (1 Bft)
23.10.2019 20:27 10,8 °C 94 % 1011,4 hPa 0,0 mm 0,0 km/h (0 Bft) S-SO 150 ° 0 min 0,000 mm 0,0 UV-I 0 W/m² 9,9 °C 10,8 °C 0,0 km/h (0 Bft)
23.10.2019 20:28 10,8 °C 93 % 1011,4 hPa 0,0 mm 0,1 km/h (0 Bft) S-SO 150 ° 0 min 0,000 mm 0,0 UV-I 0 W/m² 9,7 °C 10,8 °C 1,6 km/h (1 Bft)
23.10.2019 20:29 10,8 °C 94 % 1011,4 hPa 0,0 mm 0,1 km/h (0 Bft) S-SO 150 ° 0 min 0,000 mm 0,0 UV-I 0 W/m² 9,9 °C 10,8 °C 1,6 km/h (1 Bft)
23.10.2019 20:30 10,7 °C 93 % 1011,4 hPa 0,0 mm 0,0 km/h (0 Bft) S-SO 150 ° 0 min 0,000 mm 0,0 UV-I 0 W/m² 9,6 °C 10,7 °C 0,0 km/h (0 Bft)
23.10.2019 20:31 10,7 °C 93 % 1011,4 hPa 0,0 mm 0,0 km/h (0 Bft) S-SO 150 ° 0 min 0,000 mm 0,0 UV-I 0 W/m² 9,6 °C 10,7 °C 0,0 km/h (0 Bft)
23.10.2019 20:32 10,7 °C 93 % 1011,3 hPa 0,0 mm 0,0 km/h (0 Bft) S-SO 150 ° 0 min 0,000 mm 0,0 UV-I 0 W/m² 9,6 °C 10,7 °C 0,0 km/h (0 Bft)
23.10.2019 20:33 10,7 °C 94 % 1011,3 hPa 0,0 mm 0,0 km/h (0 Bft) S-SO 150 ° 0 min 0,000 mm 0,0 UV-I 0 W/m² 9,8 °C 10,7 °C 0,0 km/h (0 Bft)
23.10.2019 20:34 10,6 °C 94 % 1011,4 hPa 0,0 mm 0,6 km/h (0 Bft) S-SO 150 ° 0 min 0,000 mm 0,0 UV-I 0 W/m² 9,7 °C 10,6 °C 4,8 km/h (1 Bft)
23.10.2019 20:35 10,6 °C 93 % 1011,4 hPa 0,0 mm 3,4 km/h (1 Bft) S-SO 150 ° 0 min 0,000 mm 0,0 UV-I 0 W/m² 9,5 °C 10,6 °C 4,8 km/h (1 Bft)
23.10.2019 20:36 10,4 °C 93 % 1011,4 hPa 0,0 mm 3,2 km/h (1 Bft) S-SO 150 ° 0 min 0,000 mm 0,0 UV-I 0 W/m² 9,3 °C 10,4 °C 4,8 km/h (1 Bft)
23.10.2019 20:37 10,4 °C 93 % 1011,4 hPa 0,0 mm 2,1 km/h (1 Bft) S-SO 150 ° 0 min 0,000 mm 0,0 UV-I 0 W/m² 9,3 °C 10,4 °C 4,8 km/h (1 Bft)
23.10.2019 20:38 10,4 °C 93 % 1011,4 hPa 0,0 mm 0,0 km/h (0 Bft) S-SO 150 ° 0 min 0,000 mm 0,0 UV-I 0 W/m² 9,3 °C 10,4 °C 0,0 km/h (0 Bft)
23.10.2019 20:39 10,5 °C 94 % 1011,4 hPa 0,0 mm 1,9 km/h (1 Bft) S-SO 150 ° 0 min 0,000 mm 0,0 UV-I 0 W/m² 9,6 °C 10,5 °C 3,2 km/h (1 Bft)
23.10.2019 20:40 10,6 °C 94 % 1011,4 hPa 0,0 mm 0,1 km/h (0 Bft) S-SO 150 ° 0 min 0,000 mm 0,0 UV-I 0 W/m² 9,7 °C 10,6 °C 1,6 km/h (1 Bft)
23.10.2019 20:41 10,6 °C 94 % 1011,4 hPa 0,0 mm 0,0 km/h (0 Bft) S-SO 150 ° 0 min 0,000 mm 0,0 UV-I 0 W/m² 9,7 °C 10,6 °C 0,0 km/h (0 Bft)
23.10.2019 20:42 10,6 °C 94 % 1011,5 hPa 0,0 mm 0,0 km/h (0 Bft) S-SO 150 ° 0 min 0,000 mm 0,0 UV-I 0 W/m² 9,7 °C 10,6 °C 0,0 km/h (0 Bft)
23.10.2019 20:43 10,6 °C 94 % 1011,4 hPa 0,0 mm 0,0 km/h (0 Bft) S-SO 150 ° 0 min 0,000 mm 0,0 UV-I 0 W/m² 9,7 °C 10,6 °C 0,0 km/h (0 Bft)
23.10.2019 20:44 10,4 °C 94 % 1011,4 hPa 0,0 mm 0,0 km/h (0 Bft) S-SO 150 ° 0 min 0,000 mm 0,0 UV-I 0 W/m² 9,5 °C 10,4 °C 0,0 km/h (0 Bft)
23.10.2019 20:45 10,4 °C 94 % 1011,4 hPa 0,0 mm 0,0 km/h (0 Bft) S-SO 150 ° 0 min 0,000 mm 0,0 UV-I 0 W/m² 9,5 °C 10,4 °C 0,0 km/h (0 Bft)
23.10.2019 20:46 10,4 °C 94 % 1011,4 hPa 0,0 mm 0,0 km/h (0 Bft) S-SO 150 ° 0 min 0,000 mm 0,0 UV-I 0 W/m² 9,5 °C 10,4 °C 0,0 km/h (0 Bft)
23.10.2019 20:47 10,3 °C 94 % 1011,4 hPa 0,0 mm 0,0 km/h (0 Bft) S-SO 150 ° 0 min 0,000 mm 0,0 UV-I 0 W/m² 9,4 °C 10,3 °C 0,0 km/h (0 Bft)
23.10.2019 20:48 10,3 °C 93 % 1011,4 hPa 0,0 mm 0,0 km/h (0 Bft) S-SO 150 ° 0 min 0,000 mm 0,0 UV-I 0 W/m² 9,2 °C 10,3 °C 0,0 km/h (0 Bft)
23.10.2019 20:49 10,3 °C 93 % 1011,3 hPa 0,0 mm 0,0 km/h (0 Bft) S-SO 150 ° 0 min 0,000 mm 0,0 UV-I 0 W/m² 9,2 °C 10,3 °C 0,0 km/h (0 Bft)
23.10.2019 20:50 10,3 °C 94 % 1011,4 hPa 0,0 mm 0,0 km/h (0 Bft) S-SO 150 ° 0 min 0,000 mm 0,0 UV-I 0 W/m² 9,4 °C 10,3 °C 0,0 km/h (0 Bft)
23.10.2019 20:51 10,3 °C 94 % 1011,3 hPa 0,0 mm 0,0 km/h (0 Bft) S-SO 150 ° 0 min 0,000 mm 0,0 UV-I 0 W/m² 9,4 °C 10,3 °C 0,0 km/h (0 Bft)
23.10.2019 20:52 10,3 °C 94 % 1011,3 hPa 0,0 mm 0,0 km/h (0 Bft) S-SO 150 ° 0 min 0,000 mm 0,0 UV-I 0 W/m² 9,4 °C 10,3 °C 0,0 km/h (0 Bft)
23.10.2019 20:53 10,2 °C 94 % 1011,3 hPa 0,0 mm 0,0 km/h (0 Bft) S-SO 150 ° 0 min 0,000 mm 0,0 UV-I 0 W/m² 9,3 °C 10,2 °C 0,0 km/h (0 Bft)
23.10.2019 20:54 10,3 °C 94 % 1011,4 hPa 0,0 mm 0,0 km/h (0 Bft) S-SO 150 ° 0 min 0,000 mm 0,0 UV-I 0 W/m² 9,4 °C 10,3 °C 0,0 km/h (0 Bft)
23.10.2019 20:55 10,4 °C 94 % 1011,4 hPa 0,0 mm 0,0 km/h (0 Bft) S-SO 150 ° 0 min 0,000 mm 0,0 UV-I 0 W/m² 9,5 °C 10,4 °C 0,0 km/h (0 Bft)
23.10.2019 20:56 10,6 °C 94 % 1011,3 hPa 0,0 mm 0,5 km/h (0 Bft) S-SO 150 ° 0 min 0,000 mm 0,0 UV-I 0 W/m² 9,7 °C 10,6 °C 4,8 km/h (1 Bft)
23.10.2019 20:57 10,7 °C 94 % 1011,3 hPa 0,0 mm 2,3 km/h (1 Bft) S-SO 150 ° 0 min 0,000 mm 0,0 UV-I 0 W/m² 9,8 °C 10,7 °C 4,8 km/h (1 Bft)
23.10.2019 20:58 10,8 °C 95 % 1011,2 hPa 0,0 mm 0,9 km/h (0 Bft) S-SO 150 ° 0 min 0,000 mm 0,0 UV-I 0 W/m² 10,0 °C 10,8 °C 3,2 km/h (1 Bft)
23.10.2019 20:59 11,0 °C 94 % 1011,2 hPa 0,0 mm 2,7 km/h (1 Bft) S-SO 150 ° 0 min 0,000 mm 0,0 UV-I 0 W/m² 10,1 °C 11,0 °C 3,2 km/h (1 Bft)
23.10.2019 21:00 11,1 °C 94 % 1011,2 hPa 0,0 mm 0,5 km/h (0 Bft) S-SO 150 ° 0 min 0,000 mm 0,0 UV-I 0 W/m² 10,2 °C 11,1 °C 1,6 km/h (1 Bft)
23.10.2019 21:01 11,1 °C 94 % 1011,2 hPa 0,0 mm 1,6 km/h (1 Bft) S-SO 150 ° 0 min 0,000 mm 0,0 UV-I 0 W/m² 10,2 °C 11,1 °C 3,2 km/h (1 Bft)
23.10.2019 21:02 11,2 °C 94 % 1011,1 hPa 0,0 mm 0,0 km/h (0 Bft) S-SO 150 ° 0 min 0,000 mm 0,0 UV-I 0 W/m² 10,3 °C 11,2 °C 0,0 km/h (0 Bft)
23.10.2019 21:03 11,2 °C 94 % 1011,1 hPa 0,0 mm 0,0 km/h (0 Bft) S-SO 150 ° 0 min 0,000 mm 0,0 UV-I 0 W/m² 10,3 °C 11,2 °C 0,0 km/h (0 Bft)
23.10.2019 21:04 11,3 °C 94 % 1011,0 hPa 0,0 mm 0,0 km/h (0 Bft) S-SO 150 ° 0 min 0,000 mm 0,0 UV-I 0 W/m² 10,4 °C 11,3 °C 0,0 km/h (0 Bft)
23.10.2019 21:05 11,3 °C 94 % 1011,1 hPa 0,0 mm 0,0 km/h (0 Bft) S-SO 150 ° 0 min 0,000 mm 0,0 UV-I 0 W/m² 10,4 °C 11,3 °C 0,0 km/h (0 Bft)
23.10.2019 21:06 11,2 °C 93 % 1011,0 hPa 0,0 mm 0,0 km/h (0 Bft) S-SO 150 ° 0 min 0,000 mm 0,0 UV-I 0 W/m² 10,1 °C 11,2 °C 0,0 km/h (0 Bft)
23.10.2019 21:07 11,0 °C 93 % 1011,0 hPa 0,0 mm 0,0 km/h (0 Bft) S-SO 150 ° 0 min 0,000 mm 0,0 UV-I 0 W/m² 9,9 °C 11,0 °C 0,0 km/h (0 Bft)
23.10.2019 21:08 10,9 °C 93 % 1011,0 hPa 0,0 mm 1,0 km/h (0 Bft) S-SO 150 ° 0 min 0,000 mm 0,0 UV-I 0 W/m² 9,8 °C 10,9 °C 3,2 km/h (1 Bft)
23.10.2019 21:09 10,9 °C 93 % 1011,0 hPa 0,0 mm 0,0 km/h (0 Bft) S-SO 150 ° 0 min 0,000 mm 0,0 UV-I 0 W/m² 9,8 °C 10,9 °C 0,0 km/h (0 Bft)
23.10.2019 21:10 10,7 °C 93 % 1011,0 hPa 0,0 mm 0,0 km/h (0 Bft) S-SO 150 ° 0 min 0,000 mm 0,0 UV-I 0 W/m² 9,6 °C 10,7 °C 0,0 km/h (0 Bft)
23.10.2019 21:11 10,4 °C 92 % 1011,0 hPa 0,0 mm 0,7 km/h (0 Bft) S-SO 150 ° 0 min 0,000 mm 0,0 UV-I 0 W/m² 9,2 °C 10,4 °C 1,6 km/h (1 Bft)
23.10.2019 21:12 10,1 °C 91 % 1011,0 hPa 0,0 mm 0,8 km/h (0 Bft) S-SO 150 ° 0 min 0,000 mm 0,0 UV-I 0 W/m² 8,7 °C 10,1 °C 3,2 km/h (1 Bft)
23.10.2019 21:13 9,8 °C 92 % 1011,0 hPa 0,0 mm 0,0 km/h (0 Bft) S-SO 150 ° 0 min 0,000 mm 0,0 UV-I 0 W/m² 8,6 °C 9,8 °C 0,0 km/h (0 Bft)
23.10.2019 21:14 9,7 °C 92 % 1011,0 hPa 0,0 mm 0,0 km/h (0 Bft) S-SO 150 ° 0 min 0,000 mm 0,0 UV-I 0 W/m² 8,5 °C 9,7 °C 0,0 km/h (0 Bft)
23.10.2019 21:15 9,6 °C 92 % 1011,1 hPa 0,0 mm 0,0 km/h (0 Bft) S-SO 150 ° 0 min 0,000 mm 0,0 UV-I 0 W/m² 8,4 °C 9,6 °C 0,0 km/h (0 Bft)
23.10.2019 21:16 9,6 °C 93 % 1011,0 hPa 0,0 mm 0,0 km/h (0 Bft) S-SO 150 ° 0 min 0,000 mm 0,0 UV-I 0 W/m² 8,5 °C 9,6 °C 0,0 km/h (0 Bft)
23.10.2019 21:17 9,5 °C 93 % 1011,0 hPa 0,0 mm 0,0 km/h (0 Bft) S-SO 150 ° 0 min 0,000 mm 0,0 UV-I 0 W/m² 8,4 °C 9,5 °C 0,0 km/h (0 Bft)
23.10.2019 21:18 9,5 °C 93 % 1011,0 hPa 0,0 mm 0,0 km/h (0 Bft) S-SO 150 ° 0 min 0,000 mm 0,0 UV-I 0 W/m² 8,4 °C 9,5 °C 0,0 km/h (0 Bft)
23.10.2019 21:19 9,4 °C 93 % 1010,9 hPa 0,0 mm 0,0 km/h (0 Bft) S-SO 150 ° 0 min 0,000 mm 0,0 UV-I 0 W/m² 8,3 °C 9,4 °C 0,0 km/h (0 Bft)
23.10.2019 21:20 9,4 °C 93 % 1011,0 hPa 0,0 mm 0,0 km/h (0 Bft) S-SO 150 ° 0 min 0,000 mm 0,0 UV-I 0 W/m² 8,3 °C 9,4 °C 0,0 km/h (0 Bft)
23.10.2019 21:21 9,4 °C 93 % 1010,9 hPa 0,0 mm 0,0 km/h (0 Bft) S-SO 150 ° 0 min 0,000 mm 0,0 UV-I 0 W/m² 8,3 °C 9,4 °C 0,0 km/h (0 Bft)
23.10.2019 21:22 9,6 °C 94 % 1011,0 hPa 0,0 mm 0,0 km/h (0 Bft) S-SO 150 ° 0 min 0,000 mm 0,0 UV-I 0 W/m² 8,7 °C 9,6 °C 0,0 km/h (0 Bft)
23.10.2019 21:23 9,6 °C 94 % 1011,0 hPa 0,0 mm 0,0 km/h (0 Bft) S-SO 150 ° 0 min 0,000 mm 0,0 UV-I 0 W/m² 8,7 °C 9,6 °C 0,0 km/h (0 Bft)
23.10.2019 21:24 9,6 °C 93 % 1011,0 hPa 0,0 mm 0,0 km/h (0 Bft) S-SO 150 ° 0 min 0,000 mm 0,0 UV-I 0 W/m² 8,5 °C 9,6 °C 0,0 km/h (0 Bft)
23.10.2019 21:25 9,4 °C 93 % 1011,0 hPa 0,0 mm 0,0 km/h (0 Bft) S-SO 150 ° 0 min 0,000 mm 0,0 UV-I 0 W/m² 8,3 °C 9,4 °C 0,0 km/h (0 Bft)
23.10.2019 21:26 9,4 °C 93 % 1011,0 hPa 0,0 mm 0,0 km/h (0 Bft) S-SO 150 ° 0 min 0,000 mm 0,0 UV-I 0 W/m² 8,3 °C 9,4 °C 0,0 km/h (0 Bft)
23.10.2019 21:27 9,3 °C 93 % 1011,0 hPa 0,0 mm 0,0 km/h (0 Bft) S-SO 150 ° 0 min 0,000 mm 0,0 UV-I 0 W/m² 8,2 °C 9,3 °C 0,0 km/h (0 Bft)
23.10.2019 21:28 9,3 °C 93 % 1011,0 hPa 0,0 mm 0,0 km/h (0 Bft) S-SO 150 ° 0 min 0,000 mm 0,0 UV-I 0 W/m² 8,2 °C 9,3 °C 0,0 km/h (0 Bft)
23.10.2019 21:29 9,3 °C 93 % 1011,0 hPa 0,0 mm 0,0 km/h (0 Bft) S-SO 150 ° 0 min 0,000 mm 0,0 UV-I 0 W/m² 8,2 °C 9,3 °C 0,0 km/h (0 Bft)
23.10.2019 21:30 9,3 °C 93 % 1011,0 hPa 0,0 mm 0,0 km/h (0 Bft) S-SO 150 ° 0 min 0,000 mm 0,0 UV-I 0 W/m² 8,2 °C 9,3 °C 0,0 km/h (0 Bft)
23.10.2019 21:31 9,3 °C 93 % 1011,0 hPa 0,0 mm 0,0 km/h (0 Bft) S-SO 150 ° 0 min 0,000 mm 0,0 UV-I 0 W/m² 8,2 °C 9,3 °C 0,0 km/h (0 Bft)
23.10.2019 21:32 9,3 °C 93 % 1010,9 hPa 0,0 mm 0,0 km/h (0 Bft) S-SO 150 ° 0 min 0,000 mm 0,0 UV-I 0 W/m² 8,2 °C 9,3 °C 0,0 km/h (0 Bft)
23.10.2019 21:33 9,3 °C 93 % 1010,9 hPa 0,0 mm 0,0 km/h (0 Bft) S-SO 150 ° 0 min 0,000 mm 0,0 UV-I 0 W/m² 8,2 °C 9,3 °C 0,0 km/h (0 Bft)
23.10.2019 21:34 9,3 °C 94 % 1010,9 hPa 0,0 mm 0,0 km/h (0 Bft) S-SO 150 ° 0 min 0,000 mm 0,0 UV-I 0 W/m² 8,4 °C 9,3 °C 0,0 km/h (0 Bft)
23.10.2019 21:35 9,2 °C 94 % 1010,9 hPa 0,0 mm 0,0 km/h (0 Bft) S-SO 150 ° 0 min 0,000 mm 0,0 UV-I 0 W/m² 8,3 °C 9,2 °C 0,0 km/h (0 Bft)
23.10.2019 21:36 9,2 °C 94 % 1010,9 hPa 0,0 mm 0,0 km/h (0 Bft) S-SO 150 ° 0 min 0,000 mm 0,0 UV-I 0 W/m² 8,3 °C 9,2 °C 0,0 km/h (0 Bft)
23.10.2019 21:37 9,2 °C 94 % 1010,9 hPa 0,0 mm 0,0 km/h (0 Bft) S-SO 150 ° 0 min 0,000 mm 0,0 UV-I 0 W/m² 8,3 °C 9,2 °C 0,0 km/h (0 Bft)
23.10.2019 21:38 9,2 °C 94 % 1010,9 hPa 0,0 mm 0,0 km/h (0 Bft) S-SO 150 ° 0 min 0,000 mm 0,0 UV-I 0 W/m² 8,3 °C 9,2 °C 0,0 km/h (0 Bft)
23.10.2019 21:39 9,2 °C 94 % 1010,9 hPa 0,0 mm 0,0 km/h (0 Bft) S-SO 150 ° 0 min 0,000 mm 0,0 UV-I 0 W/m² 8,3 °C 9,2 °C 0,0 km/h (0 Bft)
23.10.2019 21:40 9,1 °C 93 % 1010,9 hPa 0,0 mm 0,0 km/h (0 Bft) S-SO 150 ° 0 min 0,000 mm 0,0 UV-I 0 W/m² 8,0 °C 9,1 °C 0,0 km/h (0 Bft)
23.10.2019 21:41 9,0 °C 93 % 1010,9 hPa 0,0 mm 0,0 km/h (0 Bft) S-SO 150 ° 0 min 0,000 mm 0,0 UV-I 0 W/m² 7,9 °C 9,0 °C 0,0 km/h (0 Bft)
23.10.2019 21:42 9,0 °C 93 % 1010,9 hPa 0,0 mm 0,0 km/h (0 Bft) S-SO 150 ° 0 min 0,000 mm 0,0 UV-I 0 W/m² 7,9 °C 9,0 °C 0,0 km/h (0 Bft)
23.10.2019 21:43 8,9 °C 93 % 1010,9 hPa 0,0 mm 0,0 km/h (0 Bft) S-SO 150 ° 0 min 0,000 mm 0,0 UV-I 0 W/m² 7,8 °C 8,9 °C 0,0 km/h (0 Bft)
23.10.2019 21:44 8,9 °C 93 % 1010,9 hPa 0,0 mm 0,0 km/h (0 Bft) S-SO 150 ° 0 min 0,000 mm 0,0 UV-I 0 W/m² 7,8 °C 8,9 °C 0,0 km/h (0 Bft)
23.10.2019 21:45 8,9 °C 93 % 1010,9 hPa 0,0 mm 0,0 km/h (0 Bft) S-SO 150 ° 0 min 0,000 mm 0,0 UV-I 0 W/m² 7,8 °C 8,9 °C 0,0 km/h (0 Bft)
23.10.2019 21:46 8,9 °C 93 % 1010,8 hPa 0,0 mm 0,0 km/h (0 Bft) S-SO 150 ° 0 min 0,000 mm 0,0 UV-I 0 W/m² 7,8 °C 8,9 °C 0,0 km/h (0 Bft)
23.10.2019 21:47 8,9 °C 93 % 1010,8 hPa 0,0 mm 0,0 km/h (0 Bft) S-SO 150 ° 0 min 0,000 mm 0,0 UV-I 0 W/m² 7,8 °C 8,9 °C 0,0 km/h (0 Bft)
23.10.2019 21:48 8,9 °C 93 % 1010,9 hPa 0,0 mm 0,0 km/h (0 Bft) S-SO 150 ° 0 min 0,000 mm 0,0 UV-I 0 W/m² 7,8 °C 8,9 °C 0,0 km/h (0 Bft)
23.10.2019 21:49 9,1 °C 94 % 1010,8 hPa 0,0 mm 0,0 km/h (0 Bft) S-SO 150 ° 0 min 0,000 mm 0,0 UV-I 0 W/m² 8,2 °C 9,1 °C 0,0 km/h (0 Bft)
23.10.2019 21:50 9,1 °C 94 % 1010,7 hPa 0,0 mm 0,0 km/h (0 Bft) S-SO 150 ° 0 min 0,000 mm 0,0 UV-I 0 W/m² 8,2 °C 9,1 °C 0,0 km/h (0 Bft)
23.10.2019 21:51 9,1 °C 94 % 1010,7 hPa 0,0 mm 0,0 km/h (0 Bft) S-SO 150 ° 0 min 0,000 mm 0,0 UV-I 0 W/m² 8,2 °C 9,1 °C 0,0 km/h (0 Bft)
23.10.2019 21:52 9,1 °C 94 % 1010,7 hPa 0,0 mm 0,0 km/h (0 Bft) S-SO 150 ° 0 min 0,000 mm 0,0 UV-I 0 W/m² 8,2 °C 9,1 °C 0,0 km/h (0 Bft)
23.10.2019 21:53 9,0 °C 93 % 1010,8 hPa 0,0 mm 0,0 km/h (0 Bft) S-SO 150 ° 0 min 0,000 mm 0,0 UV-I 0 W/m² 7,9 °C 9,0 °C 0,0 km/h (0 Bft)
23.10.2019 21:54 9,0 °C 93 % 1010,8 hPa 0,0 mm 0,0 km/h (0 Bft) S-SO 150 ° 0 min 0,000 mm 0,0 UV-I 0 W/m² 7,9 °C 9,0 °C 0,0 km/h (0 Bft)
23.10.2019 21:55 9,0 °C 93 % 1010,8 hPa 0,0 mm 2,3 km/h (1 Bft) S-SO 150 ° 0 min 0,000 mm 0,0 UV-I 0 W/m² 7,9 °C 9,0 °C 3,2 km/h (1 Bft)
23.10.2019 21:56 9,1 °C 94 % 1010,8 hPa 0,0 mm 2,0 km/h (1 Bft) S-SO 150 ° 0 min 0,000 mm 0,0 UV-I 0 W/m² 8,2 °C 9,1 °C 3,2 km/h (1 Bft)
23.10.2019 21:57 9,2 °C 94 % 1010,8 hPa 0,0 mm 0,0 km/h (0 Bft) S-SO 150 ° 0 min 0,000 mm 0,0 UV-I 0 W/m² 8,3 °C 9,2 °C 0,0 km/h (0 Bft)
23.10.2019 21:58 9,3 °C 94 % 1010,8 hPa 0,0 mm 1,9 km/h (1 Bft) S-SO 150 ° 0 min 0,000 mm 0,0 UV-I 0 W/m² 8,4 °C 9,3 °C 3,2 km/h (1 Bft)
23.10.2019 21:59 9,6 °C 94 % 1010,8 hPa 0,0 mm 4,5 km/h (1 Bft) S-SO 150 ° 0 min 0,000 mm 0,0 UV-I 0 W/m² 8,7 °C 9,6 °C 4,8 km/h (1 Bft)
23.10.2019 22:00 9,8 °C 94 % 1010,8 hPa 0,0 mm 3,9 km/h (1 Bft) S-SO 150 ° 0 min 0,000 mm 0,0 UV-I 0 W/m² 8,9 °C 9,8 °C 6,4 km/h (2 Bft)
23.10.2019 22:01 10,0 °C 94 % 1010,7 hPa 0,0 mm 1,0 km/h (0 Bft) S-SO 150 ° 0 min 0,000 mm 0,0 UV-I 0 W/m² 9,1 °C 10,0 °C 3,2 km/h (1 Bft)
23.10.2019 22:02 10,1 °C 94 % 1010,8 hPa 0,0 mm 0,1 km/h (0 Bft) S-SO 150 ° 0 min 0,000 mm 0,0 UV-I 0 W/m² 9,2 °C 10,1 °C 1,6 km/h (1 Bft)
23.10.2019 22:03 10,2 °C 93 % 1010,8 hPa 0,0 mm 0,0 km/h (0 Bft) S-SO 150 ° 0 min 0,000 mm 0,0 UV-I 0 W/m² 9,1 °C 10,2 °C 0,0 km/h (0 Bft)
23.10.2019 22:04 10,3 °C 93 % 1010,8 hPa 0,0 mm 0,0 km/h (0 Bft) S-SO 150 ° 0 min 0,000 mm 0,0 UV-I 0 W/m² 9,2 °C 10,3 °C 0,0 km/h (0 Bft)
23.10.2019 22:05 10,3 °C 93 % 1010,7 hPa 0,0 mm 0,2 km/h (0 Bft) S-SO 150 ° 0 min 0,000 mm 0,0 UV-I 0 W/m² 9,2 °C 10,3 °C 1,6 km/h (1 Bft)
23.10.2019 22:06 10,4 °C 93 % 1010,7 hPa 0,0 mm 0,4 km/h (0 Bft) S-SO 150 ° 0 min 0,000 mm 0,0 UV-I 0 W/m² 9,3 °C 10,4 °C 3,2 km/h (1 Bft)
23.10.2019 22:07 10,6 °C 93 % 1010,8 hPa 0,0 mm 2,9 km/h (1 Bft) S-SO 150 ° 0 min 0,000 mm 0,0 UV-I 0 W/m² 9,5 °C 10,6 °C 4,8 km/h (1 Bft)
23.10.2019 22:08 10,7 °C 93 % 1010,8 hPa 0,0 mm 4,2 km/h (1 Bft) S-SO 150 ° 0 min 0,000 mm 0,0 UV-I 0 W/m² 9,6 °C 10,7 °C 4,8 km/h (1 Bft)
23.10.2019 22:09 10,9 °C 92 % 1010,8 hPa 0,0 mm 4,6 km/h (1 Bft) S-SO 150 ° 0 min 0,000 mm 0,0 UV-I 0 W/m² 9,7 °C 10,9 °C 6,4 km/h (2 Bft)
23.10.2019 22:10 10,9 °C 92 % 1010,8 hPa 0,0 mm 2,5 km/h (1 Bft) S-SO 150 ° 0 min 0,000 mm 0,0 UV-I 0 W/m² 9,7 °C 10,9 °C 4,8 km/h (1 Bft)
23.10.2019 22:11 10,9 °C 91 % 1010,8 hPa 0,0 mm 0,2 km/h (0 Bft) S-SO 150 ° 0 min 0,000 mm 0,0 UV-I 0 W/m² 9,5 °C 10,9 °C 1,6 km/h (1 Bft)
23.10.2019 22:12 10,9 °C 91 % 1010,8 hPa 0,0 mm 2,7 km/h (1 Bft) S-SO 150 ° 0 min 0,000 mm 0,0 UV-I 0 W/m² 9,5 °C 10,9 °C 4,8 km/h (1 Bft)
23.10.2019 22:13 10,6 °C 89 % 1010,7 hPa 0,0 mm 0,5 km/h (0 Bft) S-SO 150 ° 0 min 0,000 mm 0,0 UV-I 0 W/m² 8,9 °C 10,6 °C 3,2 km/h (1 Bft)
23.10.2019 22:14 10,3 °C 89 % 1010,8 hPa 0,0 mm 0,1 km/h (0 Bft) S-SO 150 ° 0 min 0,000 mm 0,0 UV-I 0 W/m² 8,6 °C 10,3 °C 1,6 km/h (1 Bft)
23.10.2019 22:15 10,1 °C 89 % 1010,7 hPa 0,0 mm 0,5 km/h (0 Bft) S-SO 150 ° 0 min 0,000 mm 0,0 UV-I 0 W/m² 8,4 °C 10,1 °C 3,2 km/h (1 Bft)
23.10.2019 22:16 10,0 °C 90 % 1010,8 hPa 0,0 mm 4,0 km/h (1 Bft) S-SO 150 ° 0 min 0,000 mm 0,0 UV-I 0 W/m² 8,4 °C 10,0 °C 4,8 km/h (1 Bft)
23.10.2019 22:17 10,0 °C 91 % 1010,8 hPa 0,0 mm 2,7 km/h (1 Bft) S-SO 150 ° 0 min 0,000 mm 0,0 UV-I 0 W/m² 8,6 °C 10,0 °C 4,8 km/h (1 Bft)
23.10.2019 22:18 9,9 °C 91 % 1010,8 hPa 0,0 mm 1,2 km/h (1 Bft) S-SO 150 ° 0 min 0,000 mm 0,0 UV-I 0 W/m² 8,5 °C 9,9 °C 3,2 km/h (1 Bft)
23.10.2019 22:19 9,8 °C 90 % 1010,7 hPa 0,0 mm 3,9 km/h (1 Bft) S-SO 150 ° 0 min 0,000 mm 0,0 UV-I 0 W/m² 8,2 °C 9,8 °C 6,4 km/h (2 Bft)
23.10.2019 22:20 9,7 °C 90 % 1010,7 hPa 0,0 mm 4,8 km/h (1 Bft) S-SO 150 ° 0 min 0,000 mm 0,0 UV-I 0 W/m² 8,1 °C 9,5 °C 6,4 km/h (2 Bft)
23.10.2019 22:21 9,7 °C 92 % 1010,6 hPa 0,0 mm 3,1 km/h (1 Bft) S-SO 150 ° 0 min 0,000 mm 0,0 UV-I 0 W/m² 8,5 °C 9,7 °C 4,8 km/h (1 Bft)
23.10.2019 22:22 9,8 °C 92 % 1010,6 hPa 0,0 mm 2,3 km/h (1 Bft) S-SO 150 ° 0 min 0,000 mm 0,0 UV-I 0 W/m² 8,6 °C 9,8 °C 4,8 km/h (1 Bft)
23.10.2019 22:23 10,1 °C 92 % 1010,7 hPa 0,0 mm 4,1 km/h (1 Bft) W 271 ° 0 min 0,000 mm 0,0 UV-I 0 W/m² 8,9 °C 10,1 °C 11,3 km/h (2 Bft)
23.10.2019 22:24 10,1 °C 92 % 1010,7 hPa 0,0 mm 5,8 km/h (2 Bft) W 267 ° 0 min 0,000 mm 0,0 UV-I 0 W/m² 8,9 °C 10,1 °C 11,3 km/h (2 Bft)
23.10.2019 22:25 10,2 °C 91 % 1010,7 hPa 0,0 mm 2,6 km/h (1 Bft) W-NW 291 ° 0 min 0,000 mm 0,0 UV-I 0 W/m² 8,8 °C 10,2 °C 4,8 km/h (1 Bft)
23.10.2019 22:26 10,2 °C 91 % 1010,7 hPa 0,0 mm 2,4 km/h (1 Bft) S-SW 201 ° 0 min 0,000 mm 0,0 UV-I 0 W/m² 8,8 °C 10,2 °C 4,8 km/h (1 Bft)
23.10.2019 22:27 10,1 °C 90 % 1010,7 hPa 0,0 mm 3,9 km/h (1 Bft) S-SW 201 ° 0 min 0,000 mm 0,0 UV-I 0 W/m² 8,5 °C 10,1 °C 4,8 km/h (1 Bft)
23.10.2019 22:28 10,1 °C 90 % 1010,7 hPa 0,0 mm 2,9 km/h (1 Bft) S-SW 201 ° 0 min 0,000 mm 0,0 UV-I 0 W/m² 8,5 °C 10,1 °C 3,2 km/h (1 Bft)
23.10.2019 22:29 10,3 °C 91 % 1010,7 hPa 0,0 mm 3,0 km/h (1 Bft) S-SW 201 ° 0 min 0,000 mm 0,0 UV-I 0 W/m² 8,9 °C 10,3 °C 6,4 km/h (2 Bft)
23.10.2019 22:30 10,3 °C 90 % 1010,7 hPa 0,0 mm 0,2 km/h (0 Bft) S-SW 201 ° 0 min 0,000 mm 0,0 UV-I 0 W/m² 8,7 °C 10,3 °C 1,6 km/h (1 Bft)
23.10.2019 22:31 10,3 °C 90 % 1010,7 hPa 0,0 mm 0,0 km/h (0 Bft) S-SW 201 ° 0 min 0,000 mm 0,0 UV-I 0 W/m² 8,7 °C 10,3 °C 0,0 km/h (0 Bft)
23.10.2019 22:32 10,2 °C 89 % 1010,7 hPa 0,0 mm 0,0 km/h (0 Bft) S-SW 201 ° 0 min 0,000 mm 0,0 UV-I 0 W/m² 8,5 °C 10,2 °C 0,0 km/h (0 Bft)
23.10.2019 22:33 10,2 °C 90 % 1010,7 hPa 0,0 mm 0,0 km/h (0 Bft) S-SW 201 ° 0 min 0,000 mm 0,0 UV-I 0 W/m² 8,6 °C 10,2 °C 0,0 km/h (0 Bft)
23.10.2019 22:34 10,3 °C 90 % 1010,7 hPa 0,0 mm 0,0 km/h (0 Bft) S-SW 201 ° 0 min 0,000 mm 0,0 UV-I 0 W/m² 8,7 °C 10,3 °C 0,0 km/h (0 Bft)
23.10.2019 22:35 10,3 °C 89 % 1010,7 hPa 0,0 mm 0,0 km/h (0 Bft) S-SW 201 ° 0 min 0,000 mm 0,0 UV-I 0 W/m² 8,6 °C 10,3 °C 0,0 km/h (0 Bft)
23.10.2019 22:36 10,2 °C 89 % 1010,7 hPa 0,0 mm 0,0 km/h (0 Bft) S-SW 201 ° 0 min 0,000 mm 0,0 UV-I 0 W/m² 8,5 °C 10,2 °C 0,0 km/h (0 Bft)
23.10.2019 22:37 10,2 °C 89 % 1010,7 hPa 0,0 mm 0,0 km/h (0 Bft) S-SW 201 ° 0 min 0,000 mm 0,0 UV-I 0 W/m² 8,5 °C 10,2 °C 0,0 km/h (0 Bft)
23.10.2019 22:38 10,1 °C 89 % 1010,7 hPa 0,0 mm 0,0 km/h (0 Bft) S-SW 201 ° 0 min 0,000 mm 0,0 UV-I 0 W/m² 8,4 °C 10,1 °C 0,0 km/h (0 Bft)
23.10.2019 22:39 9,9 °C 89 % 1010,7 hPa 0,0 mm 0,0 km/h (0 Bft) S-SW 201 ° 0 min 0,000 mm 0,0 UV-I 0 W/m² 8,2 °C 9,9 °C 0,0 km/h (0 Bft)
23.10.2019 22:40 9,8 °C 89 % 1010,7 hPa 0,0 mm 1,3 km/h (1 Bft) W 267 ° 0 min 0,000 mm 0,0 UV-I 0 W/m² 8,1 °C 9,8 °C 3,2 km/h (1 Bft)
23.10.2019 22:41 9,7 °C 89 % 1010,7 hPa 0,0 mm 0,9 km/h (0 Bft) W 267 ° 0 min 0,000 mm 0,0 UV-I 0 W/m² 8,0 °C 9,7 °C 3,2 km/h (1 Bft)
23.10.2019 22:42 9,4 °C 89 % 1010,7 hPa 0,0 mm 0,0 km/h (0 Bft) W 267 ° 0 min 0,000 mm 0,0 UV-I 0 W/m² 7,7 °C 9,4 °C 0,0 km/h (0 Bft)
23.10.2019 22:43 9,3 °C 89 % 1010,7 hPa 0,0 mm 0,0 km/h (0 Bft) W 267 ° 0 min 0,000 mm 0,0 UV-I 0 W/m² 7,6 °C 9,3 °C 0,0 km/h (0 Bft)
23.10.2019 22:44 9,2 °C 90 % 1010,8 hPa 0,0 mm 0,0 km/h (0 Bft) W 267 ° 0 min 0,000 mm 0,0 UV-I 0 W/m² 7,6 °C 9,2 °C 0,0 km/h (0 Bft)
23.10.2019 22:45 9,1 °C 90 % 1010,8 hPa 0,0 mm 0,6 km/h (0 Bft) W 267 ° 0 min 0,000 mm 0,0 UV-I 0 W/m² 7,5 °C 9,1 °C 3,2 km/h (1 Bft)
23.10.2019 22:46 9,1 °C 90 % 1010,7 hPa 0,0 mm 1,4 km/h (1 Bft) W 267 ° 0 min 0,000 mm 0,0 UV-I 0 W/m² 7,5 °C 9,1 °C 3,2 km/h (1 Bft)
23.10.2019 22:47 9,0 °C 91 % 1010,7 hPa 0,0 mm 0,0 km/h (0 Bft) W 267 ° 0 min 0,000 mm 0,0 UV-I 0 W/m² 7,6 °C 9,0 °C 0,0 km/h (0 Bft)
23.10.2019 22:48 9,0 °C 91 % 1010,7 hPa 0,0 mm 0,0 km/h (0 Bft) W 267 ° 0 min 0,000 mm 0,0 UV-I 0 W/m² 7,6 °C 9,0 °C 0,0 km/h (0 Bft)
23.10.2019 22:49 9,0 °C 91 % 1010,7 hPa 0,0 mm 0,0 km/h (0 Bft) W 267 ° 0 min 0,000 mm 0,0 UV-I 0 W/m² 7,6 °C 9,0 °C 0,0 km/h (0 Bft)
23.10.2019 22:50 9,0 °C 92 % 1010,7 hPa 0,0 mm 0,0 km/h (0 Bft) W 267 ° 0 min 0,000 mm 0,0 UV-I 0 W/m² 7,8 °C 9,0 °C 0,0 km/h (0 Bft)
23.10.2019 22:51 9,0 °C 92 % 1010,7 hPa 0,0 mm 0,0 km/h (0 Bft) W 267 ° 0 min 0,000 mm 0,0 UV-I 0 W/m² 7,8 °C 9,0 °C 0,0 km/h (0 Bft)
23.10.2019 22:52 9,1 °C 92 % 1010,7 hPa 0,0 mm 1,5 km/h (1 Bft) W 267 ° 0 min 0,000 mm 0,0 UV-I 0 W/m² 7,9 °C 9,1 °C 3,2 km/h (1 Bft)
23.10.2019 22:53 9,1 °C 92 % 1010,7 hPa 0,0 mm 0,2 km/h (0 Bft) W 267 ° 0 min 0,000 mm 0,0 UV-I 0 W/m² 7,9 °C 9,1 °C 1,6 km/h (1 Bft)
23.10.2019 22:54 9,1 °C 92 % 1010,8 hPa 0,0 mm 0,7 km/h (0 Bft) W 267 ° 0 min 0,000 mm 0,0 UV-I 0 W/m² 7,9 °C 9,1 °C 3,2 km/h (1 Bft)
23.10.2019 22:55 9,1 °C 92 % 1010,7 hPa 0,0 mm 3,7 km/h (1 Bft) SO 128 ° 0 min 0,000 mm 0,0 UV-I 0 W/m² 7,9 °C 9,1 °C 4,8 km/h (1 Bft)
23.10.2019 22:56 9,2 °C 92 % 1010,7 hPa 0,0 mm 3,6 km/h (1 Bft) SO 128 ° 0 min 0,000 mm 0,0 UV-I 0 W/m² 8,0 °C 9,2 °C 4,8 km/h (1 Bft)
23.10.2019 22:57 9,3 °C 91 % 1010,8 hPa 0,0 mm 3,2 km/h (1 Bft) SO 128 ° 0 min 0,000 mm 0,0 UV-I 0 W/m² 7,9 °C 9,3 °C 3,2 km/h (1 Bft)
23.10.2019 22:58 9,3 °C 91 % 1010,8 hPa 0,0 mm 1,4 km/h (1 Bft) SO 128 ° 0 min 0,000 mm 0,0 UV-I 0 W/m² 7,9 °C 9,3 °C 3,2 km/h (1 Bft)
23.10.2019 22:59 9,4 °C 91 % 1010,7 hPa 0,0 mm 0,0 km/h (0 Bft) SO 128 ° 0 min 0,000 mm 0,0 UV-I 0 W/m² 8,0 °C 9,4 °C 0,0 km/h (0 Bft)
23.10.2019 23:00 9,4 °C 90 % 1010,7 hPa 0,0 mm 0,0 km/h (0 Bft) SO 128 ° 0 min 0,000 mm 0,0 UV-I 0 W/m² 7,8 °C 9,4 °C 0,0 km/h (0 Bft)
23.10.2019 23:01 9,5 °C 90 % 1010,7 hPa 0,0 mm 2,0 km/h (1 Bft) SO 129 ° 0 min 0,000 mm 0,0 UV-I 0 W/m² 7,9 °C 9,5 °C 3,2 km/h (1 Bft)
23.10.2019 23:02 9,6 °C 89 % 1010,6 hPa 0,0 mm 3,6 km/h (1 Bft) S-SW 204 ° 0 min 0,000 mm 0,0 UV-I 0 W/m² 7,9 °C 9,6 °C 4,8 km/h (1 Bft)
23.10.2019 23:03 9,5 °C 89 % 1010,6 hPa 0,0 mm 1,5 km/h (1 Bft) S-SW 204 ° 0 min 0,000 mm 0,0 UV-I 0 W/m² 7,8 °C 9,5 °C 3,2 km/h (1 Bft)
23.10.2019 23:04 9,5 °C 89 % 1010,6 hPa 0,0 mm 0,3 km/h (0 Bft) S-SW 204 ° 0 min 0,000 mm 0,0 UV-I 0 W/m² 7,8 °C 9,5 °C 1,6 km/h (1 Bft)
23.10.2019 23:05 9,6 °C 89 % 1010,6 hPa 0,0 mm 0,0 km/h (0 Bft) S-SW 204 ° 0 min 0,000 mm 0,0 UV-I 0 W/m² 7,9 °C 9,6 °C 0,0 km/h (0 Bft)
23.10.2019 23:06 9,6 °C 89 % 1010,6 hPa 0,0 mm 2,2 km/h (1 Bft) SW 233 ° 0 min 0,000 mm 0,0 UV-I 0 W/m² 7,9 °C 9,6 °C 4,8 km/h (1 Bft)
23.10.2019 23:07 9,6 °C 89 % 1010,6 hPa 0,0 mm 2,7 km/h (1 Bft) SW 233 ° 0 min 0,000 mm 0,0 UV-I 0 W/m² 7,9 °C 9,6 °C 4,8 km/h (1 Bft)
23.10.2019 23:08 9,7 °C 88 % 1010,6 hPa 0,0 mm 0,3 km/h (0 Bft) SW 233 ° 0 min 0,000 mm 0,0 UV-I 0 W/m² 7,8 °C 9,7 °C 1,6 km/h (1 Bft)
23.10.2019 23:09 9,7 °C 88 % 1010,6 hPa 0,0 mm 1,7 km/h (1 Bft) S 171 ° 0 min 0,000 mm 0,0 UV-I 0 W/m² 7,8 °C 9,7 °C 6,4 km/h (2 Bft)
23.10.2019 23:10 9,7 °C 88 % 1010,6 hPa 0,0 mm 3,6 km/h (1 Bft) S 171 ° 0 min 0,000 mm 0,0 UV-I 0 W/m² 7,8 °C 9,7 °C 6,4 km/h (2 Bft)
23.10.2019 23:11 9,8 °C 88 % 1010,5 hPa 0,0 mm 0,7 km/h (0 Bft) S 171 ° 0 min 0,000 mm 0,0 UV-I 0 W/m² 7,9 °C 9,8 °C 3,2 km/h (1 Bft)
23.10.2019 23:12 9,7 °C 87 % 1010,5 hPa 0,0 mm 0,0 km/h (0 Bft) S 171 ° 0 min 0,000 mm 0,0 UV-I 0 W/m² 7,6 °C 9,7 °C 0,0 km/h (0 Bft)
23.10.2019 23:13 9,7 °C 87 % 1010,5 hPa 0,0 mm 2,1 km/h (1 Bft) W-SW 248 ° 0 min 0,000 mm 0,0 UV-I 0 W/m² 7,6 °C 9,7 °C 3,2 km/h (1 Bft)
23.10.2019 23:14 9,7 °C 87 % 1010,6 hPa 0,0 mm 0,8 km/h (0 Bft) W-SW 248 ° 0 min 0,000 mm 0,0 UV-I 0 W/m² 7,6 °C 9,7 °C 1,6 km/h (1 Bft)
23.10.2019 23:15 9,6 °C 87 % 1010,5 hPa 0,0 mm 0,1 km/h (0 Bft) W-SW 248 ° 0 min 0,000 mm 0,0 UV-I 0 W/m² 7,5 °C 9,6 °C 1,6 km/h (1 Bft)
23.10.2019 23:16 9,4 °C 88 % 1010,5 hPa 0,0 mm 0,0 km/h (0 Bft) W-SW 248 ° 0 min 0,000 mm 0,0 UV-I 0 W/m² 7,5 °C 9,4 °C 0,0 km/h (0 Bft)
23.10.2019 23:17 9,3 °C 88 % 1010,5 hPa 0,0 mm 0,0 km/h (0 Bft) W-SW 248 ° 0 min 0,000 mm 0,0 UV-I 0 W/m² 7,4 °C 9,3 °C 0,0 km/h (0 Bft)
23.10.2019 23:18 9,2 °C 88 % 1010,5 hPa 0,0 mm 0,0 km/h (0 Bft) W-SW 248 ° 0 min 0,000 mm 0,0 UV-I 0 W/m² 7,3 °C 9,2 °C 0,0 km/h (0 Bft)
23.10.2019 23:19 9,1 °C 89 % 1010,5 hPa 0,0 mm 0,0 km/h (0 Bft) W-SW 248 ° 0 min 0,000 mm 0,0 UV-I 0 W/m² 7,4 °C 9,1 °C 0,0 km/h (0 Bft)
23.10.2019 23:20 9,0 °C 90 % 1010,6 hPa 0,0 mm 0,0 km/h (0 Bft) W-SW 248 ° 0 min 0,000 mm 0,0 UV-I 0 W/m² 7,4 °C 9,0 °C 0,0 km/h (0 Bft)
23.10.2019 23:21 8,9 °C 90 % 1010,6 hPa 0,0 mm 0,0 km/h (0 Bft) W-SW 248 ° 0 min 0,000 mm 0,0 UV-I 0 W/m² 7,4 °C 8,9 °C 0,0 km/h (0 Bft)
23.10.2019 23:22 8,9 °C 90 % 1010,5 hPa 0,0 mm 0,0 km/h (0 Bft) W-SW 248 ° 0 min 0,000 mm 0,0 UV-I 0 W/m² 7,4 °C 8,9 °C 0,0 km/h (0 Bft)
23.10.2019 23:23 8,8 °C 90 % 1010,5 hPa 0,0 mm 0,0 km/h (0 Bft) W-SW 248 ° 0 min 0,000 mm 0,0 UV-I 0 W/m² 7,3 °C 8,8 °C 0,0 km/h (0 Bft)
23.10.2019 23:24 8,8 °C 90 % 1010,5 hPa 0,0 mm 0,0 km/h (0 Bft) W-SW 248 ° 0 min 0,000 mm 0,0 UV-I 0 W/m² 7,3 °C 8,8 °C 0,0 km/h (0 Bft)
23.10.2019 23:25 8,7 °C 90 % 1010,5 hPa 0,0 mm 0,0 km/h (0 Bft) W-SW 248 ° 0 min 0,000 mm 0,0 UV-I 0 W/m² 7,2 °C 8,7 °C 0,0 km/h (0 Bft)
23.10.2019 23:26 8,7 °C 90 % 1010,5 hPa 0,0 mm 0,0 km/h (0 Bft) W-SW 248 ° 0 min 0,000 mm 0,0 UV-I 0 W/m² 7,2 °C 8,7 °C 0,0 km/h (0 Bft)
23.10.2019 23:27 8,6 °C 91 % 1010,6 hPa 0,0 mm 0,0 km/h (0 Bft) W-SW 248 ° 0 min 0,000 mm 0,0 UV-I 0 W/m² 7,2 °C 8,6 °C 0,0 km/h (0 Bft)
23.10.2019 23:28 8,6 °C 91 % 1010,5 hPa 0,0 mm 0,7 km/h (0 Bft) W-SW 248 ° 0 min 0,000 mm 0,0 UV-I 0 W/m² 7,2 °C 8,6 °C 4,8 km/h (1 Bft)
23.10.2019 23:29 8,6 °C 91 % 1010,5 hPa 0,0 mm 3,5 km/h (1 Bft) O-SO 122 ° 0 min 0,000 mm 0,0 UV-I 0 W/m² 7,2 °C 8,6 °C 4,8 km/h (1 Bft)
23.10.2019 23:30 8,6 °C 91 % 1010,4 hPa 0,0 mm 2,1 km/h (1 Bft) O-SO 122 ° 0 min 0,000 mm 0,0 UV-I 0 W/m² 7,2 °C 8,6 °C 3,2 km/h (1 Bft)
23.10.2019 23:31 8,6 °C 91 % 1010,4 hPa 0,0 mm 0,3 km/h (0 Bft) O-SO 122 ° 0 min 0,000 mm 0,0 UV-I 0 W/m² 7,2 °C 8,6 °C 1,6 km/h (1 Bft)
23.10.2019 23:32 8,6 °C 91 % 1010,4 hPa 0,0 mm 0,0 km/h (0 Bft) O-SO 122 ° 0 min 0,000 mm 0,0 UV-I 0 W/m² 7,2 °C 8,6 °C 0,0 km/h (0 Bft)
23.10.2019 23:33 8,5 °C 91 % 1010,4 hPa 0,0 mm 0,0 km/h (0 Bft) O-SO 123 ° 0 min 0,000 mm 0,0 UV-I 0 W/m² 7,1 °C 8,5 °C 0,0 km/h (0 Bft)
23.10.2019 23:34 8,5 °C 91 % 1010,4 hPa 0,0 mm 2,1 km/h (1 Bft) O-SO 123 ° 0 min 0,000 mm 0,0 UV-I 0 W/m² 7,1 °C 8,5 °C 3,2 km/h (1 Bft)
23.10.2019 23:35 8,5 °C 91 % 1010,5 hPa 0,0 mm 0,5 km/h (0 Bft) O-SO 123 ° 0 min 0,000 mm 0,0 UV-I 0 W/m² 7,1 °C 8,5 °C 1,6 km/h (1 Bft)
23.10.2019 23:36 8,5 °C 91 % 1010,5 hPa 0,0 mm 1,1 km/h (1 Bft) O-SO 123 ° 0 min 0,000 mm 0,0 UV-I 0 W/m² 7,1 °C 8,5 °C 4,8 km/h (1 Bft)
23.10.2019 23:37 8,6 °C 91 % 1010,5 hPa 0,0 mm 1,1 km/h (1 Bft) O-SO 123 ° 0 min 0,000 mm 0,0 UV-I 0 W/m² 7,2 °C 8,6 °C 3,2 km/h (1 Bft)
23.10.2019 23:38 8,6 °C 91 % 1010,5 hPa 0,0 mm 0,0 km/h (0 Bft) O-SO 123 ° 0 min 0,000 mm 0,0 UV-I 0 W/m² 7,2 °C 8,6 °C 0,0 km/h (0 Bft)
23.10.2019 23:39 8,7 °C 91 % 1010,5 hPa 0,0 mm 2,8 km/h (1 Bft) O-SO 123 ° 0 min 0,000 mm 0,0 UV-I 0 W/m² 7,3 °C 8,7 °C 3,2 km/h (1 Bft)
23.10.2019 23:40 8,9 °C 91 % 1010,5 hPa 0,0 mm 1,7 km/h (1 Bft) O-SO 123 ° 0 min 0,000 mm 0,0 UV-I 0 W/m² 7,5 °C 8,9 °C 3,2 km/h (1 Bft)
23.10.2019 23:41 8,9 °C 90 % 1010,4 hPa 0,0 mm 0,7 km/h (0 Bft) O-SO 123 ° 0 min 0,000 mm 0,0 UV-I 0 W/m² 7,4 °C 8,9 °C 1,6 km/h (1 Bft)
23.10.2019 23:42 9,0 °C 90 % 1010,4 hPa 0,0 mm 0,0 km/h (0 Bft) O-SO 123 ° 0 min 0,000 mm 0,0 UV-I 0 W/m² 7,4 °C 9,0 °C 0,0 km/h (0 Bft)
23.10.2019 23:43 9,0 °C 89 % 1010,4 hPa 0,0 mm 0,0 km/h (0 Bft) O-SO 123 ° 0 min 0,000 mm 0,0 UV-I 0 W/m² 7,3 °C 9,0 °C 0,0 km/h (0 Bft)
23.10.2019 23:44 9,0 °C 89 % 1010,4 hPa 0,0 mm 0,4 km/h (0 Bft) O-SO 123 ° 0 min 0,000 mm 0,0 UV-I 0 W/m² 7,3 °C 9,0 °C 3,2 km/h (1 Bft)
23.10.2019 23:45 9,1 °C 88 % 1010,4 hPa 0,0 mm 3,9 km/h (1 Bft) W-NW 296 ° 0 min 0,000 mm 0,0 UV-I 0 W/m² 7,2 °C 9,1 °C 4,8 km/h (1 Bft)
23.10.2019 23:46 9,1 °C 88 % 1010,4 hPa 0,0 mm 3,4 km/h (1 Bft) W-NW 296 ° 0 min 0,000 mm 0,0 UV-I 0 W/m² 7,2 °C 9,1 °C 4,8 km/h (1 Bft)
23.10.2019 23:47 9,1 °C 88 % 1010,3 hPa 0,0 mm 1,2 km/h (1 Bft) W-NW 296 ° 0 min 0,000 mm 0,0 UV-I 0 W/m² 7,2 °C 9,1 °C 3,2 km/h (1 Bft)
23.10.2019 23:48 9,1 °C 87 % 1010,3 hPa 0,0 mm 0,0 km/h (0 Bft) W-NW 296 ° 0 min 0,000 mm 0,0 UV-I 0 W/m² 7,1 °C 9,1 °C 0,0 km/h (0 Bft)
23.10.2019 23:49 9,2 °C 87 % 1010,3 hPa 0,0 mm 1,4 km/h (1 Bft) W-NW 296 ° 0 min 0,000 mm 0,0 UV-I 0 W/m² 7,2 °C 9,2 °C 3,2 km/h (1 Bft)
23.10.2019 23:50 9,3 °C 87 % 1010,3 hPa 0,0 mm 1,1 km/h (1 Bft) W-NW 296 ° 0 min 0,000 mm 0,0 UV-I 0 W/m² 7,2 °C 9,3 °C 1,6 km/h (1 Bft)
23.10.2019 23:51 9,3 °C 86 % 1010,3 hPa 0,0 mm 0,0 km/h (0 Bft) W-NW 296 ° 0 min 0,000 mm 0,0 UV-I 0 W/m² 7,1 °C 9,3 °C 0,0 km/h (0 Bft)
23.10.2019 23:52 9,4 °C 86 % 1010,3 hPa 0,0 mm 0,0 km/h (0 Bft) W-NW 296 ° 0 min 0,000 mm 0,0 UV-I 0 W/m² 7,2 °C 9,4 °C 0,0 km/h (0 Bft)
23.10.2019 23:53 9,4 °C 86 % 1010,3 hPa 0,0 mm 0,0 km/h (0 Bft) W-NW 296 ° 0 min 0,000 mm 0,0 UV-I 0 W/m² 7,2 °C 9,4 °C 0,0 km/h (0 Bft)
23.10.2019 23:54 9,3 °C 85 % 1010,2 hPa 0,0 mm 0,0 km/h (0 Bft) W-NW 296 ° 0 min 0,000 mm 0,0 UV-I 0 W/m² 6,9 °C 9,3 °C 0,0 km/h (0 Bft)
23.10.2019 23:55 9,1 °C 86 % 1010,2 hPa 0,0 mm 1,1 km/h (1 Bft) S 171 ° 0 min 0,000 mm 0,0 UV-I 0 W/m² 6,9 °C 9,1 °C 6,4 km/h (2 Bft)
23.10.2019 23:56 8,9 °C 86 % 1010,3 hPa 0,0 mm 2,5 km/h (1 Bft) S 171 ° 0 min 0,000 mm 0,0 UV-I 0 W/m² 6,7 °C 8,9 °C 6,4 km/h (2 Bft)
23.10.2019 23:57 8,9 °C 87 % 1010,3 hPa 0,0 mm 4,4 km/h (1 Bft) S 171 ° 0 min 0,000 mm 0,0 UV-I 0 W/m² 6,9 °C 8,9 °C 6,4 km/h (2 Bft)
23.10.2019 23:58 9,1 °C 87 % 1010,3 hPa 0,0 mm 6,8 km/h (2 Bft) S 171 ° 0 min 0,000 mm 0,0 UV-I 0 W/m² 7,1 °C 8,2 °C 8,0 km/h (2 Bft)
23.10.2019 23:59 9,2 °C 86 % 1010,2 hPa 0,0 mm 1,6 km/h (1 Bft) S 171 ° 0 min 0,000 mm 0,0 UV-I 0 W/m² 7,0 °C 9,2 °C 3,2 km/h (1 Bft)
_ Min-Zeit 08:07 13:29 23:59 - 23:54 - - - - - - 08:07 08:07 23:54
Minimum _ 5,7 °C 73 % 1010,2 hPa - 0,0 km/h (0 Bft) - - - - - - 5,1 °C 5,7 °C 0,0 km/h (0 Bft)
_ Max-Zeit 13:28 12:13 00:12 10:36 17:38 - - 23:59 16:01 13:42 13:41 13:19 13:28 16:31
Maximum _ 18,9 °C 97 % 1019,6 hPa 0,2 mm 11,0 km/h
W (2 Bft)
- - 0 min 0,203 mm 2,9 UV-I 524 W/m² 14,8 °C 18,9 °C 17,7 km/h
NO (3 Bft)
Durchschnitt _ 11,0 °C 92 % 1014,5 hPa #0,2 mm 1,2 km/h (1 Bft) O-NO - #0 min. #0,991 mm 1,6 UV-I 70 W/m² 9,6 °C 11,0 °C 2,2 km/h (1 Bft)